<?xml version="1.0" encoding="UTF-8" standalone="no" ?>
<gpx xmlns="http://www.topografix.com/GPX/1/1" xmlns:xsi="http://www.w3.org/2001/XMLSchema-instance" xsi:schemaLocation="http://www.topografix.com/GPX/1/1 http://www.topografix.com/GPX/1/1/gpx.xsd" version="1.1" creator="VisuGPX - https://www.visugpx.com">
  <metadata>
    <name>Sentier des Curattes (Ecrins)</name>
    <desc><![CDATA[Sentier des Curattes (Ecrins) [2 août 2021]]]></desc>
  </metadata>
  <trk>
    <name><![CDATA[Sentier des Curattes]]></name>
    <trkseg>
      <trkpt lat="44.52102" lon="6.32352">
        <ele>790.742</ele>
        <time>2021-08-02T14:17:42Z</time>
      </trkpt>
      <trkpt lat="44.52101" lon="6.32351">
        <ele>790.584</ele>
        <time>2021-08-02T14:17:45Z</time>
      </trkpt>
      <trkpt lat="44.52101" lon="6.32351">
        <ele>789.504</ele>
        <time>2021-08-02T14:17:46Z</time>
      </trkpt>
      <trkpt lat="44.52101" lon="6.32351">
        <ele>789.759</ele>
        <time>2021-08-02T14:17:48Z</time>
      </trkpt>
      <trkpt lat="44.521" lon="6.32351">
        <ele>791.258</ele>
        <time>2021-08-02T14:17:49Z</time>
      </trkpt>
      <trkpt lat="44.52102" lon="6.32347">
        <ele>793.479</ele>
        <time>2021-08-02T14:17:53Z</time>
      </trkpt>
      <trkpt lat="44.52103" lon="6.32345">
        <ele>794.12</ele>
        <time>2021-08-02T14:17:55Z</time>
      </trkpt>
      <trkpt lat="44.52103" lon="6.32345">
        <ele>792.825</ele>
        <time>2021-08-02T14:17:56Z</time>
      </trkpt>
      <trkpt lat="44.52106" lon="6.32344">
        <ele>793.313</ele>
        <time>2021-08-02T14:18:00Z</time>
      </trkpt>
      <trkpt lat="44.5211" lon="6.32341">
        <ele>794.182</ele>
        <time>2021-08-02T14:18:05Z</time>
      </trkpt>
      <trkpt lat="44.52111" lon="6.3234">
        <ele>793.41</ele>
        <time>2021-08-02T14:18:06Z</time>
      </trkpt>
      <trkpt lat="44.52114" lon="6.3234">
        <ele>791.598</ele>
        <time>2021-08-02T14:18:08Z</time>
      </trkpt>
      <trkpt lat="44.52117" lon="6.32339">
        <ele>793.503</ele>
        <time>2021-08-02T14:18:11Z</time>
      </trkpt>
      <trkpt lat="44.52119" lon="6.32337">
        <ele>792.713</ele>
        <time>2021-08-02T14:18:13Z</time>
      </trkpt>
      <trkpt lat="44.52121" lon="6.32335">
        <ele>793.316</ele>
        <time>2021-08-02T14:18:17Z</time>
      </trkpt>
      <trkpt lat="44.52122" lon="6.32335">
        <ele>792.872</ele>
        <time>2021-08-02T14:18:19Z</time>
      </trkpt>
      <trkpt lat="44.52125" lon="6.32336">
        <ele>795.852</ele>
        <time>2021-08-02T14:18:24Z</time>
      </trkpt>
      <trkpt lat="44.52128" lon="6.32334">
        <ele>797.954</ele>
        <time>2021-08-02T14:18:29Z</time>
      </trkpt>
      <trkpt lat="44.52128" lon="6.32335">
        <ele>798.427</ele>
        <time>2021-08-02T14:18:30Z</time>
      </trkpt>
      <trkpt lat="44.52128" lon="6.32335">
        <ele>798.353</ele>
        <time>2021-08-02T14:18:31Z</time>
      </trkpt>
      <trkpt lat="44.52129" lon="6.32335">
        <ele>798.271</ele>
        <time>2021-08-02T14:18:32Z</time>
      </trkpt>
      <trkpt lat="44.52128" lon="6.32335">
        <ele>797.994</ele>
        <time>2021-08-02T14:18:33Z</time>
      </trkpt>
      <trkpt lat="44.52129" lon="6.32336">
        <ele>797.292</ele>
        <time>2021-08-02T14:18:35Z</time>
      </trkpt>
      <trkpt lat="44.52133" lon="6.32337">
        <ele>799.919</ele>
        <time>2021-08-02T14:18:39Z</time>
      </trkpt>
      <trkpt lat="44.52138" lon="6.32331">
        <ele>802.158</ele>
        <time>2021-08-02T14:18:48Z</time>
      </trkpt>
      <trkpt lat="44.52138" lon="6.32326">
        <ele>802.573</ele>
        <time>2021-08-02T14:18:53Z</time>
      </trkpt>
      <trkpt lat="44.52138" lon="6.32324">
        <ele>802.556</ele>
        <time>2021-08-02T14:18:55Z</time>
      </trkpt>
      <trkpt lat="44.52138" lon="6.32323">
        <ele>802.844</ele>
        <time>2021-08-02T14:18:57Z</time>
      </trkpt>
      <trkpt lat="44.52138" lon="6.32323">
        <ele>802.357</ele>
        <time>2021-08-02T14:19:10Z</time>
      </trkpt>
      <trkpt lat="44.52139" lon="6.32323">
        <ele>802.393</ele>
        <time>2021-08-02T14:19:11Z</time>
      </trkpt>
      <trkpt lat="44.5214" lon="6.32322">
        <ele>802.94</ele>
        <time>2021-08-02T14:19:13Z</time>
      </trkpt>
      <trkpt lat="44.52144" lon="6.32322">
        <ele>803.275</ele>
        <time>2021-08-02T14:19:19Z</time>
      </trkpt>
      <trkpt lat="44.52146" lon="6.32323">
        <ele>802.328</ele>
        <time>2021-08-02T14:19:22Z</time>
      </trkpt>
      <trkpt lat="44.52148" lon="6.32322">
        <ele>802.512</ele>
        <time>2021-08-02T14:19:24Z</time>
      </trkpt>
      <trkpt lat="44.52153" lon="6.32323">
        <ele>804.523</ele>
        <time>2021-08-02T14:19:29Z</time>
      </trkpt>
      <trkpt lat="44.52159" lon="6.32322">
        <ele>805.328</ele>
        <time>2021-08-02T14:19:36Z</time>
      </trkpt>
      <trkpt lat="44.52162" lon="6.32322">
        <ele>805.962</ele>
        <time>2021-08-02T14:19:41Z</time>
      </trkpt>
      <trkpt lat="44.52165" lon="6.32322">
        <ele>806.521</ele>
        <time>2021-08-02T14:19:48Z</time>
      </trkpt>
      <trkpt lat="44.52165" lon="6.32322">
        <ele>806.521</ele>
        <time>2021-08-02T14:19:48Z</time>
      </trkpt>
      <trkpt lat="44.52165" lon="6.32322">
        <ele>806.765</ele>
        <time>2021-08-02T14:19:49Z</time>
      </trkpt>
      <trkpt lat="44.52165" lon="6.32322">
        <ele>806.784</ele>
        <time>2021-08-02T14:19:50Z</time>
      </trkpt>
      <trkpt lat="44.52165" lon="6.32322">
        <ele>807.245</ele>
        <time>2021-08-02T14:19:51Z</time>
      </trkpt>
      <trkpt lat="44.52165" lon="6.32322">
        <ele>807.245</ele>
        <time>2021-08-02T14:19:51Z</time>
      </trkpt>
      <trkpt lat="44.52165" lon="6.32322">
        <ele>807.555</ele>
        <time>2021-08-02T14:19:52Z</time>
      </trkpt>
      <trkpt lat="44.52165" lon="6.32322">
        <ele>808.803</ele>
        <time>2021-08-02T14:19:58Z</time>
      </trkpt>
      <trkpt lat="44.52164" lon="6.32323">
        <ele>809.174</ele>
        <time>2021-08-02T14:19:59Z</time>
      </trkpt>
      <trkpt lat="44.52166" lon="6.32326">
        <ele>810.674</ele>
        <time>2021-08-02T14:20:03Z</time>
      </trkpt>
      <trkpt lat="44.5217" lon="6.32322">
        <ele>811.205</ele>
        <time>2021-08-02T14:20:09Z</time>
      </trkpt>
      <trkpt lat="44.52175" lon="6.3232">
        <ele>812.936</ele>
        <time>2021-08-02T14:20:17Z</time>
      </trkpt>
      <trkpt lat="44.52176" lon="6.32321">
        <ele>813.216</ele>
        <time>2021-08-02T14:20:19Z</time>
      </trkpt>
      <trkpt lat="44.52176" lon="6.32321">
        <ele>813.585</ele>
        <time>2021-08-02T14:20:21Z</time>
      </trkpt>
      <trkpt lat="44.52176" lon="6.32321">
        <ele>813.634</ele>
        <time>2021-08-02T14:20:23Z</time>
      </trkpt>
      <trkpt lat="44.52177" lon="6.32317">
        <ele>813.856</ele>
        <time>2021-08-02T14:20:24Z</time>
      </trkpt>
      <trkpt lat="44.52178" lon="6.32317">
        <ele>813.228</ele>
        <time>2021-08-02T14:20:26Z</time>
      </trkpt>
      <trkpt lat="44.52178" lon="6.32317">
        <ele>813.798</ele>
        <time>2021-08-02T14:20:28Z</time>
      </trkpt>
      <trkpt lat="44.52178" lon="6.32317">
        <ele>813.776</ele>
        <time>2021-08-02T14:20:29Z</time>
      </trkpt>
      <trkpt lat="44.52179" lon="6.32317">
        <ele>813.244</ele>
        <time>2021-08-02T14:20:30Z</time>
      </trkpt>
      <trkpt lat="44.52179" lon="6.32317">
        <ele>813.244</ele>
        <time>2021-08-02T14:20:30Z</time>
      </trkpt>
      <trkpt lat="44.52179" lon="6.32318">
        <ele>813.269</ele>
        <time>2021-08-02T14:20:31Z</time>
      </trkpt>
      <trkpt lat="44.52179" lon="6.32316">
        <ele>814.232</ele>
        <time>2021-08-02T14:20:33Z</time>
      </trkpt>
      <trkpt lat="44.52179" lon="6.32309">
        <ele>812.037</ele>
        <time>2021-08-02T14:20:41Z</time>
      </trkpt>
      <trkpt lat="44.52179" lon="6.32305">
        <ele>812.723</ele>
        <time>2021-08-02T14:20:45Z</time>
      </trkpt>
      <trkpt lat="44.52178" lon="6.32301">
        <ele>813.256</ele>
        <time>2021-08-02T14:20:48Z</time>
      </trkpt>
      <trkpt lat="44.52174" lon="6.32282">
        <ele>814.568</ele>
        <time>2021-08-02T14:21:04Z</time>
      </trkpt>
      <trkpt lat="44.52171" lon="6.3228">
        <ele>815.657</ele>
        <time>2021-08-02T14:21:07Z</time>
      </trkpt>
      <trkpt lat="44.52169" lon="6.32278">
        <ele>816.336</ele>
        <time>2021-08-02T14:21:10Z</time>
      </trkpt>
      <trkpt lat="44.52164" lon="6.32276">
        <ele>815.816</ele>
        <time>2021-08-02T14:21:14Z</time>
      </trkpt>
      <trkpt lat="44.52163" lon="6.32272">
        <ele>816.098</ele>
        <time>2021-08-02T14:21:17Z</time>
      </trkpt>
      <trkpt lat="44.52159" lon="6.3226">
        <ele>816.401</ele>
        <time>2021-08-02T14:21:25Z</time>
      </trkpt>
      <trkpt lat="44.52159" lon="6.32253">
        <ele>816.317</ele>
        <time>2021-08-02T14:21:30Z</time>
      </trkpt>
      <trkpt lat="44.52156" lon="6.3225">
        <ele>816.317</ele>
        <time>2021-08-02T14:21:32Z</time>
      </trkpt>
      <trkpt lat="44.52153" lon="6.32247">
        <ele>816.311</ele>
        <time>2021-08-02T14:21:35Z</time>
      </trkpt>
      <trkpt lat="44.52147" lon="6.32238">
        <ele>816.284</ele>
        <time>2021-08-02T14:21:41Z</time>
      </trkpt>
      <trkpt lat="44.52144" lon="6.32229">
        <ele>816.864</ele>
        <time>2021-08-02T14:21:48Z</time>
      </trkpt>
      <trkpt lat="44.52143" lon="6.32228">
        <ele>816.928</ele>
        <time>2021-08-02T14:21:50Z</time>
      </trkpt>
      <trkpt lat="44.52142" lon="6.32225">
        <ele>817.4</ele>
        <time>2021-08-02T14:21:53Z</time>
      </trkpt>
      <trkpt lat="44.52142" lon="6.32225">
        <ele>817.418</ele>
        <time>2021-08-02T14:21:54Z</time>
      </trkpt>
      <trkpt lat="44.52141" lon="6.32222">
        <ele>817.359</ele>
        <time>2021-08-02T14:21:57Z</time>
      </trkpt>
      <trkpt lat="44.52141" lon="6.32219">
        <ele>817.479</ele>
        <time>2021-08-02T14:21:59Z</time>
      </trkpt>
      <trkpt lat="44.5214" lon="6.32215">
        <ele>817.221</ele>
        <time>2021-08-02T14:22:03Z</time>
      </trkpt>
      <trkpt lat="44.52136" lon="6.32216">
        <ele>816.849</ele>
        <time>2021-08-02T14:22:05Z</time>
      </trkpt>
      <trkpt lat="44.52132" lon="6.32218">
        <ele>816.594</ele>
        <time>2021-08-02T14:22:09Z</time>
      </trkpt>
      <trkpt lat="44.52127" lon="6.32218">
        <ele>816.14</ele>
        <time>2021-08-02T14:22:14Z</time>
      </trkpt>
      <trkpt lat="44.52122" lon="6.32218">
        <ele>815.143</ele>
        <time>2021-08-02T14:22:19Z</time>
      </trkpt>
      <trkpt lat="44.52119" lon="6.32215">
        <ele>814.862</ele>
        <time>2021-08-02T14:22:22Z</time>
      </trkpt>
      <trkpt lat="44.52116" lon="6.32211">
        <ele>814.116</ele>
        <time>2021-08-02T14:22:25Z</time>
      </trkpt>
      <trkpt lat="44.52115" lon="6.32206">
        <ele>813.765</ele>
        <time>2021-08-02T14:22:29Z</time>
      </trkpt>
      <trkpt lat="44.52115" lon="6.32203">
        <ele>813.557</ele>
        <time>2021-08-02T14:22:32Z</time>
      </trkpt>
      <trkpt lat="44.52115" lon="6.32194">
        <ele>813.697</ele>
        <time>2021-08-02T14:22:37Z</time>
      </trkpt>
      <trkpt lat="44.52113" lon="6.32173">
        <ele>813.462</ele>
        <time>2021-08-02T14:22:51Z</time>
      </trkpt>
      <trkpt lat="44.52113" lon="6.3217">
        <ele>813.045</ele>
        <time>2021-08-02T14:22:53Z</time>
      </trkpt>
      <trkpt lat="44.52111" lon="6.32166">
        <ele>812.844</ele>
        <time>2021-08-02T14:22:56Z</time>
      </trkpt>
      <trkpt lat="44.52109" lon="6.32162">
        <ele>812.975</ele>
        <time>2021-08-02T14:22:59Z</time>
      </trkpt>
      <trkpt lat="44.52106" lon="6.32156">
        <ele>813.183</ele>
        <time>2021-08-02T14:23:03Z</time>
      </trkpt>
      <trkpt lat="44.52103" lon="6.32149">
        <ele>812.487</ele>
        <time>2021-08-02T14:23:08Z</time>
      </trkpt>
      <trkpt lat="44.52103" lon="6.32144">
        <ele>811.686</ele>
        <time>2021-08-02T14:23:12Z</time>
      </trkpt>
      <trkpt lat="44.52103" lon="6.32142">
        <ele>811.731</ele>
        <time>2021-08-02T14:23:14Z</time>
      </trkpt>
      <trkpt lat="44.52104" lon="6.32141">
        <ele>812.039</ele>
        <time>2021-08-02T14:23:15Z</time>
      </trkpt>
      <trkpt lat="44.52104" lon="6.32135">
        <ele>811.671</ele>
        <time>2021-08-02T14:23:18Z</time>
      </trkpt>
      <trkpt lat="44.52105" lon="6.32101">
        <ele>810.883</ele>
        <time>2021-08-02T14:23:36Z</time>
      </trkpt>
      <trkpt lat="44.52106" lon="6.32097">
        <ele>810.178</ele>
        <time>2021-08-02T14:23:39Z</time>
      </trkpt>
      <trkpt lat="44.52125" lon="6.32072">
        <ele>809.213</ele>
        <time>2021-08-02T14:24:01Z</time>
      </trkpt>
      <trkpt lat="44.52127" lon="6.32069">
        <ele>808.741</ele>
        <time>2021-08-02T14:24:04Z</time>
      </trkpt>
      <trkpt lat="44.52131" lon="6.32069">
        <ele>808.947</ele>
        <time>2021-08-02T14:24:07Z</time>
      </trkpt>
      <trkpt lat="44.52132" lon="6.32068">
        <ele>808.819</ele>
        <time>2021-08-02T14:24:09Z</time>
      </trkpt>
      <trkpt lat="44.52133" lon="6.32067">
        <ele>808.916</ele>
        <time>2021-08-02T14:24:10Z</time>
      </trkpt>
      <trkpt lat="44.52137" lon="6.32065">
        <ele>809.127</ele>
        <time>2021-08-02T14:24:13Z</time>
      </trkpt>
      <trkpt lat="44.52138" lon="6.32061">
        <ele>809.288</ele>
        <time>2021-08-02T14:24:15Z</time>
      </trkpt>
      <trkpt lat="44.52139" lon="6.32056">
        <ele>809.005</ele>
        <time>2021-08-02T14:24:17Z</time>
      </trkpt>
      <trkpt lat="44.5214" lon="6.32052">
        <ele>808.807</ele>
        <time>2021-08-02T14:24:19Z</time>
      </trkpt>
      <trkpt lat="44.52143" lon="6.32045">
        <ele>808.484</ele>
        <time>2021-08-02T14:24:23Z</time>
      </trkpt>
      <trkpt lat="44.52144" lon="6.3204">
        <ele>808.068</ele>
        <time>2021-08-02T14:24:26Z</time>
      </trkpt>
      <trkpt lat="44.52149" lon="6.32032">
        <ele>807.33</ele>
        <time>2021-08-02T14:24:34Z</time>
      </trkpt>
      <trkpt lat="44.52149" lon="6.32032">
        <ele>807.33</ele>
        <time>2021-08-02T14:24:34Z</time>
      </trkpt>
      <trkpt lat="44.5215" lon="6.32031">
        <ele>807.353</ele>
        <time>2021-08-02T14:24:35Z</time>
      </trkpt>
      <trkpt lat="44.52151" lon="6.32029">
        <ele>806.898</ele>
        <time>2021-08-02T14:24:38Z</time>
      </trkpt>
      <trkpt lat="44.52153" lon="6.32024">
        <ele>806.407</ele>
        <time>2021-08-02T14:24:41Z</time>
      </trkpt>
      <trkpt lat="44.52155" lon="6.32017">
        <ele>806.609</ele>
        <time>2021-08-02T14:24:44Z</time>
      </trkpt>
      <trkpt lat="44.52153" lon="6.32014">
        <ele>806.58</ele>
        <time>2021-08-02T14:24:47Z</time>
      </trkpt>
      <trkpt lat="44.52152" lon="6.32013">
        <ele>806.701</ele>
        <time>2021-08-02T14:24:49Z</time>
      </trkpt>
      <trkpt lat="44.52144" lon="6.3201">
        <ele>806.864</ele>
        <time>2021-08-02T14:24:54Z</time>
      </trkpt>
      <trkpt lat="44.52139" lon="6.32009">
        <ele>806.447</ele>
        <time>2021-08-02T14:24:58Z</time>
      </trkpt>
      <trkpt lat="44.52138" lon="6.32006">
        <ele>806.474</ele>
        <time>2021-08-02T14:25:01Z</time>
      </trkpt>
      <trkpt lat="44.52134" lon="6.32002">
        <ele>806.331</ele>
        <time>2021-08-02T14:25:06Z</time>
      </trkpt>
      <trkpt lat="44.52131" lon="6.32">
        <ele>807.084</ele>
        <time>2021-08-02T14:25:10Z</time>
      </trkpt>
      <trkpt lat="44.5213" lon="6.32">
        <ele>807.152</ele>
        <time>2021-08-02T14:25:12Z</time>
      </trkpt>
      <trkpt lat="44.52126" lon="6.31998">
        <ele>807.084</ele>
        <time>2021-08-02T14:25:15Z</time>
      </trkpt>
      <trkpt lat="44.52124" lon="6.31998">
        <ele>807.005</ele>
        <time>2021-08-02T14:25:18Z</time>
      </trkpt>
      <trkpt lat="44.52124" lon="6.31998">
        <ele>807.057</ele>
        <time>2021-08-02T14:25:19Z</time>
      </trkpt>
      <trkpt lat="44.52121" lon="6.31995">
        <ele>806.797</ele>
        <time>2021-08-02T14:25:22Z</time>
      </trkpt>
      <trkpt lat="44.52116" lon="6.31988">
        <ele>806.228</ele>
        <time>2021-08-02T14:25:28Z</time>
      </trkpt>
      <trkpt lat="44.52112" lon="6.31989">
        <ele>806.334</ele>
        <time>2021-08-02T14:25:31Z</time>
      </trkpt>
      <trkpt lat="44.52107" lon="6.31987">
        <ele>806.28</ele>
        <time>2021-08-02T14:25:36Z</time>
      </trkpt>
      <trkpt lat="44.52106" lon="6.31986">
        <ele>806.632</ele>
        <time>2021-08-02T14:25:37Z</time>
      </trkpt>
      <trkpt lat="44.52103" lon="6.31984">
        <ele>808.079</ele>
        <time>2021-08-02T14:25:42Z</time>
      </trkpt>
      <trkpt lat="44.52101" lon="6.31983">
        <ele>808.729</ele>
        <time>2021-08-02T14:25:45Z</time>
      </trkpt>
      <trkpt lat="44.52097" lon="6.31982">
        <ele>808.692</ele>
        <time>2021-08-02T14:25:48Z</time>
      </trkpt>
      <trkpt lat="44.52066" lon="6.31962">
        <ele>810.335</ele>
        <time>2021-08-02T14:26:17Z</time>
      </trkpt>
      <trkpt lat="44.52064" lon="6.31958">
        <ele>807.854</ele>
        <time>2021-08-02T14:26:20Z</time>
      </trkpt>
      <trkpt lat="44.52064" lon="6.31958">
        <ele>806.961</ele>
        <time>2021-08-02T14:26:21Z</time>
      </trkpt>
      <trkpt lat="44.52064" lon="6.31958">
        <ele>806.961</ele>
        <time>2021-08-02T14:26:21Z</time>
      </trkpt>
      <trkpt lat="44.52064" lon="6.31958">
        <ele>806.302</ele>
        <time>2021-08-02T14:26:22Z</time>
      </trkpt>
      <trkpt lat="44.52064" lon="6.31958">
        <ele>805.895</ele>
        <time>2021-08-02T14:26:23Z</time>
      </trkpt>
      <trkpt lat="44.52064" lon="6.31958">
        <ele>805.541</ele>
        <time>2021-08-02T14:26:24Z</time>
      </trkpt>
      <trkpt lat="44.52064" lon="6.31958">
        <ele>804.528</ele>
        <time>2021-08-02T14:26:28Z</time>
      </trkpt>
      <trkpt lat="44.52065" lon="6.31959">
        <ele>804.541</ele>
        <time>2021-08-02T14:26:29Z</time>
      </trkpt>
      <trkpt lat="44.52066" lon="6.31959">
        <ele>804.886</ele>
        <time>2021-08-02T14:26:30Z</time>
      </trkpt>
      <trkpt lat="44.52067" lon="6.31958">
        <ele>806.804</ele>
        <time>2021-08-02T14:26:31Z</time>
      </trkpt>
      <trkpt lat="44.52067" lon="6.31958">
        <ele>806.12</ele>
        <time>2021-08-02T14:26:32Z</time>
      </trkpt>
      <trkpt lat="44.52068" lon="6.31954">
        <ele>806.349</ele>
        <time>2021-08-02T14:26:34Z</time>
      </trkpt>
      <trkpt lat="44.5207" lon="6.31949">
        <ele>806.041</ele>
        <time>2021-08-02T14:26:37Z</time>
      </trkpt>
      <trkpt lat="44.52072" lon="6.31946">
        <ele>807.162</ele>
        <time>2021-08-02T14:26:40Z</time>
      </trkpt>
      <trkpt lat="44.52078" lon="6.31942">
        <ele>807.794</ele>
        <time>2021-08-02T14:26:45Z</time>
      </trkpt>
      <trkpt lat="44.52081" lon="6.31941">
        <ele>808.162</ele>
        <time>2021-08-02T14:26:48Z</time>
      </trkpt>
      <trkpt lat="44.52087" lon="6.31942">
        <ele>807.818</ele>
        <time>2021-08-02T14:26:54Z</time>
      </trkpt>
      <trkpt lat="44.52089" lon="6.3194">
        <ele>807.579</ele>
        <time>2021-08-02T14:26:56Z</time>
      </trkpt>
      <trkpt lat="44.52091" lon="6.31937">
        <ele>808.12</ele>
        <time>2021-08-02T14:26:59Z</time>
      </trkpt>
      <trkpt lat="44.52092" lon="6.31936">
        <ele>807.76</ele>
        <time>2021-08-02T14:27:01Z</time>
      </trkpt>
      <trkpt lat="44.52093" lon="6.31934">
        <ele>807.971</ele>
        <time>2021-08-02T14:27:03Z</time>
      </trkpt>
      <trkpt lat="44.52094" lon="6.31932">
        <ele>807.76</ele>
        <time>2021-08-02T14:27:05Z</time>
      </trkpt>
      <trkpt lat="44.52097" lon="6.31928">
        <ele>807.373</ele>
        <time>2021-08-02T14:27:09Z</time>
      </trkpt>
      <trkpt lat="44.52097" lon="6.31927">
        <ele>807.238</ele>
        <time>2021-08-02T14:27:10Z</time>
      </trkpt>
      <trkpt lat="44.52097" lon="6.31926">
        <ele>807.249</ele>
        <time>2021-08-02T14:27:11Z</time>
      </trkpt>
      <trkpt lat="44.52098" lon="6.31925">
        <ele>807.042</ele>
        <time>2021-08-02T14:27:12Z</time>
      </trkpt>
      <trkpt lat="44.52098" lon="6.31924">
        <ele>806.853</ele>
        <time>2021-08-02T14:27:13Z</time>
      </trkpt>
      <trkpt lat="44.52096" lon="6.31918">
        <ele>805.974</ele>
        <time>2021-08-02T14:27:19Z</time>
      </trkpt>
      <trkpt lat="44.52095" lon="6.31917">
        <ele>806.13</ele>
        <time>2021-08-02T14:27:20Z</time>
      </trkpt>
      <trkpt lat="44.52094" lon="6.31917">
        <ele>805.751</ele>
        <time>2021-08-02T14:27:21Z</time>
      </trkpt>
      <trkpt lat="44.52094" lon="6.31916">
        <ele>805.602</ele>
        <time>2021-08-02T14:27:22Z</time>
      </trkpt>
      <trkpt lat="44.52089" lon="6.31913">
        <ele>805.893</ele>
        <time>2021-08-02T14:27:27Z</time>
      </trkpt>
      <trkpt lat="44.52084" lon="6.31911">
        <ele>804.904</ele>
        <time>2021-08-02T14:27:32Z</time>
      </trkpt>
      <trkpt lat="44.52082" lon="6.31911">
        <ele>804.739</ele>
        <time>2021-08-02T14:27:34Z</time>
      </trkpt>
      <trkpt lat="44.52077" lon="6.31907">
        <ele>805.303</ele>
        <time>2021-08-02T14:27:40Z</time>
      </trkpt>
      <trkpt lat="44.52075" lon="6.31905">
        <ele>805.336</ele>
        <time>2021-08-02T14:27:42Z</time>
      </trkpt>
      <trkpt lat="44.52071" lon="6.31904">
        <ele>802.347</ele>
        <time>2021-08-02T14:27:45Z</time>
      </trkpt>
      <trkpt lat="44.52062" lon="6.31907">
        <ele>801.668</ele>
        <time>2021-08-02T14:27:52Z</time>
      </trkpt>
      <trkpt lat="44.52061" lon="6.31907">
        <ele>801.545</ele>
        <time>2021-08-02T14:27:53Z</time>
      </trkpt>
      <trkpt lat="44.52063" lon="6.31906">
        <ele>800.647</ele>
        <time>2021-08-02T14:27:56Z</time>
      </trkpt>
      <trkpt lat="44.52066" lon="6.31904">
        <ele>799.929</ele>
        <time>2021-08-02T14:28:00Z</time>
      </trkpt>
      <trkpt lat="44.52066" lon="6.31903">
        <ele>799.375</ele>
        <time>2021-08-02T14:28:01Z</time>
      </trkpt>
      <trkpt lat="44.52068" lon="6.319">
        <ele>798.26</ele>
        <time>2021-08-02T14:28:05Z</time>
      </trkpt>
      <trkpt lat="44.52074" lon="6.31898">
        <ele>798.193</ele>
        <time>2021-08-02T14:28:10Z</time>
      </trkpt>
      <trkpt lat="44.52075" lon="6.31897">
        <ele>799.083</ele>
        <time>2021-08-02T14:28:13Z</time>
      </trkpt>
      <trkpt lat="44.52075" lon="6.31896">
        <ele>799.235</ele>
        <time>2021-08-02T14:28:14Z</time>
      </trkpt>
      <trkpt lat="44.52075" lon="6.31895">
        <ele>797.461</ele>
        <time>2021-08-02T14:28:15Z</time>
      </trkpt>
      <trkpt lat="44.52076" lon="6.31893">
        <ele>797.071</ele>
        <time>2021-08-02T14:28:17Z</time>
      </trkpt>
      <trkpt lat="44.52075" lon="6.31891">
        <ele>797.35</ele>
        <time>2021-08-02T14:28:18Z</time>
      </trkpt>
      <trkpt lat="44.52074" lon="6.31883">
        <ele>796.173</ele>
        <time>2021-08-02T14:28:22Z</time>
      </trkpt>
      <trkpt lat="44.52078" lon="6.31882">
        <ele>795.611</ele>
        <time>2021-08-02T14:28:25Z</time>
      </trkpt>
      <trkpt lat="44.52083" lon="6.31879">
        <ele>794.863</ele>
        <time>2021-08-02T14:28:32Z</time>
      </trkpt>
      <trkpt lat="44.52084" lon="6.31878">
        <ele>795.177</ele>
        <time>2021-08-02T14:28:33Z</time>
      </trkpt>
      <trkpt lat="44.52084" lon="6.31878">
        <ele>795.324</ele>
        <time>2021-08-02T14:28:34Z</time>
      </trkpt>
      <trkpt lat="44.52084" lon="6.31878">
        <ele>795.324</ele>
        <time>2021-08-02T14:28:34Z</time>
      </trkpt>
      <trkpt lat="44.52084" lon="6.31877">
        <ele>795.392</ele>
        <time>2021-08-02T14:28:35Z</time>
      </trkpt>
      <trkpt lat="44.52084" lon="6.31877">
        <ele>795.404</ele>
        <time>2021-08-02T14:28:36Z</time>
      </trkpt>
      <trkpt lat="44.52084" lon="6.31877">
        <ele>795.404</ele>
        <time>2021-08-02T14:28:36Z</time>
      </trkpt>
      <trkpt lat="44.52085" lon="6.31875">
        <ele>795.296</ele>
        <time>2021-08-02T14:28:37Z</time>
      </trkpt>
      <trkpt lat="44.52085" lon="6.31876">
        <ele>794.681</ele>
        <time>2021-08-02T14:28:39Z</time>
      </trkpt>
      <trkpt lat="44.52086" lon="6.31875">
        <ele>794.791</ele>
        <time>2021-08-02T14:28:41Z</time>
      </trkpt>
      <trkpt lat="44.52088" lon="6.31872">
        <ele>795.19</ele>
        <time>2021-08-02T14:28:44Z</time>
      </trkpt>
      <trkpt lat="44.5209" lon="6.31869">
        <ele>794.676</ele>
        <time>2021-08-02T14:28:47Z</time>
      </trkpt>
      <trkpt lat="44.52093" lon="6.31865">
        <ele>794.487</ele>
        <time>2021-08-02T14:28:51Z</time>
      </trkpt>
      <trkpt lat="44.52095" lon="6.31863">
        <ele>793.575</ele>
        <time>2021-08-02T14:28:53Z</time>
      </trkpt>
      <trkpt lat="44.52095" lon="6.31862">
        <ele>793.18</ele>
        <time>2021-08-02T14:28:54Z</time>
      </trkpt>
      <trkpt lat="44.52098" lon="6.3186">
        <ele>793.483</ele>
        <time>2021-08-02T14:28:58Z</time>
      </trkpt>
      <trkpt lat="44.52099" lon="6.31858">
        <ele>793.399</ele>
        <time>2021-08-02T14:29:01Z</time>
      </trkpt>
      <trkpt lat="44.52099" lon="6.31858">
        <ele>793.399</ele>
        <time>2021-08-02T14:29:01Z</time>
      </trkpt>
      <trkpt lat="44.521" lon="6.31858">
        <ele>793.319</ele>
        <time>2021-08-02T14:29:02Z</time>
      </trkpt>
      <trkpt lat="44.52101" lon="6.31857">
        <ele>792.14</ele>
        <time>2021-08-02T14:29:08Z</time>
      </trkpt>
      <trkpt lat="44.52104" lon="6.3185">
        <ele>790.928</ele>
        <time>2021-08-02T14:29:16Z</time>
      </trkpt>
      <trkpt lat="44.52104" lon="6.31849">
        <ele>790.896</ele>
        <time>2021-08-02T14:29:19Z</time>
      </trkpt>
      <trkpt lat="44.52104" lon="6.31849">
        <ele>790.896</ele>
        <time>2021-08-02T14:29:19Z</time>
      </trkpt>
      <trkpt lat="44.52104" lon="6.31849">
        <ele>791.271</ele>
        <time>2021-08-02T14:29:20Z</time>
      </trkpt>
      <trkpt lat="44.52104" lon="6.31848">
        <ele>790.742</ele>
        <time>2021-08-02T14:29:22Z</time>
      </trkpt>
      <trkpt lat="44.52103" lon="6.31844">
        <ele>790.568</ele>
        <time>2021-08-02T14:29:25Z</time>
      </trkpt>
      <trkpt lat="44.52103" lon="6.31839">
        <ele>790.303</ele>
        <time>2021-08-02T14:29:30Z</time>
      </trkpt>
      <trkpt lat="44.52105" lon="6.31839">
        <ele>789.776</ele>
        <time>2021-08-02T14:29:33Z</time>
      </trkpt>
      <trkpt lat="44.52107" lon="6.31837">
        <ele>789.469</ele>
        <time>2021-08-02T14:29:36Z</time>
      </trkpt>
      <trkpt lat="44.52108" lon="6.31835">
        <ele>789.919</ele>
        <time>2021-08-02T14:29:40Z</time>
      </trkpt>
      <trkpt lat="44.52109" lon="6.31835">
        <ele>789.929</ele>
        <time>2021-08-02T14:29:42Z</time>
      </trkpt>
      <trkpt lat="44.5211" lon="6.31832">
        <ele>788.66</ele>
        <time>2021-08-02T14:29:49Z</time>
      </trkpt>
      <trkpt lat="44.5211" lon="6.31831">
        <ele>788.59</ele>
        <time>2021-08-02T14:29:50Z</time>
      </trkpt>
      <trkpt lat="44.52113" lon="6.31828">
        <ele>788.601</ele>
        <time>2021-08-02T14:29:53Z</time>
      </trkpt>
      <trkpt lat="44.52114" lon="6.31828">
        <ele>788.179</ele>
        <time>2021-08-02T14:29:55Z</time>
      </trkpt>
      <trkpt lat="44.52114" lon="6.31826">
        <ele>787.938</ele>
        <time>2021-08-02T14:29:57Z</time>
      </trkpt>
      <trkpt lat="44.52112" lon="6.31823">
        <ele>788.823</ele>
        <time>2021-08-02T14:30:04Z</time>
      </trkpt>
      <trkpt lat="44.52112" lon="6.31819">
        <ele>789.424</ele>
        <time>2021-08-02T14:30:09Z</time>
      </trkpt>
      <trkpt lat="44.52111" lon="6.31815">
        <ele>789.761</ele>
        <time>2021-08-02T14:30:14Z</time>
      </trkpt>
      <trkpt lat="44.52109" lon="6.31814">
        <ele>790.309</ele>
        <time>2021-08-02T14:30:17Z</time>
      </trkpt>
      <trkpt lat="44.5211" lon="6.31813">
        <ele>790.169</ele>
        <time>2021-08-02T14:30:20Z</time>
      </trkpt>
      <trkpt lat="44.52112" lon="6.31811">
        <ele>790.167</ele>
        <time>2021-08-02T14:30:24Z</time>
      </trkpt>
      <trkpt lat="44.52113" lon="6.31807">
        <ele>790.372</ele>
        <time>2021-08-02T14:30:28Z</time>
      </trkpt>
      <trkpt lat="44.52113" lon="6.31806">
        <ele>790.66</ele>
        <time>2021-08-02T14:30:30Z</time>
      </trkpt>
      <trkpt lat="44.52113" lon="6.31806">
        <ele>790.66</ele>
        <time>2021-08-02T14:30:30Z</time>
      </trkpt>
      <trkpt lat="44.52114" lon="6.31805">
        <ele>790.641</ele>
        <time>2021-08-02T14:30:31Z</time>
      </trkpt>
      <trkpt lat="44.52115" lon="6.31803">
        <ele>790.115</ele>
        <time>2021-08-02T14:30:33Z</time>
      </trkpt>
      <trkpt lat="44.52117" lon="6.31799">
        <ele>790.699</ele>
        <time>2021-08-02T14:30:36Z</time>
      </trkpt>
      <trkpt lat="44.52117" lon="6.31798">
        <ele>790.826</ele>
        <time>2021-08-02T14:30:37Z</time>
      </trkpt>
      <trkpt lat="44.52117" lon="6.31798">
        <ele>790.826</ele>
        <time>2021-08-02T14:30:37Z</time>
      </trkpt>
      <trkpt lat="44.52117" lon="6.31797">
        <ele>791.032</ele>
        <time>2021-08-02T14:30:38Z</time>
      </trkpt>
      <trkpt lat="44.52116" lon="6.31792">
        <ele>791.058</ele>
        <time>2021-08-02T14:30:42Z</time>
      </trkpt>
      <trkpt lat="44.52116" lon="6.31788">
        <ele>791.321</ele>
        <time>2021-08-02T14:30:45Z</time>
      </trkpt>
      <trkpt lat="44.52118" lon="6.31786">
        <ele>791.303</ele>
        <time>2021-08-02T14:30:47Z</time>
      </trkpt>
      <trkpt lat="44.5212" lon="6.31783">
        <ele>791.664</ele>
        <time>2021-08-02T14:30:50Z</time>
      </trkpt>
      <trkpt lat="44.52121" lon="6.31782">
        <ele>792.371</ele>
        <time>2021-08-02T14:30:51Z</time>
      </trkpt>
      <trkpt lat="44.52121" lon="6.31781">
        <ele>792.253</ele>
        <time>2021-08-02T14:30:53Z</time>
      </trkpt>
      <trkpt lat="44.52121" lon="6.3178">
        <ele>792.396</ele>
        <time>2021-08-02T14:30:56Z</time>
      </trkpt>
      <trkpt lat="44.52119" lon="6.3178">
        <ele>792.67</ele>
        <time>2021-08-02T14:31:00Z</time>
      </trkpt>
      <trkpt lat="44.52118" lon="6.31781">
        <ele>792.778</ele>
        <time>2021-08-02T14:31:03Z</time>
      </trkpt>
      <trkpt lat="44.52117" lon="6.31779">
        <ele>792.732</ele>
        <time>2021-08-02T14:31:08Z</time>
      </trkpt>
      <trkpt lat="44.52115" lon="6.31773">
        <ele>792.23</ele>
        <time>2021-08-02T14:31:13Z</time>
      </trkpt>
      <trkpt lat="44.52113" lon="6.31771">
        <ele>791.886</ele>
        <time>2021-08-02T14:31:17Z</time>
      </trkpt>
      <trkpt lat="44.52113" lon="6.3177">
        <ele>791.659</ele>
        <time>2021-08-02T14:31:18Z</time>
      </trkpt>
      <trkpt lat="44.52112" lon="6.31766">
        <ele>791.853</ele>
        <time>2021-08-02T14:31:22Z</time>
      </trkpt>
      <trkpt lat="44.52107" lon="6.31758">
        <ele>793.487</ele>
        <time>2021-08-02T14:31:29Z</time>
      </trkpt>
      <trkpt lat="44.52105" lon="6.31754">
        <ele>793.894</ele>
        <time>2021-08-02T14:31:34Z</time>
      </trkpt>
      <trkpt lat="44.52099" lon="6.31742">
        <ele>794.834</ele>
        <time>2021-08-02T14:31:40Z</time>
      </trkpt>
      <trkpt lat="44.52097" lon="6.31741">
        <ele>795.971</ele>
        <time>2021-08-02T14:31:43Z</time>
      </trkpt>
      <trkpt lat="44.52095" lon="6.31739">
        <ele>796.47</ele>
        <time>2021-08-02T14:31:48Z</time>
      </trkpt>
      <trkpt lat="44.52095" lon="6.31738">
        <ele>796.624</ele>
        <time>2021-08-02T14:31:49Z</time>
      </trkpt>
      <trkpt lat="44.52095" lon="6.31736">
        <ele>796.987</ele>
        <time>2021-08-02T14:31:53Z</time>
      </trkpt>
      <trkpt lat="44.52094" lon="6.31735">
        <ele>797.898</ele>
        <time>2021-08-02T14:31:55Z</time>
      </trkpt>
      <trkpt lat="44.52094" lon="6.31735">
        <ele>797.898</ele>
        <time>2021-08-02T14:31:55Z</time>
      </trkpt>
      <trkpt lat="44.52093" lon="6.31734">
        <ele>798.132</ele>
        <time>2021-08-02T14:31:56Z</time>
      </trkpt>
      <trkpt lat="44.52094" lon="6.31733">
        <ele>798.41</ele>
        <time>2021-08-02T14:31:57Z</time>
      </trkpt>
      <trkpt lat="44.52093" lon="6.31732">
        <ele>798.751</ele>
        <time>2021-08-02T14:31:59Z</time>
      </trkpt>
      <trkpt lat="44.52093" lon="6.31732">
        <ele>798.871</ele>
        <time>2021-08-02T14:32:00Z</time>
      </trkpt>
      <trkpt lat="44.52093" lon="6.31732">
        <ele>798.04</ele>
        <time>2021-08-02T14:32:08Z</time>
      </trkpt>
      <trkpt lat="44.52091" lon="6.31735">
        <ele>797.932</ele>
        <time>2021-08-02T14:32:09Z</time>
      </trkpt>
      <trkpt lat="44.52091" lon="6.31736">
        <ele>798.022</ele>
        <time>2021-08-02T14:32:11Z</time>
      </trkpt>
      <trkpt lat="44.52091" lon="6.31736">
        <ele>798.117</ele>
        <time>2021-08-02T14:32:12Z</time>
      </trkpt>
      <trkpt lat="44.52091" lon="6.31737">
        <ele>798.073</ele>
        <time>2021-08-02T14:32:13Z</time>
      </trkpt>
      <trkpt lat="44.52091" lon="6.31738">
        <ele>797.866</ele>
        <time>2021-08-02T14:32:14Z</time>
      </trkpt>
      <trkpt lat="44.5209" lon="6.31739">
        <ele>797.083</ele>
        <time>2021-08-02T14:32:15Z</time>
      </trkpt>
      <trkpt lat="44.5209" lon="6.3174">
        <ele>796.398</ele>
        <time>2021-08-02T14:32:16Z</time>
      </trkpt>
      <trkpt lat="44.52089" lon="6.31743">
        <ele>795.33</ele>
        <time>2021-08-02T14:32:20Z</time>
      </trkpt>
      <trkpt lat="44.52086" lon="6.31745">
        <ele>795.345</ele>
        <time>2021-08-02T14:32:23Z</time>
      </trkpt>
      <trkpt lat="44.52084" lon="6.31746">
        <ele>796.807</ele>
        <time>2021-08-02T14:32:26Z</time>
      </trkpt>
      <trkpt lat="44.52082" lon="6.31748">
        <ele>797.17</ele>
        <time>2021-08-02T14:32:29Z</time>
      </trkpt>
      <trkpt lat="44.52077" lon="6.31752">
        <ele>797.335</ele>
        <time>2021-08-02T14:32:35Z</time>
      </trkpt>
      <trkpt lat="44.52076" lon="6.31752">
        <ele>797.382</ele>
        <time>2021-08-02T14:32:36Z</time>
      </trkpt>
      <trkpt lat="44.52073" lon="6.31751">
        <ele>798.386</ele>
        <time>2021-08-02T14:32:39Z</time>
      </trkpt>
      <trkpt lat="44.5207" lon="6.3175">
        <ele>798.891</ele>
        <time>2021-08-02T14:32:41Z</time>
      </trkpt>
      <trkpt lat="44.5207" lon="6.3175">
        <ele>799.009</ele>
        <time>2021-08-02T14:32:42Z</time>
      </trkpt>
      <trkpt lat="44.52069" lon="6.31751">
        <ele>799.657</ele>
        <time>2021-08-02T14:32:45Z</time>
      </trkpt>
      <trkpt lat="44.52068" lon="6.31752">
        <ele>799.735</ele>
        <time>2021-08-02T14:32:46Z</time>
      </trkpt>
      <trkpt lat="44.52065" lon="6.31754">
        <ele>799.634</ele>
        <time>2021-08-02T14:32:49Z</time>
      </trkpt>
      <trkpt lat="44.52064" lon="6.31755">
        <ele>799.41</ele>
        <time>2021-08-02T14:32:51Z</time>
      </trkpt>
      <trkpt lat="44.52063" lon="6.31755">
        <ele>799.94</ele>
        <time>2021-08-02T14:32:52Z</time>
      </trkpt>
      <trkpt lat="44.52051" lon="6.31763">
        <ele>802.794</ele>
        <time>2021-08-02T14:33:06Z</time>
      </trkpt>
      <trkpt lat="44.5205" lon="6.31763">
        <ele>803.202</ele>
        <time>2021-08-02T14:33:07Z</time>
      </trkpt>
      <trkpt lat="44.52049" lon="6.31764">
        <ele>804.231</ele>
        <time>2021-08-02T14:33:10Z</time>
      </trkpt>
      <trkpt lat="44.52049" lon="6.31763">
        <ele>803.346</ele>
        <time>2021-08-02T14:33:12Z</time>
      </trkpt>
      <trkpt lat="44.52049" lon="6.31763">
        <ele>803.346</ele>
        <time>2021-08-02T14:33:12Z</time>
      </trkpt>
      <trkpt lat="44.52049" lon="6.31763">
        <ele>803.878</ele>
        <time>2021-08-02T14:33:13Z</time>
      </trkpt>
      <trkpt lat="44.5205" lon="6.31762">
        <ele>804.346</ele>
        <time>2021-08-02T14:33:15Z</time>
      </trkpt>
      <trkpt lat="44.52049" lon="6.31763">
        <ele>805.375</ele>
        <time>2021-08-02T14:33:20Z</time>
      </trkpt>
      <trkpt lat="44.52049" lon="6.31763">
        <ele>805.055</ele>
        <time>2021-08-02T14:33:21Z</time>
      </trkpt>
      <trkpt lat="44.52049" lon="6.31763">
        <ele>805.12</ele>
        <time>2021-08-02T14:33:22Z</time>
      </trkpt>
      <trkpt lat="44.52049" lon="6.31763">
        <ele>805.257</ele>
        <time>2021-08-02T14:33:46Z</time>
      </trkpt>
      <trkpt lat="44.52047" lon="6.31764">
        <ele>805.008</ele>
        <time>2021-08-02T14:33:47Z</time>
      </trkpt>
      <trkpt lat="44.52047" lon="6.31764">
        <ele>805.008</ele>
        <time>2021-08-02T14:33:47Z</time>
      </trkpt>
      <trkpt lat="44.52047" lon="6.31764">
        <ele>805.017</ele>
        <time>2021-08-02T14:33:48Z</time>
      </trkpt>
      <trkpt lat="44.52047" lon="6.31764">
        <ele>805.009</ele>
        <time>2021-08-02T14:33:51Z</time>
      </trkpt>
      <trkpt lat="44.52047" lon="6.31765">
        <ele>805.163</ele>
        <time>2021-08-02T14:33:52Z</time>
      </trkpt>
      <trkpt lat="44.52048" lon="6.31764">
        <ele>804.345</ele>
        <time>2021-08-02T14:33:55Z</time>
      </trkpt>
      <trkpt lat="44.52051" lon="6.31755">
        <ele>807.024</ele>
        <time>2021-08-02T14:34:02Z</time>
      </trkpt>
      <trkpt lat="44.52051" lon="6.3175">
        <ele>806.88</ele>
        <time>2021-08-02T14:34:06Z</time>
      </trkpt>
      <trkpt lat="44.52051" lon="6.31748">
        <ele>807.856</ele>
        <time>2021-08-02T14:34:07Z</time>
      </trkpt>
      <trkpt lat="44.52051" lon="6.3174">
        <ele>809.654</ele>
        <time>2021-08-02T14:34:12Z</time>
      </trkpt>
      <trkpt lat="44.5205" lon="6.31735">
        <ele>809.843</ele>
        <time>2021-08-02T14:34:15Z</time>
      </trkpt>
      <trkpt lat="44.52051" lon="6.31724">
        <ele>811.376</ele>
        <time>2021-08-02T14:34:24Z</time>
      </trkpt>
      <trkpt lat="44.52059" lon="6.31711">
        <ele>812.843</ele>
        <time>2021-08-02T14:34:36Z</time>
      </trkpt>
      <trkpt lat="44.5206" lon="6.31708">
        <ele>813.198</ele>
        <time>2021-08-02T14:34:39Z</time>
      </trkpt>
      <trkpt lat="44.5206" lon="6.31707">
        <ele>813.462</ele>
        <time>2021-08-02T14:34:40Z</time>
      </trkpt>
      <trkpt lat="44.52057" lon="6.31705">
        <ele>814.168</ele>
        <time>2021-08-02T14:34:44Z</time>
      </trkpt>
      <trkpt lat="44.52045" lon="6.31699">
        <ele>816.225</ele>
        <time>2021-08-02T14:35:01Z</time>
      </trkpt>
      <trkpt lat="44.52035" lon="6.31696">
        <ele>818.303</ele>
        <time>2021-08-02T14:35:10Z</time>
      </trkpt>
      <trkpt lat="44.52035" lon="6.31696">
        <ele>818.492</ele>
        <time>2021-08-02T14:35:11Z</time>
      </trkpt>
      <trkpt lat="44.52035" lon="6.31696">
        <ele>818.627</ele>
        <time>2021-08-02T14:35:12Z</time>
      </trkpt>
      <trkpt lat="44.52035" lon="6.31696">
        <ele>818.72</ele>
        <time>2021-08-02T14:35:18Z</time>
      </trkpt>
      <trkpt lat="44.52034" lon="6.31696">
        <ele>818.933</ele>
        <time>2021-08-02T14:35:19Z</time>
      </trkpt>
      <trkpt lat="44.52031" lon="6.31693">
        <ele>820.23</ele>
        <time>2021-08-02T14:35:24Z</time>
      </trkpt>
      <trkpt lat="44.52031" lon="6.31693">
        <ele>820.23</ele>
        <time>2021-08-02T14:35:24Z</time>
      </trkpt>
      <trkpt lat="44.52031" lon="6.31692">
        <ele>820.332</ele>
        <time>2021-08-02T14:35:25Z</time>
      </trkpt>
      <trkpt lat="44.52031" lon="6.31692">
        <ele>820.318</ele>
        <time>2021-08-02T14:35:26Z</time>
      </trkpt>
      <trkpt lat="44.52031" lon="6.31691">
        <ele>820.54</ele>
        <time>2021-08-02T14:35:27Z</time>
      </trkpt>
      <trkpt lat="44.52031" lon="6.3169">
        <ele>820.771</ele>
        <time>2021-08-02T14:35:28Z</time>
      </trkpt>
      <trkpt lat="44.52031" lon="6.31688">
        <ele>820.932</ele>
        <time>2021-08-02T14:35:29Z</time>
      </trkpt>
      <trkpt lat="44.52024" lon="6.31693">
        <ele>821.048</ele>
        <time>2021-08-02T14:35:40Z</time>
      </trkpt>
      <trkpt lat="44.52024" lon="6.31697">
        <ele>821.075</ele>
        <time>2021-08-02T14:35:43Z</time>
      </trkpt>
      <trkpt lat="44.52023" lon="6.31699">
        <ele>821.085</ele>
        <time>2021-08-02T14:35:44Z</time>
      </trkpt>
      <trkpt lat="44.52022" lon="6.317">
        <ele>821.002</ele>
        <time>2021-08-02T14:35:45Z</time>
      </trkpt>
      <trkpt lat="44.52016" lon="6.31706">
        <ele>821.109</ele>
        <time>2021-08-02T14:35:53Z</time>
      </trkpt>
      <trkpt lat="44.52015" lon="6.31706">
        <ele>820.762</ele>
        <time>2021-08-02T14:35:54Z</time>
      </trkpt>
      <trkpt lat="44.52007" lon="6.31704">
        <ele>821.267</ele>
        <time>2021-08-02T14:36:04Z</time>
      </trkpt>
      <trkpt lat="44.52003" lon="6.31707">
        <ele>821.263</ele>
        <time>2021-08-02T14:36:07Z</time>
      </trkpt>
      <trkpt lat="44.51995" lon="6.31709">
        <ele>821.465</ele>
        <time>2021-08-02T14:36:13Z</time>
      </trkpt>
      <trkpt lat="44.51992" lon="6.31712">
        <ele>821.429</ele>
        <time>2021-08-02T14:36:16Z</time>
      </trkpt>
      <trkpt lat="44.51989" lon="6.31715">
        <ele>821.342</ele>
        <time>2021-08-02T14:36:19Z</time>
      </trkpt>
      <trkpt lat="44.51987" lon="6.31719">
        <ele>821.414</ele>
        <time>2021-08-02T14:36:21Z</time>
      </trkpt>
      <trkpt lat="44.51987" lon="6.31719">
        <ele>821.504</ele>
        <time>2021-08-02T14:36:22Z</time>
      </trkpt>
      <trkpt lat="44.51987" lon="6.31719">
        <ele>821.641</ele>
        <time>2021-08-02T14:36:23Z</time>
      </trkpt>
      <trkpt lat="44.51987" lon="6.31722">
        <ele>821.667</ele>
        <time>2021-08-02T14:36:24Z</time>
      </trkpt>
      <trkpt lat="44.51987" lon="6.31722">
        <ele>821.667</ele>
        <time>2021-08-02T14:36:24Z</time>
      </trkpt>
      <trkpt lat="44.51987" lon="6.31722">
        <ele>821.538</ele>
        <time>2021-08-02T14:36:25Z</time>
      </trkpt>
      <trkpt lat="44.51987" lon="6.31722">
        <ele>821.538</ele>
        <time>2021-08-02T14:36:25Z</time>
      </trkpt>
      <trkpt lat="44.51986" lon="6.31721">
        <ele>821.639</ele>
        <time>2021-08-02T14:36:26Z</time>
      </trkpt>
      <trkpt lat="44.51986" lon="6.31721">
        <ele>821.639</ele>
        <time>2021-08-02T14:36:26Z</time>
      </trkpt>
      <trkpt lat="44.51986" lon="6.31721">
        <ele>821.706</ele>
        <time>2021-08-02T14:36:27Z</time>
      </trkpt>
      <trkpt lat="44.51986" lon="6.31721">
        <ele>822.272</ele>
        <time>2021-08-02T14:36:46Z</time>
      </trkpt>
      <trkpt lat="44.51982" lon="6.3172">
        <ele>822.506</ele>
        <time>2021-08-02T14:36:47Z</time>
      </trkpt>
      <trkpt lat="44.51981" lon="6.31721">
        <ele>822.314</ele>
        <time>2021-08-02T14:36:48Z</time>
      </trkpt>
      <trkpt lat="44.51981" lon="6.31721">
        <ele>822.314</ele>
        <time>2021-08-02T14:36:48Z</time>
      </trkpt>
      <trkpt lat="44.51981" lon="6.31721">
        <ele>822.63</ele>
        <time>2021-08-02T14:36:49Z</time>
      </trkpt>
      <trkpt lat="44.51981" lon="6.31721">
        <ele>822.575</ele>
        <time>2021-08-02T14:36:50Z</time>
      </trkpt>
      <trkpt lat="44.51981" lon="6.31721">
        <ele>822.575</ele>
        <time>2021-08-02T14:36:50Z</time>
      </trkpt>
      <trkpt lat="44.51981" lon="6.31721">
        <ele>822.425</ele>
        <time>2021-08-02T14:36:51Z</time>
      </trkpt>
      <trkpt lat="44.51981" lon="6.31721">
        <ele>822.627</ele>
        <time>2021-08-02T14:36:52Z</time>
      </trkpt>
      <trkpt lat="44.51981" lon="6.31721">
        <ele>822.627</ele>
        <time>2021-08-02T14:36:52Z</time>
      </trkpt>
      <trkpt lat="44.51981" lon="6.31721">
        <ele>822.073</ele>
        <time>2021-08-02T14:36:53Z</time>
      </trkpt>
      <trkpt lat="44.51981" lon="6.3172">
        <ele>821.762</ele>
        <time>2021-08-02T14:36:54Z</time>
      </trkpt>
      <trkpt lat="44.51981" lon="6.31719">
        <ele>822.46</ele>
        <time>2021-08-02T14:36:57Z</time>
      </trkpt>
      <trkpt lat="44.51981" lon="6.31719">
        <ele>822.471</ele>
        <time>2021-08-02T14:36:59Z</time>
      </trkpt>
      <trkpt lat="44.51981" lon="6.31718">
        <ele>822.282</ele>
        <time>2021-08-02T14:37:00Z</time>
      </trkpt>
      <trkpt lat="44.51981" lon="6.31716">
        <ele>822.59</ele>
        <time>2021-08-02T14:37:02Z</time>
      </trkpt>
      <trkpt lat="44.51981" lon="6.31716">
        <ele>822.498</ele>
        <time>2021-08-02T14:37:04Z</time>
      </trkpt>
      <trkpt lat="44.51982" lon="6.31715">
        <ele>822.28</ele>
        <time>2021-08-02T14:37:05Z</time>
      </trkpt>
      <trkpt lat="44.51985" lon="6.31717">
        <ele>822.158</ele>
        <time>2021-08-02T14:37:07Z</time>
      </trkpt>
      <trkpt lat="44.51985" lon="6.31717">
        <ele>821.979</ele>
        <time>2021-08-02T14:37:08Z</time>
      </trkpt>
      <trkpt lat="44.51985" lon="6.31717">
        <ele>823.621</ele>
        <time>2021-08-02T14:37:59Z</time>
      </trkpt>
      <trkpt lat="44.51985" lon="6.31721">
        <ele>824.627</ele>
        <time>2021-08-02T14:38:00Z</time>
      </trkpt>
      <trkpt lat="44.51985" lon="6.31721">
        <ele>824.557</ele>
        <time>2021-08-02T14:38:01Z</time>
      </trkpt>
      <trkpt lat="44.51985" lon="6.31721">
        <ele>825.203</ele>
        <time>2021-08-02T14:38:23Z</time>
      </trkpt>
      <trkpt lat="44.51985" lon="6.31721">
        <ele>825.864</ele>
        <time>2021-08-02T14:38:24Z</time>
      </trkpt>
      <trkpt lat="44.51985" lon="6.31721">
        <ele>825.641</ele>
        <time>2021-08-02T14:38:25Z</time>
      </trkpt>
      <trkpt lat="44.51985" lon="6.31721">
        <ele>825.641</ele>
        <time>2021-08-02T14:38:25Z</time>
      </trkpt>
      <trkpt lat="44.51985" lon="6.31721">
        <ele>825.637</ele>
        <time>2021-08-02T14:38:26Z</time>
      </trkpt>
      <trkpt lat="44.51985" lon="6.31721">
        <ele>825.639</ele>
        <time>2021-08-02T14:38:30Z</time>
      </trkpt>
      <trkpt lat="44.51984" lon="6.31723">
        <ele>825.541</ele>
        <time>2021-08-02T14:38:31Z</time>
      </trkpt>
      <trkpt lat="44.51983" lon="6.31724">
        <ele>825.149</ele>
        <time>2021-08-02T14:38:32Z</time>
      </trkpt>
      <trkpt lat="44.51983" lon="6.31724">
        <ele>825.006</ele>
        <time>2021-08-02T14:38:33Z</time>
      </trkpt>
      <trkpt lat="44.51983" lon="6.31724">
        <ele>825.034</ele>
        <time>2021-08-02T14:38:46Z</time>
      </trkpt>
      <trkpt lat="44.51982" lon="6.31724">
        <ele>825.233</ele>
        <time>2021-08-02T14:38:47Z</time>
      </trkpt>
      <trkpt lat="44.51982" lon="6.31724">
        <ele>825.233</ele>
        <time>2021-08-02T14:38:47Z</time>
      </trkpt>
      <trkpt lat="44.51982" lon="6.31724">
        <ele>825.354</ele>
        <time>2021-08-02T14:38:48Z</time>
      </trkpt>
      <trkpt lat="44.51982" lon="6.31724">
        <ele>825.354</ele>
        <time>2021-08-02T14:38:48Z</time>
      </trkpt>
      <trkpt lat="44.51983" lon="6.31724">
        <ele>825.541</ele>
        <time>2021-08-02T14:38:49Z</time>
      </trkpt>
      <trkpt lat="44.51982" lon="6.31724">
        <ele>824.142</ele>
        <time>2021-08-02T14:38:55Z</time>
      </trkpt>
      <trkpt lat="44.51982" lon="6.31724">
        <ele>824.142</ele>
        <time>2021-08-02T14:38:55Z</time>
      </trkpt>
      <trkpt lat="44.51982" lon="6.31724">
        <ele>823.944</ele>
        <time>2021-08-02T14:38:56Z</time>
      </trkpt>
      <trkpt lat="44.51982" lon="6.31724">
        <ele>824.329</ele>
        <time>2021-08-02T14:38:59Z</time>
      </trkpt>
      <trkpt lat="44.51981" lon="6.31724">
        <ele>824.485</ele>
        <time>2021-08-02T14:39:00Z</time>
      </trkpt>
      <trkpt lat="44.51981" lon="6.31724">
        <ele>824.438</ele>
        <time>2021-08-02T14:39:01Z</time>
      </trkpt>
      <trkpt lat="44.5198" lon="6.31725">
        <ele>824.431</ele>
        <time>2021-08-02T14:39:02Z</time>
      </trkpt>
      <trkpt lat="44.51979" lon="6.31726">
        <ele>823.862</ele>
        <time>2021-08-02T14:39:04Z</time>
      </trkpt>
      <trkpt lat="44.5198" lon="6.31729">
        <ele>823.932</ele>
        <time>2021-08-02T14:39:08Z</time>
      </trkpt>
      <trkpt lat="44.5198" lon="6.31729">
        <ele>823.932</ele>
        <time>2021-08-02T14:39:08Z</time>
      </trkpt>
      <trkpt lat="44.5198" lon="6.3173">
        <ele>824.317</ele>
        <time>2021-08-02T14:39:09Z</time>
      </trkpt>
      <trkpt lat="44.5198" lon="6.31731">
        <ele>824.439</ele>
        <time>2021-08-02T14:39:12Z</time>
      </trkpt>
      <trkpt lat="44.5198" lon="6.31731">
        <ele>824.753</ele>
        <time>2021-08-02T14:39:16Z</time>
      </trkpt>
      <trkpt lat="44.51978" lon="6.31732">
        <ele>824.423</ele>
        <time>2021-08-02T14:39:17Z</time>
      </trkpt>
      <trkpt lat="44.51978" lon="6.31732">
        <ele>824.678</ele>
        <time>2021-08-02T14:39:18Z</time>
      </trkpt>
      <trkpt lat="44.51978" lon="6.31732">
        <ele>824.678</ele>
        <time>2021-08-02T14:39:18Z</time>
      </trkpt>
      <trkpt lat="44.51977" lon="6.31733">
        <ele>825.242</ele>
        <time>2021-08-02T14:39:19Z</time>
      </trkpt>
      <trkpt lat="44.51974" lon="6.31735">
        <ele>825.457</ele>
        <time>2021-08-02T14:39:22Z</time>
      </trkpt>
      <trkpt lat="44.51964" lon="6.31747">
        <ele>826.735</ele>
        <time>2021-08-02T14:39:33Z</time>
      </trkpt>
      <trkpt lat="44.51964" lon="6.31747">
        <ele>826.735</ele>
        <time>2021-08-02T14:39:33Z</time>
      </trkpt>
      <trkpt lat="44.51964" lon="6.31747">
        <ele>827.609</ele>
        <time>2021-08-02T14:39:34Z</time>
      </trkpt>
      <trkpt lat="44.51963" lon="6.31748">
        <ele>827.808</ele>
        <time>2021-08-02T14:39:35Z</time>
      </trkpt>
      <trkpt lat="44.51959" lon="6.31749">
        <ele>827.565</ele>
        <time>2021-08-02T14:39:38Z</time>
      </trkpt>
      <trkpt lat="44.51953" lon="6.31748">
        <ele>826.696</ele>
        <time>2021-08-02T14:39:43Z</time>
      </trkpt>
      <trkpt lat="44.51935" lon="6.31754">
        <ele>826.456</ele>
        <time>2021-08-02T14:40:00Z</time>
      </trkpt>
      <trkpt lat="44.51931" lon="6.31756">
        <ele>826.232</ele>
        <time>2021-08-02T14:40:03Z</time>
      </trkpt>
      <trkpt lat="44.51927" lon="6.31756">
        <ele>826.319</ele>
        <time>2021-08-02T14:40:06Z</time>
      </trkpt>
      <trkpt lat="44.51921" lon="6.31758">
        <ele>825.857</ele>
        <time>2021-08-02T14:40:12Z</time>
      </trkpt>
      <trkpt lat="44.51918" lon="6.31758">
        <ele>825.74</ele>
        <time>2021-08-02T14:40:14Z</time>
      </trkpt>
      <trkpt lat="44.51916" lon="6.3176">
        <ele>826.515</ele>
        <time>2021-08-02T14:40:17Z</time>
      </trkpt>
      <trkpt lat="44.51915" lon="6.31762">
        <ele>826.358</ele>
        <time>2021-08-02T14:40:18Z</time>
      </trkpt>
      <trkpt lat="44.51912" lon="6.31764">
        <ele>825.976</ele>
        <time>2021-08-02T14:40:20Z</time>
      </trkpt>
      <trkpt lat="44.51903" lon="6.31767">
        <ele>825.19</ele>
        <time>2021-08-02T14:40:29Z</time>
      </trkpt>
      <trkpt lat="44.51894" lon="6.31765">
        <ele>825.499</ele>
        <time>2021-08-02T14:40:35Z</time>
      </trkpt>
      <trkpt lat="44.51889" lon="6.31769">
        <ele>825.049</ele>
        <time>2021-08-02T14:40:40Z</time>
      </trkpt>
      <trkpt lat="44.51883" lon="6.31769">
        <ele>825.626</ele>
        <time>2021-08-02T14:40:43Z</time>
      </trkpt>
      <trkpt lat="44.51883" lon="6.31769">
        <ele>825.449</ele>
        <time>2021-08-02T14:40:44Z</time>
      </trkpt>
      <trkpt lat="44.51872" lon="6.31769">
        <ele>826.45</ele>
        <time>2021-08-02T14:40:53Z</time>
      </trkpt>
      <trkpt lat="44.51859" lon="6.31774">
        <ele>827.601</ele>
        <time>2021-08-02T14:41:04Z</time>
      </trkpt>
      <trkpt lat="44.51857" lon="6.31771">
        <ele>827.986</ele>
        <time>2021-08-02T14:41:08Z</time>
      </trkpt>
      <trkpt lat="44.51852" lon="6.31769">
        <ele>828.507</ele>
        <time>2021-08-02T14:41:14Z</time>
      </trkpt>
      <trkpt lat="44.5185" lon="6.31769">
        <ele>828.845</ele>
        <time>2021-08-02T14:41:17Z</time>
      </trkpt>
      <trkpt lat="44.51846" lon="6.31769">
        <ele>828.521</ele>
        <time>2021-08-02T14:41:19Z</time>
      </trkpt>
      <trkpt lat="44.51844" lon="6.31769">
        <ele>828.338</ele>
        <time>2021-08-02T14:41:21Z</time>
      </trkpt>
      <trkpt lat="44.51834" lon="6.3177">
        <ele>828.88</ele>
        <time>2021-08-02T14:41:28Z</time>
      </trkpt>
      <trkpt lat="44.51833" lon="6.31769">
        <ele>828.674</ele>
        <time>2021-08-02T14:41:29Z</time>
      </trkpt>
      <trkpt lat="44.5183" lon="6.31767">
        <ele>829.428</ele>
        <time>2021-08-02T14:41:34Z</time>
      </trkpt>
      <trkpt lat="44.5183" lon="6.31767">
        <ele>829.365</ele>
        <time>2021-08-02T14:41:36Z</time>
      </trkpt>
      <trkpt lat="44.5183" lon="6.31767">
        <ele>829.34</ele>
        <time>2021-08-02T14:41:37Z</time>
      </trkpt>
      <trkpt lat="44.5183" lon="6.31766">
        <ele>829.863</ele>
        <time>2021-08-02T14:41:38Z</time>
      </trkpt>
      <trkpt lat="44.5183" lon="6.31766">
        <ele>830.481</ele>
        <time>2021-08-02T14:41:39Z</time>
      </trkpt>
      <trkpt lat="44.51826" lon="6.31765">
        <ele>830.804</ele>
        <time>2021-08-02T14:41:42Z</time>
      </trkpt>
      <trkpt lat="44.51824" lon="6.31768">
        <ele>831.336</ele>
        <time>2021-08-02T14:41:45Z</time>
      </trkpt>
      <trkpt lat="44.51821" lon="6.31772">
        <ele>831.131</ele>
        <time>2021-08-02T14:41:48Z</time>
      </trkpt>
      <trkpt lat="44.51819" lon="6.31775">
        <ele>831.276</ele>
        <time>2021-08-02T14:41:51Z</time>
      </trkpt>
      <trkpt lat="44.51818" lon="6.31778">
        <ele>831.253</ele>
        <time>2021-08-02T14:41:53Z</time>
      </trkpt>
      <trkpt lat="44.51812" lon="6.31788">
        <ele>831.085</ele>
        <time>2021-08-02T14:41:59Z</time>
      </trkpt>
      <trkpt lat="44.51811" lon="6.31789">
        <ele>831.064</ele>
        <time>2021-08-02T14:42:00Z</time>
      </trkpt>
      <trkpt lat="44.5181" lon="6.31795">
        <ele>830.85</ele>
        <time>2021-08-02T14:42:05Z</time>
      </trkpt>
      <trkpt lat="44.51809" lon="6.31796">
        <ele>831.065</ele>
        <time>2021-08-02T14:42:06Z</time>
      </trkpt>
      <trkpt lat="44.51806" lon="6.31799">
        <ele>831.305</ele>
        <time>2021-08-02T14:42:10Z</time>
      </trkpt>
      <trkpt lat="44.51803" lon="6.31799">
        <ele>830.683</ele>
        <time>2021-08-02T14:42:12Z</time>
      </trkpt>
      <trkpt lat="44.51802" lon="6.31799">
        <ele>831.061</ele>
        <time>2021-08-02T14:42:13Z</time>
      </trkpt>
      <trkpt lat="44.51802" lon="6.31799">
        <ele>831.34</ele>
        <time>2021-08-02T14:42:14Z</time>
      </trkpt>
      <trkpt lat="44.51801" lon="6.31799">
        <ele>831.335</ele>
        <time>2021-08-02T14:42:15Z</time>
      </trkpt>
      <trkpt lat="44.518" lon="6.31799">
        <ele>830.8</ele>
        <time>2021-08-02T14:42:16Z</time>
      </trkpt>
      <trkpt lat="44.51797" lon="6.31798">
        <ele>830.376</ele>
        <time>2021-08-02T14:42:18Z</time>
      </trkpt>
      <trkpt lat="44.51796" lon="6.31798">
        <ele>830.088</ele>
        <time>2021-08-02T14:42:19Z</time>
      </trkpt>
      <trkpt lat="44.51788" lon="6.31797">
        <ele>829.613</ele>
        <time>2021-08-02T14:42:25Z</time>
      </trkpt>
      <trkpt lat="44.51781" lon="6.31796">
        <ele>829.672</ele>
        <time>2021-08-02T14:42:29Z</time>
      </trkpt>
      <trkpt lat="44.51776" lon="6.31797">
        <ele>828.824</ele>
        <time>2021-08-02T14:42:32Z</time>
      </trkpt>
      <trkpt lat="44.51773" lon="6.31798">
        <ele>828.118</ele>
        <time>2021-08-02T14:42:34Z</time>
      </trkpt>
      <trkpt lat="44.51773" lon="6.31798">
        <ele>828.118</ele>
        <time>2021-08-02T14:42:34Z</time>
      </trkpt>
      <trkpt lat="44.51772" lon="6.31799">
        <ele>827.712</ele>
        <time>2021-08-02T14:42:35Z</time>
      </trkpt>
      <trkpt lat="44.51759" lon="6.31805">
        <ele>827.037</ele>
        <time>2021-08-02T14:42:44Z</time>
      </trkpt>
      <trkpt lat="44.51756" lon="6.31807">
        <ele>826.923</ele>
        <time>2021-08-02T14:42:47Z</time>
      </trkpt>
      <trkpt lat="44.51753" lon="6.31808">
        <ele>826.568</ele>
        <time>2021-08-02T14:42:49Z</time>
      </trkpt>
      <trkpt lat="44.51751" lon="6.31807">
        <ele>826.334</ele>
        <time>2021-08-02T14:42:52Z</time>
      </trkpt>
      <trkpt lat="44.51751" lon="6.31807">
        <ele>826.334</ele>
        <time>2021-08-02T14:42:52Z</time>
      </trkpt>
      <trkpt lat="44.5175" lon="6.31806">
        <ele>826.137</ele>
        <time>2021-08-02T14:42:53Z</time>
      </trkpt>
      <trkpt lat="44.51746" lon="6.31805">
        <ele>826.064</ele>
        <time>2021-08-02T14:42:57Z</time>
      </trkpt>
      <trkpt lat="44.51742" lon="6.31805">
        <ele>826.342</ele>
        <time>2021-08-02T14:43:00Z</time>
      </trkpt>
      <trkpt lat="44.51739" lon="6.31806">
        <ele>824.776</ele>
        <time>2021-08-02T14:43:03Z</time>
      </trkpt>
      <trkpt lat="44.51731" lon="6.31804">
        <ele>824.352</ele>
        <time>2021-08-02T14:43:09Z</time>
      </trkpt>
      <trkpt lat="44.51729" lon="6.318">
        <ele>824.45</ele>
        <time>2021-08-02T14:43:12Z</time>
      </trkpt>
      <trkpt lat="44.51726" lon="6.31799">
        <ele>824.307</ele>
        <time>2021-08-02T14:43:15Z</time>
      </trkpt>
      <trkpt lat="44.51725" lon="6.31799">
        <ele>823.948</ele>
        <time>2021-08-02T14:43:17Z</time>
      </trkpt>
      <trkpt lat="44.51724" lon="6.318">
        <ele>823.898</ele>
        <time>2021-08-02T14:43:18Z</time>
      </trkpt>
      <trkpt lat="44.51723" lon="6.31801">
        <ele>823.885</ele>
        <time>2021-08-02T14:43:19Z</time>
      </trkpt>
      <trkpt lat="44.5172" lon="6.31802">
        <ele>823.566</ele>
        <time>2021-08-02T14:43:22Z</time>
      </trkpt>
      <trkpt lat="44.51719" lon="6.31802">
        <ele>823.719</ele>
        <time>2021-08-02T14:43:23Z</time>
      </trkpt>
      <trkpt lat="44.51719" lon="6.31802">
        <ele>823.719</ele>
        <time>2021-08-02T14:43:23Z</time>
      </trkpt>
      <trkpt lat="44.51719" lon="6.31802">
        <ele>823.614</ele>
        <time>2021-08-02T14:43:24Z</time>
      </trkpt>
      <trkpt lat="44.51716" lon="6.31801">
        <ele>824.404</ele>
        <time>2021-08-02T14:43:27Z</time>
      </trkpt>
      <trkpt lat="44.51714" lon="6.318">
        <ele>824.406</ele>
        <time>2021-08-02T14:43:28Z</time>
      </trkpt>
      <trkpt lat="44.51711" lon="6.318">
        <ele>824.132</ele>
        <time>2021-08-02T14:43:31Z</time>
      </trkpt>
      <trkpt lat="44.51708" lon="6.31805">
        <ele>823.555</ele>
        <time>2021-08-02T14:43:34Z</time>
      </trkpt>
      <trkpt lat="44.51705" lon="6.31807">
        <ele>822.691</ele>
        <time>2021-08-02T14:43:37Z</time>
      </trkpt>
      <trkpt lat="44.51703" lon="6.31808">
        <ele>823.049</ele>
        <time>2021-08-02T14:43:40Z</time>
      </trkpt>
      <trkpt lat="44.517" lon="6.31809">
        <ele>823.261</ele>
        <time>2021-08-02T14:43:43Z</time>
      </trkpt>
      <trkpt lat="44.51699" lon="6.31809">
        <ele>823.169</ele>
        <time>2021-08-02T14:43:44Z</time>
      </trkpt>
      <trkpt lat="44.51692" lon="6.31807">
        <ele>822.687</ele>
        <time>2021-08-02T14:43:51Z</time>
      </trkpt>
      <trkpt lat="44.5169" lon="6.31806">
        <ele>823.064</ele>
        <time>2021-08-02T14:43:53Z</time>
      </trkpt>
      <trkpt lat="44.5169" lon="6.31806">
        <ele>823.064</ele>
        <time>2021-08-02T14:43:53Z</time>
      </trkpt>
      <trkpt lat="44.51689" lon="6.31806">
        <ele>823.148</ele>
        <time>2021-08-02T14:43:54Z</time>
      </trkpt>
      <trkpt lat="44.51689" lon="6.31806">
        <ele>822.821</ele>
        <time>2021-08-02T14:43:55Z</time>
      </trkpt>
      <trkpt lat="44.51688" lon="6.31806">
        <ele>822.573</ele>
        <time>2021-08-02T14:43:56Z</time>
      </trkpt>
      <trkpt lat="44.51681" lon="6.318">
        <ele>823.171</ele>
        <time>2021-08-02T14:44:05Z</time>
      </trkpt>
      <trkpt lat="44.51681" lon="6.318">
        <ele>823.171</ele>
        <time>2021-08-02T14:44:05Z</time>
      </trkpt>
      <trkpt lat="44.51681" lon="6.31799">
        <ele>823.282</ele>
        <time>2021-08-02T14:44:06Z</time>
      </trkpt>
      <trkpt lat="44.51679" lon="6.31797">
        <ele>823.382</ele>
        <time>2021-08-02T14:44:08Z</time>
      </trkpt>
      <trkpt lat="44.51677" lon="6.31787">
        <ele>824.235</ele>
        <time>2021-08-02T14:44:14Z</time>
      </trkpt>
      <trkpt lat="44.51677" lon="6.31783">
        <ele>824.772</ele>
        <time>2021-08-02T14:44:17Z</time>
      </trkpt>
      <trkpt lat="44.51676" lon="6.31779">
        <ele>824.876</ele>
        <time>2021-08-02T14:44:20Z</time>
      </trkpt>
      <trkpt lat="44.51674" lon="6.31771">
        <ele>825.659</ele>
        <time>2021-08-02T14:44:26Z</time>
      </trkpt>
      <trkpt lat="44.51674" lon="6.3177">
        <ele>826.084</ele>
        <time>2021-08-02T14:44:28Z</time>
      </trkpt>
      <trkpt lat="44.51674" lon="6.31769">
        <ele>825.608</ele>
        <time>2021-08-02T14:44:30Z</time>
      </trkpt>
      <trkpt lat="44.51674" lon="6.31769">
        <ele>825.603</ele>
        <time>2021-08-02T14:44:32Z</time>
      </trkpt>
      <trkpt lat="44.51673" lon="6.31769">
        <ele>825.723</ele>
        <time>2021-08-02T14:44:33Z</time>
      </trkpt>
      <trkpt lat="44.51672" lon="6.31767">
        <ele>826.016</ele>
        <time>2021-08-02T14:44:36Z</time>
      </trkpt>
      <trkpt lat="44.5167" lon="6.31763">
        <ele>826.565</ele>
        <time>2021-08-02T14:44:39Z</time>
      </trkpt>
      <trkpt lat="44.5167" lon="6.3175">
        <ele>826.583</ele>
        <time>2021-08-02T14:44:47Z</time>
      </trkpt>
      <trkpt lat="44.5167" lon="6.31749">
        <ele>827.047</ele>
        <time>2021-08-02T14:44:48Z</time>
      </trkpt>
      <trkpt lat="44.51671" lon="6.31749">
        <ele>827.044</ele>
        <time>2021-08-02T14:44:49Z</time>
      </trkpt>
      <trkpt lat="44.51672" lon="6.31744">
        <ele>827.257</ele>
        <time>2021-08-02T14:44:52Z</time>
      </trkpt>
      <trkpt lat="44.51672" lon="6.31744">
        <ele>827.811</ele>
        <time>2021-08-02T14:44:53Z</time>
      </trkpt>
      <trkpt lat="44.51672" lon="6.31743">
        <ele>827.922</ele>
        <time>2021-08-02T14:44:54Z</time>
      </trkpt>
      <trkpt lat="44.51672" lon="6.31743">
        <ele>827.991</ele>
        <time>2021-08-02T14:44:55Z</time>
      </trkpt>
      <trkpt lat="44.51672" lon="6.31743">
        <ele>827.991</ele>
        <time>2021-08-02T14:44:55Z</time>
      </trkpt>
      <trkpt lat="44.51672" lon="6.31742">
        <ele>828.059</ele>
        <time>2021-08-02T14:44:56Z</time>
      </trkpt>
      <trkpt lat="44.51672" lon="6.31742">
        <ele>828.121</ele>
        <time>2021-08-02T14:44:57Z</time>
      </trkpt>
      <trkpt lat="44.51672" lon="6.31742">
        <ele>828.181</ele>
        <time>2021-08-02T14:45:02Z</time>
      </trkpt>
      <trkpt lat="44.51673" lon="6.31741">
        <ele>828.172</ele>
        <time>2021-08-02T14:45:03Z</time>
      </trkpt>
      <trkpt lat="44.51673" lon="6.3174">
        <ele>828.282</ele>
        <time>2021-08-02T14:45:04Z</time>
      </trkpt>
      <trkpt lat="44.51673" lon="6.3174">
        <ele>828.408</ele>
        <time>2021-08-02T14:45:05Z</time>
      </trkpt>
      <trkpt lat="44.51673" lon="6.3174">
        <ele>828.187</ele>
        <time>2021-08-02T14:45:12Z</time>
      </trkpt>
      <trkpt lat="44.51673" lon="6.31738">
        <ele>828.279</ele>
        <time>2021-08-02T14:45:13Z</time>
      </trkpt>
      <trkpt lat="44.51675" lon="6.31735">
        <ele>827.759</ele>
        <time>2021-08-02T14:45:16Z</time>
      </trkpt>
      <trkpt lat="44.51681" lon="6.31727">
        <ele>829.19</ele>
        <time>2021-08-02T14:45:24Z</time>
      </trkpt>
      <trkpt lat="44.51682" lon="6.31722">
        <ele>830.423</ele>
        <time>2021-08-02T14:45:28Z</time>
      </trkpt>
      <trkpt lat="44.51686" lon="6.31719">
        <ele>831.007</ele>
        <time>2021-08-02T14:45:32Z</time>
      </trkpt>
      <trkpt lat="44.51689" lon="6.31719">
        <ele>831.809</ele>
        <time>2021-08-02T14:45:34Z</time>
      </trkpt>
      <trkpt lat="44.51692" lon="6.31719">
        <ele>831.817</ele>
        <time>2021-08-02T14:45:38Z</time>
      </trkpt>
      <trkpt lat="44.51692" lon="6.31719">
        <ele>832.167</ele>
        <time>2021-08-02T14:45:39Z</time>
      </trkpt>
      <trkpt lat="44.51694" lon="6.31716">
        <ele>832.83</ele>
        <time>2021-08-02T14:45:43Z</time>
      </trkpt>
      <trkpt lat="44.51698" lon="6.31709">
        <ele>832.982</ele>
        <time>2021-08-02T14:45:49Z</time>
      </trkpt>
      <trkpt lat="44.51704" lon="6.31693">
        <ele>835.061</ele>
        <time>2021-08-02T14:46:00Z</time>
      </trkpt>
      <trkpt lat="44.51704" lon="6.31693">
        <ele>834.685</ele>
        <time>2021-08-02T14:46:01Z</time>
      </trkpt>
      <trkpt lat="44.51704" lon="6.3169">
        <ele>835.302</ele>
        <time>2021-08-02T14:46:04Z</time>
      </trkpt>
      <trkpt lat="44.51702" lon="6.31688">
        <ele>835.692</ele>
        <time>2021-08-02T14:46:07Z</time>
      </trkpt>
      <trkpt lat="44.51702" lon="6.31687">
        <ele>835.76</ele>
        <time>2021-08-02T14:46:08Z</time>
      </trkpt>
      <trkpt lat="44.51705" lon="6.31686">
        <ele>836.359</ele>
        <time>2021-08-02T14:46:11Z</time>
      </trkpt>
      <trkpt lat="44.51709" lon="6.31682">
        <ele>837.183</ele>
        <time>2021-08-02T14:46:16Z</time>
      </trkpt>
      <trkpt lat="44.5171" lon="6.31672">
        <ele>837.841</ele>
        <time>2021-08-02T14:46:23Z</time>
      </trkpt>
      <trkpt lat="44.51711" lon="6.31665">
        <ele>839.585</ele>
        <time>2021-08-02T14:46:28Z</time>
      </trkpt>
      <trkpt lat="44.51713" lon="6.31662">
        <ele>840.215</ele>
        <time>2021-08-02T14:46:31Z</time>
      </trkpt>
      <trkpt lat="44.51713" lon="6.31657">
        <ele>841.422</ele>
        <time>2021-08-02T14:46:35Z</time>
      </trkpt>
      <trkpt lat="44.51713" lon="6.31654">
        <ele>841.319</ele>
        <time>2021-08-02T14:46:38Z</time>
      </trkpt>
      <trkpt lat="44.51713" lon="6.31653">
        <ele>841.492</ele>
        <time>2021-08-02T14:46:39Z</time>
      </trkpt>
      <trkpt lat="44.51713" lon="6.31647">
        <ele>841.075</ele>
        <time>2021-08-02T14:46:43Z</time>
      </trkpt>
      <trkpt lat="44.51718" lon="6.31632">
        <ele>842.549</ele>
        <time>2021-08-02T14:46:53Z</time>
      </trkpt>
      <trkpt lat="44.51723" lon="6.31624">
        <ele>843.371</ele>
        <time>2021-08-02T14:47:01Z</time>
      </trkpt>
      <trkpt lat="44.51723" lon="6.31624">
        <ele>843.656</ele>
        <time>2021-08-02T14:47:16Z</time>
      </trkpt>
      <trkpt lat="44.51724" lon="6.3162">
        <ele>843.754</ele>
        <time>2021-08-02T14:47:17Z</time>
      </trkpt>
      <trkpt lat="44.51724" lon="6.31619">
        <ele>844.524</ele>
        <time>2021-08-02T14:47:18Z</time>
      </trkpt>
      <trkpt lat="44.51725" lon="6.31616">
        <ele>845.998</ele>
        <time>2021-08-02T14:47:20Z</time>
      </trkpt>
      <trkpt lat="44.51726" lon="6.31604">
        <ele>848.337</ele>
        <time>2021-08-02T14:47:29Z</time>
      </trkpt>
      <trkpt lat="44.51726" lon="6.31598">
        <ele>848.965</ele>
        <time>2021-08-02T14:47:35Z</time>
      </trkpt>
      <trkpt lat="44.51726" lon="6.31592">
        <ele>848.918</ele>
        <time>2021-08-02T14:47:40Z</time>
      </trkpt>
      <trkpt lat="44.51726" lon="6.31588">
        <ele>848.499</ele>
        <time>2021-08-02T14:47:44Z</time>
      </trkpt>
      <trkpt lat="44.51726" lon="6.31587">
        <ele>848.428</ele>
        <time>2021-08-02T14:47:45Z</time>
      </trkpt>
      <trkpt lat="44.51725" lon="6.31584">
        <ele>848.143</ele>
        <time>2021-08-02T14:47:49Z</time>
      </trkpt>
      <trkpt lat="44.51725" lon="6.31584">
        <ele>848.143</ele>
        <time>2021-08-02T14:47:49Z</time>
      </trkpt>
      <trkpt lat="44.51725" lon="6.31584">
        <ele>848.121</ele>
        <time>2021-08-02T14:47:50Z</time>
      </trkpt>
      <trkpt lat="44.51725" lon="6.31584">
        <ele>848.564</ele>
        <time>2021-08-02T14:47:57Z</time>
      </trkpt>
      <trkpt lat="44.51725" lon="6.31581">
        <ele>848.767</ele>
        <time>2021-08-02T14:47:58Z</time>
      </trkpt>
      <trkpt lat="44.51725" lon="6.31574">
        <ele>849.78</ele>
        <time>2021-08-02T14:48:03Z</time>
      </trkpt>
      <trkpt lat="44.51722" lon="6.31557">
        <ele>849.242</ele>
        <time>2021-08-02T14:48:13Z</time>
      </trkpt>
      <trkpt lat="44.51722" lon="6.31556">
        <ele>849.325</ele>
        <time>2021-08-02T14:48:14Z</time>
      </trkpt>
      <trkpt lat="44.51722" lon="6.31554">
        <ele>849.584</ele>
        <time>2021-08-02T14:48:15Z</time>
      </trkpt>
      <trkpt lat="44.51718" lon="6.31523">
        <ele>848.566</ele>
        <time>2021-08-02T14:48:30Z</time>
      </trkpt>
      <trkpt lat="44.51719" lon="6.31517">
        <ele>848.466</ele>
        <time>2021-08-02T14:48:32Z</time>
      </trkpt>
      <trkpt lat="44.51719" lon="6.31506">
        <ele>846.855</ele>
        <time>2021-08-02T14:48:38Z</time>
      </trkpt>
      <trkpt lat="44.5172" lon="6.31505">
        <ele>846.96</ele>
        <time>2021-08-02T14:48:39Z</time>
      </trkpt>
      <trkpt lat="44.5172" lon="6.31504">
        <ele>846.984</ele>
        <time>2021-08-02T14:48:40Z</time>
      </trkpt>
      <trkpt lat="44.51723" lon="6.31498">
        <ele>846.435</ele>
        <time>2021-08-02T14:48:44Z</time>
      </trkpt>
      <trkpt lat="44.51725" lon="6.31496">
        <ele>846.72</ele>
        <time>2021-08-02T14:48:46Z</time>
      </trkpt>
      <trkpt lat="44.5173" lon="6.31491">
        <ele>847.238</ele>
        <time>2021-08-02T14:48:52Z</time>
      </trkpt>
      <trkpt lat="44.51733" lon="6.31487">
        <ele>847.869</ele>
        <time>2021-08-02T14:48:58Z</time>
      </trkpt>
      <trkpt lat="44.51733" lon="6.31483">
        <ele>848.295</ele>
        <time>2021-08-02T14:49:00Z</time>
      </trkpt>
      <trkpt lat="44.51734" lon="6.31478">
        <ele>848.612</ele>
        <time>2021-08-02T14:49:03Z</time>
      </trkpt>
      <trkpt lat="44.51736" lon="6.31471">
        <ele>849.229</ele>
        <time>2021-08-02T14:49:06Z</time>
      </trkpt>
      <trkpt lat="44.51737" lon="6.31469">
        <ele>849.376</ele>
        <time>2021-08-02T14:49:08Z</time>
      </trkpt>
      <trkpt lat="44.51737" lon="6.31469">
        <ele>849.376</ele>
        <time>2021-08-02T14:49:08Z</time>
      </trkpt>
      <trkpt lat="44.51737" lon="6.31468">
        <ele>849.559</ele>
        <time>2021-08-02T14:49:09Z</time>
      </trkpt>
      <trkpt lat="44.51738" lon="6.31467">
        <ele>849.851</ele>
        <time>2021-08-02T14:49:11Z</time>
      </trkpt>
      <trkpt lat="44.51739" lon="6.31467">
        <ele>850.051</ele>
        <time>2021-08-02T14:49:12Z</time>
      </trkpt>
      <trkpt lat="44.51738" lon="6.31467">
        <ele>849.747</ele>
        <time>2021-08-02T14:49:13Z</time>
      </trkpt>
      <trkpt lat="44.51737" lon="6.31467">
        <ele>850.163</ele>
        <time>2021-08-02T14:49:15Z</time>
      </trkpt>
      <trkpt lat="44.51737" lon="6.31465">
        <ele>849.978</ele>
        <time>2021-08-02T14:49:18Z</time>
      </trkpt>
      <trkpt lat="44.51736" lon="6.31461">
        <ele>849.091</ele>
        <time>2021-08-02T14:49:20Z</time>
      </trkpt>
      <trkpt lat="44.51734" lon="6.31457">
        <ele>849.22</ele>
        <time>2021-08-02T14:49:23Z</time>
      </trkpt>
      <trkpt lat="44.51734" lon="6.31458">
        <ele>848.866</ele>
        <time>2021-08-02T14:49:26Z</time>
      </trkpt>
      <trkpt lat="44.51734" lon="6.31458">
        <ele>848.287</ele>
        <time>2021-08-02T14:49:27Z</time>
      </trkpt>
      <trkpt lat="44.51734" lon="6.31458">
        <ele>848.287</ele>
        <time>2021-08-02T14:49:27Z</time>
      </trkpt>
      <trkpt lat="44.51733" lon="6.31459">
        <ele>848.265</ele>
        <time>2021-08-02T14:49:28Z</time>
      </trkpt>
      <trkpt lat="44.51732" lon="6.31459">
        <ele>847.965</ele>
        <time>2021-08-02T14:49:29Z</time>
      </trkpt>
      <trkpt lat="44.51728" lon="6.31458">
        <ele>847.993</ele>
        <time>2021-08-02T14:49:32Z</time>
      </trkpt>
      <trkpt lat="44.51728" lon="6.31458">
        <ele>847.605</ele>
        <time>2021-08-02T14:49:33Z</time>
      </trkpt>
      <trkpt lat="44.51727" lon="6.31458">
        <ele>847.169</ele>
        <time>2021-08-02T14:49:34Z</time>
      </trkpt>
      <trkpt lat="44.51723" lon="6.31459">
        <ele>847.119</ele>
        <time>2021-08-02T14:49:38Z</time>
      </trkpt>
      <trkpt lat="44.51719" lon="6.31458">
        <ele>847.419</ele>
        <time>2021-08-02T14:49:41Z</time>
      </trkpt>
      <trkpt lat="44.51717" lon="6.31455">
        <ele>847.322</ele>
        <time>2021-08-02T14:49:45Z</time>
      </trkpt>
      <trkpt lat="44.51715" lon="6.31451">
        <ele>847.381</ele>
        <time>2021-08-02T14:49:48Z</time>
      </trkpt>
      <trkpt lat="44.51714" lon="6.31448">
        <ele>847.473</ele>
        <time>2021-08-02T14:49:51Z</time>
      </trkpt>
      <trkpt lat="44.51714" lon="6.31444">
        <ele>848.429</ele>
        <time>2021-08-02T14:49:57Z</time>
      </trkpt>
      <trkpt lat="44.51713" lon="6.31443">
        <ele>848.664</ele>
        <time>2021-08-02T14:49:58Z</time>
      </trkpt>
      <trkpt lat="44.51712" lon="6.31442">
        <ele>848.953</ele>
        <time>2021-08-02T14:49:59Z</time>
      </trkpt>
      <trkpt lat="44.5171" lon="6.31438">
        <ele>849.367</ele>
        <time>2021-08-02T14:50:03Z</time>
      </trkpt>
      <trkpt lat="44.51707" lon="6.31435">
        <ele>849.958</ele>
        <time>2021-08-02T14:50:06Z</time>
      </trkpt>
      <trkpt lat="44.51707" lon="6.31433">
        <ele>849.877</ele>
        <time>2021-08-02T14:50:08Z</time>
      </trkpt>
      <trkpt lat="44.51704" lon="6.31432">
        <ele>849.27</ele>
        <time>2021-08-02T14:50:12Z</time>
      </trkpt>
      <trkpt lat="44.51701" lon="6.31432">
        <ele>849.344</ele>
        <time>2021-08-02T14:50:16Z</time>
      </trkpt>
      <trkpt lat="44.517" lon="6.31433">
        <ele>849.229</ele>
        <time>2021-08-02T14:50:18Z</time>
      </trkpt>
      <trkpt lat="44.517" lon="6.31434">
        <ele>849.195</ele>
        <time>2021-08-02T14:50:19Z</time>
      </trkpt>
      <trkpt lat="44.51698" lon="6.31433">
        <ele>849.388</ele>
        <time>2021-08-02T14:50:21Z</time>
      </trkpt>
      <trkpt lat="44.51695" lon="6.31434">
        <ele>849.82</ele>
        <time>2021-08-02T14:50:24Z</time>
      </trkpt>
      <trkpt lat="44.51694" lon="6.31434">
        <ele>850.257</ele>
        <time>2021-08-02T14:50:26Z</time>
      </trkpt>
      <trkpt lat="44.51693" lon="6.31433">
        <ele>850.362</ele>
        <time>2021-08-02T14:50:28Z</time>
      </trkpt>
      <trkpt lat="44.5169" lon="6.31434">
        <ele>850.475</ele>
        <time>2021-08-02T14:50:31Z</time>
      </trkpt>
      <trkpt lat="44.51689" lon="6.31435">
        <ele>850.964</ele>
        <time>2021-08-02T14:50:33Z</time>
      </trkpt>
      <trkpt lat="44.51688" lon="6.31435">
        <ele>850.826</ele>
        <time>2021-08-02T14:50:34Z</time>
      </trkpt>
      <trkpt lat="44.51688" lon="6.31435">
        <ele>850.983</ele>
        <time>2021-08-02T14:50:35Z</time>
      </trkpt>
      <trkpt lat="44.51686" lon="6.31436">
        <ele>851.415</ele>
        <time>2021-08-02T14:50:38Z</time>
      </trkpt>
      <trkpt lat="44.51685" lon="6.31436">
        <ele>851.097</ele>
        <time>2021-08-02T14:50:39Z</time>
      </trkpt>
      <trkpt lat="44.51677" lon="6.31437">
        <ele>851.766</ele>
        <time>2021-08-02T14:50:46Z</time>
      </trkpt>
      <trkpt lat="44.51676" lon="6.31433">
        <ele>852.18</ele>
        <time>2021-08-02T14:50:50Z</time>
      </trkpt>
      <trkpt lat="44.51675" lon="6.31432">
        <ele>852.381</ele>
        <time>2021-08-02T14:50:52Z</time>
      </trkpt>
      <trkpt lat="44.51674" lon="6.31432">
        <ele>852.269</ele>
        <time>2021-08-02T14:50:53Z</time>
      </trkpt>
      <trkpt lat="44.51671" lon="6.31433">
        <ele>852.359</ele>
        <time>2021-08-02T14:50:56Z</time>
      </trkpt>
      <trkpt lat="44.51667" lon="6.31434">
        <ele>852.626</ele>
        <time>2021-08-02T14:50:59Z</time>
      </trkpt>
      <trkpt lat="44.51667" lon="6.31433">
        <ele>852.129</ele>
        <time>2021-08-02T14:51:00Z</time>
      </trkpt>
      <trkpt lat="44.51664" lon="6.31432">
        <ele>851.804</ele>
        <time>2021-08-02T14:51:03Z</time>
      </trkpt>
      <trkpt lat="44.51662" lon="6.31431">
        <ele>851.937</ele>
        <time>2021-08-02T14:51:06Z</time>
      </trkpt>
      <trkpt lat="44.5166" lon="6.3143">
        <ele>851.924</ele>
        <time>2021-08-02T14:51:07Z</time>
      </trkpt>
      <trkpt lat="44.51655" lon="6.31425">
        <ele>852.354</ele>
        <time>2021-08-02T14:51:13Z</time>
      </trkpt>
      <trkpt lat="44.51654" lon="6.31422">
        <ele>852.905</ele>
        <time>2021-08-02T14:51:16Z</time>
      </trkpt>
      <trkpt lat="44.51652" lon="6.3142">
        <ele>853.135</ele>
        <time>2021-08-02T14:51:18Z</time>
      </trkpt>
      <trkpt lat="44.51651" lon="6.3142">
        <ele>853.235</ele>
        <time>2021-08-02T14:51:19Z</time>
      </trkpt>
      <trkpt lat="44.51645" lon="6.3141">
        <ele>853.872</ele>
        <time>2021-08-02T14:51:28Z</time>
      </trkpt>
      <trkpt lat="44.51644" lon="6.31406">
        <ele>854.08</ele>
        <time>2021-08-02T14:51:31Z</time>
      </trkpt>
      <trkpt lat="44.51631" lon="6.31382">
        <ele>856.206</ele>
        <time>2021-08-02T14:51:49Z</time>
      </trkpt>
      <trkpt lat="44.51627" lon="6.31378">
        <ele>855.996</ele>
        <time>2021-08-02T14:51:53Z</time>
      </trkpt>
      <trkpt lat="44.51622" lon="6.31368">
        <ele>856.964</ele>
        <time>2021-08-02T14:52:03Z</time>
      </trkpt>
      <trkpt lat="44.51621" lon="6.31364">
        <ele>857.254</ele>
        <time>2021-08-02T14:52:05Z</time>
      </trkpt>
      <trkpt lat="44.5162" lon="6.31361">
        <ele>857.863</ele>
        <time>2021-08-02T14:52:08Z</time>
      </trkpt>
      <trkpt lat="44.51617" lon="6.31357">
        <ele>857.795</ele>
        <time>2021-08-02T14:52:12Z</time>
      </trkpt>
      <trkpt lat="44.51617" lon="6.31356">
        <ele>858.082</ele>
        <time>2021-08-02T14:52:13Z</time>
      </trkpt>
      <trkpt lat="44.51617" lon="6.31355">
        <ele>858.102</ele>
        <time>2021-08-02T14:52:14Z</time>
      </trkpt>
      <trkpt lat="44.51617" lon="6.31354">
        <ele>858.538</ele>
        <time>2021-08-02T14:52:15Z</time>
      </trkpt>
      <trkpt lat="44.51615" lon="6.31351">
        <ele>858.614</ele>
        <time>2021-08-02T14:52:18Z</time>
      </trkpt>
      <trkpt lat="44.51615" lon="6.3135">
        <ele>858.591</ele>
        <time>2021-08-02T14:52:19Z</time>
      </trkpt>
      <trkpt lat="44.51614" lon="6.31346">
        <ele>859.147</ele>
        <time>2021-08-02T14:52:22Z</time>
      </trkpt>
      <trkpt lat="44.51614" lon="6.31345">
        <ele>859.453</ele>
        <time>2021-08-02T14:52:23Z</time>
      </trkpt>
      <trkpt lat="44.51614" lon="6.31343">
        <ele>859.348</ele>
        <time>2021-08-02T14:52:24Z</time>
      </trkpt>
      <trkpt lat="44.51613" lon="6.31342">
        <ele>859.338</ele>
        <time>2021-08-02T14:52:25Z</time>
      </trkpt>
      <trkpt lat="44.51611" lon="6.31339">
        <ele>859.794</ele>
        <time>2021-08-02T14:52:28Z</time>
      </trkpt>
      <trkpt lat="44.5161" lon="6.31338">
        <ele>860.011</ele>
        <time>2021-08-02T14:52:29Z</time>
      </trkpt>
      <trkpt lat="44.51608" lon="6.31334">
        <ele>860.28</ele>
        <time>2021-08-02T14:52:33Z</time>
      </trkpt>
      <trkpt lat="44.51609" lon="6.31333">
        <ele>860.719</ele>
        <time>2021-08-02T14:52:34Z</time>
      </trkpt>
      <trkpt lat="44.51606" lon="6.31326">
        <ele>861.034</ele>
        <time>2021-08-02T14:52:40Z</time>
      </trkpt>
      <trkpt lat="44.51601" lon="6.31313">
        <ele>861.555</ele>
        <time>2021-08-02T14:52:48Z</time>
      </trkpt>
      <trkpt lat="44.51599" lon="6.31307">
        <ele>861.176</ele>
        <time>2021-08-02T14:52:53Z</time>
      </trkpt>
      <trkpt lat="44.51599" lon="6.31307">
        <ele>861.208</ele>
        <time>2021-08-02T14:52:54Z</time>
      </trkpt>
      <trkpt lat="44.51599" lon="6.31304">
        <ele>861.613</ele>
        <time>2021-08-02T14:52:56Z</time>
      </trkpt>
      <trkpt lat="44.51594" lon="6.31287">
        <ele>862.559</ele>
        <time>2021-08-02T14:53:07Z</time>
      </trkpt>
      <trkpt lat="44.51593" lon="6.31286">
        <ele>862.343</ele>
        <time>2021-08-02T14:53:09Z</time>
      </trkpt>
      <trkpt lat="44.51591" lon="6.3128">
        <ele>862.745</ele>
        <time>2021-08-02T14:53:14Z</time>
      </trkpt>
      <trkpt lat="44.51585" lon="6.3127">
        <ele>863.142</ele>
        <time>2021-08-02T14:53:22Z</time>
      </trkpt>
      <trkpt lat="44.51578" lon="6.31264">
        <ele>864.035</ele>
        <time>2021-08-02T14:53:29Z</time>
      </trkpt>
      <trkpt lat="44.51572" lon="6.31261">
        <ele>865.096</ele>
        <time>2021-08-02T14:53:35Z</time>
      </trkpt>
      <trkpt lat="44.51562" lon="6.31252">
        <ele>865.745</ele>
        <time>2021-08-02T14:53:44Z</time>
      </trkpt>
      <trkpt lat="44.51561" lon="6.31251">
        <ele>865.691</ele>
        <time>2021-08-02T14:53:45Z</time>
      </trkpt>
      <trkpt lat="44.51551" lon="6.31237">
        <ele>866.588</ele>
        <time>2021-08-02T14:53:57Z</time>
      </trkpt>
      <trkpt lat="44.51541" lon="6.31219">
        <ele>868.845</ele>
        <time>2021-08-02T14:54:10Z</time>
      </trkpt>
      <trkpt lat="44.51534" lon="6.31208">
        <ele>868.989</ele>
        <time>2021-08-02T14:54:21Z</time>
      </trkpt>
      <trkpt lat="44.51534" lon="6.31208">
        <ele>869.08</ele>
        <time>2021-08-02T14:54:22Z</time>
      </trkpt>
      <trkpt lat="44.51534" lon="6.31208">
        <ele>869.398</ele>
        <time>2021-08-02T14:55:07Z</time>
      </trkpt>
      <trkpt lat="44.51533" lon="6.31206">
        <ele>869.698</ele>
        <time>2021-08-02T14:55:08Z</time>
      </trkpt>
      <trkpt lat="44.51532" lon="6.31206">
        <ele>870.177</ele>
        <time>2021-08-02T14:55:09Z</time>
      </trkpt>
      <trkpt lat="44.51525" lon="6.31196">
        <ele>872.266</ele>
        <time>2021-08-02T14:55:18Z</time>
      </trkpt>
      <trkpt lat="44.51521" lon="6.31188">
        <ele>872.35</ele>
        <time>2021-08-02T14:55:23Z</time>
      </trkpt>
      <trkpt lat="44.51517" lon="6.31181">
        <ele>870.102</ele>
        <time>2021-08-02T14:55:28Z</time>
      </trkpt>
      <trkpt lat="44.51515" lon="6.31178">
        <ele>870.536</ele>
        <time>2021-08-02T14:55:31Z</time>
      </trkpt>
      <trkpt lat="44.51504" lon="6.3116">
        <ele>870.882</ele>
        <time>2021-08-02T14:55:43Z</time>
      </trkpt>
      <trkpt lat="44.51504" lon="6.31148">
        <ele>870.43</ele>
        <time>2021-08-02T14:55:51Z</time>
      </trkpt>
      <trkpt lat="44.51504" lon="6.31128">
        <ele>871.019</ele>
        <time>2021-08-02T14:56:01Z</time>
      </trkpt>
      <trkpt lat="44.51501" lon="6.311">
        <ele>870.613</ele>
        <time>2021-08-02T14:56:16Z</time>
      </trkpt>
      <trkpt lat="44.51498" lon="6.31095">
        <ele>870.059</ele>
        <time>2021-08-02T14:56:20Z</time>
      </trkpt>
      <trkpt lat="44.51496" lon="6.31092">
        <ele>869.33</ele>
        <time>2021-08-02T14:56:23Z</time>
      </trkpt>
      <trkpt lat="44.51491" lon="6.3108">
        <ele>868.685</ele>
        <time>2021-08-02T14:56:32Z</time>
      </trkpt>
      <trkpt lat="44.51488" lon="6.31076">
        <ele>868.018</ele>
        <time>2021-08-02T14:56:35Z</time>
      </trkpt>
      <trkpt lat="44.51479" lon="6.31064">
        <ele>866.08</ele>
        <time>2021-08-02T14:56:48Z</time>
      </trkpt>
      <trkpt lat="44.51478" lon="6.31033">
        <ele>865.218</ele>
        <time>2021-08-02T14:57:09Z</time>
      </trkpt>
      <trkpt lat="44.51486" lon="6.31002">
        <ele>862.832</ele>
        <time>2021-08-02T14:57:32Z</time>
      </trkpt>
      <trkpt lat="44.51487" lon="6.30982">
        <ele>860.771</ele>
        <time>2021-08-02T14:57:44Z</time>
      </trkpt>
      <trkpt lat="44.51489" lon="6.30974">
        <ele>859.016</ele>
        <time>2021-08-02T14:57:49Z</time>
      </trkpt>
      <trkpt lat="44.51491" lon="6.30971">
        <ele>857.909</ele>
        <time>2021-08-02T14:57:51Z</time>
      </trkpt>
      <trkpt lat="44.51495" lon="6.30965">
        <ele>856.853</ele>
        <time>2021-08-02T14:57:56Z</time>
      </trkpt>
      <trkpt lat="44.51495" lon="6.3096">
        <ele>855.788</ele>
        <time>2021-08-02T14:58:01Z</time>
      </trkpt>
      <trkpt lat="44.51494" lon="6.30956">
        <ele>855.528</ele>
        <time>2021-08-02T14:58:04Z</time>
      </trkpt>
      <trkpt lat="44.51494" lon="6.30952">
        <ele>854.815</ele>
        <time>2021-08-02T14:58:07Z</time>
      </trkpt>
      <trkpt lat="44.51496" lon="6.30946">
        <ele>854.085</ele>
        <time>2021-08-02T14:58:12Z</time>
      </trkpt>
      <trkpt lat="44.51496" lon="6.30946">
        <ele>853.935</ele>
        <time>2021-08-02T14:58:13Z</time>
      </trkpt>
      <trkpt lat="44.51496" lon="6.30946">
        <ele>853.935</ele>
        <time>2021-08-02T14:58:13Z</time>
      </trkpt>
      <trkpt lat="44.51497" lon="6.30946">
        <ele>853.976</ele>
        <time>2021-08-02T14:58:14Z</time>
      </trkpt>
      <trkpt lat="44.51497" lon="6.30946">
        <ele>853.974</ele>
        <time>2021-08-02T14:58:15Z</time>
      </trkpt>
      <trkpt lat="44.51497" lon="6.30946">
        <ele>853.974</ele>
        <time>2021-08-02T14:58:21Z</time>
      </trkpt>
      <trkpt lat="44.51497" lon="6.30946">
        <ele>853.701</ele>
        <time>2021-08-02T14:58:22Z</time>
      </trkpt>
      <trkpt lat="44.51497" lon="6.30945">
        <ele>853.224</ele>
        <time>2021-08-02T14:58:24Z</time>
      </trkpt>
      <trkpt lat="44.51497" lon="6.30945">
        <ele>853.199</ele>
        <time>2021-08-02T14:58:25Z</time>
      </trkpt>
      <trkpt lat="44.51497" lon="6.30945">
        <ele>853.183</ele>
        <time>2021-08-02T14:58:33Z</time>
      </trkpt>
      <trkpt lat="44.51497" lon="6.30945">
        <ele>852.967</ele>
        <time>2021-08-02T14:58:34Z</time>
      </trkpt>
      <trkpt lat="44.51498" lon="6.30944">
        <ele>852.791</ele>
        <time>2021-08-02T14:58:36Z</time>
      </trkpt>
      <trkpt lat="44.51498" lon="6.30944">
        <ele>852.103</ele>
        <time>2021-08-02T14:58:37Z</time>
      </trkpt>
      <trkpt lat="44.51495" lon="6.3094">
        <ele>851.112</ele>
        <time>2021-08-02T14:58:43Z</time>
      </trkpt>
      <trkpt lat="44.51493" lon="6.30938">
        <ele>850.05</ele>
        <time>2021-08-02T14:58:46Z</time>
      </trkpt>
      <trkpt lat="44.51492" lon="6.30938">
        <ele>848.539</ele>
        <time>2021-08-02T14:58:49Z</time>
      </trkpt>
      <trkpt lat="44.51491" lon="6.30934">
        <ele>848.877</ele>
        <time>2021-08-02T14:58:53Z</time>
      </trkpt>
      <trkpt lat="44.51489" lon="6.30932">
        <ele>848.568</ele>
        <time>2021-08-02T14:58:56Z</time>
      </trkpt>
      <trkpt lat="44.51485" lon="6.3093">
        <ele>849.546</ele>
        <time>2021-08-02T14:59:00Z</time>
      </trkpt>
      <trkpt lat="44.51484" lon="6.30926">
        <ele>849.052</ele>
        <time>2021-08-02T14:59:03Z</time>
      </trkpt>
      <trkpt lat="44.51484" lon="6.3092">
        <ele>847.533</ele>
        <time>2021-08-02T14:59:07Z</time>
      </trkpt>
      <trkpt lat="44.51484" lon="6.30919">
        <ele>847.083</ele>
        <time>2021-08-02T14:59:08Z</time>
      </trkpt>
      <trkpt lat="44.51484" lon="6.30919">
        <ele>847.065</ele>
        <time>2021-08-02T14:59:09Z</time>
      </trkpt>
      <trkpt lat="44.51484" lon="6.30919">
        <ele>846.872</ele>
        <time>2021-08-02T14:59:20Z</time>
      </trkpt>
      <trkpt lat="44.51482" lon="6.30918">
        <ele>846.769</ele>
        <time>2021-08-02T14:59:21Z</time>
      </trkpt>
      <trkpt lat="44.51481" lon="6.30917">
        <ele>846.356</ele>
        <time>2021-08-02T14:59:22Z</time>
      </trkpt>
      <trkpt lat="44.51479" lon="6.30911">
        <ele>845.75</ele>
        <time>2021-08-02T14:59:26Z</time>
      </trkpt>
      <trkpt lat="44.51474" lon="6.30905">
        <ele>843.899</ele>
        <time>2021-08-02T14:59:32Z</time>
      </trkpt>
      <trkpt lat="44.51474" lon="6.30898">
        <ele>843.585</ele>
        <time>2021-08-02T14:59:37Z</time>
      </trkpt>
      <trkpt lat="44.5147" lon="6.30891">
        <ele>843.41</ele>
        <time>2021-08-02T14:59:42Z</time>
      </trkpt>
      <trkpt lat="44.51468" lon="6.30887">
        <ele>842.986</ele>
        <time>2021-08-02T14:59:47Z</time>
      </trkpt>
      <trkpt lat="44.51468" lon="6.30887">
        <ele>842.565</ele>
        <time>2021-08-02T14:59:48Z</time>
      </trkpt>
      <trkpt lat="44.51468" lon="6.30887">
        <ele>842.94</ele>
        <time>2021-08-02T14:59:58Z</time>
      </trkpt>
      <trkpt lat="44.51468" lon="6.30888">
        <ele>842.996</ele>
        <time>2021-08-02T14:59:59Z</time>
      </trkpt>
      <trkpt lat="44.51468" lon="6.30889">
        <ele>842.963</ele>
        <time>2021-08-02T15:00:00Z</time>
      </trkpt>
      <trkpt lat="44.51472" lon="6.30901">
        <ele>842.584</ele>
        <time>2021-08-02T15:00:10Z</time>
      </trkpt>
      <trkpt lat="44.51475" lon="6.30909">
        <ele>842.099</ele>
        <time>2021-08-02T15:00:16Z</time>
      </trkpt>
      <trkpt lat="44.51479" lon="6.30913">
        <ele>842.713</ele>
        <time>2021-08-02T15:00:22Z</time>
      </trkpt>
      <trkpt lat="44.51484" lon="6.30924">
        <ele>844.144</ele>
        <time>2021-08-02T15:00:32Z</time>
      </trkpt>
      <trkpt lat="44.51486" lon="6.30929">
        <ele>844.585</ele>
        <time>2021-08-02T15:00:36Z</time>
      </trkpt>
      <trkpt lat="44.51489" lon="6.30934">
        <ele>844.738</ele>
        <time>2021-08-02T15:00:40Z</time>
      </trkpt>
      <trkpt lat="44.51502" lon="6.30942">
        <ele>844.892</ele>
        <time>2021-08-02T15:00:55Z</time>
      </trkpt>
      <trkpt lat="44.51505" lon="6.30945">
        <ele>844.986</ele>
        <time>2021-08-02T15:00:58Z</time>
      </trkpt>
      <trkpt lat="44.51519" lon="6.30946">
        <ele>845.423</ele>
        <time>2021-08-02T15:01:14Z</time>
      </trkpt>
      <trkpt lat="44.51519" lon="6.30946">
        <ele>845.4</ele>
        <time>2021-08-02T15:01:15Z</time>
      </trkpt>
      <trkpt lat="44.51519" lon="6.30947">
        <ele>845.731</ele>
        <time>2021-08-02T15:01:16Z</time>
      </trkpt>
      <trkpt lat="44.5152" lon="6.30947">
        <ele>845.657</ele>
        <time>2021-08-02T15:01:17Z</time>
      </trkpt>
      <trkpt lat="44.51534" lon="6.30946">
        <ele>844.797</ele>
        <time>2021-08-02T15:01:29Z</time>
      </trkpt>
      <trkpt lat="44.51536" lon="6.30939">
        <ele>845.162</ele>
        <time>2021-08-02T15:01:36Z</time>
      </trkpt>
      <trkpt lat="44.51536" lon="6.30931">
        <ele>844.999</ele>
        <time>2021-08-02T15:01:42Z</time>
      </trkpt>
      <trkpt lat="44.51537" lon="6.30922">
        <ele>844.412</ele>
        <time>2021-08-02T15:01:48Z</time>
      </trkpt>
      <trkpt lat="44.5154" lon="6.30917">
        <ele>844.08</ele>
        <time>2021-08-02T15:01:51Z</time>
      </trkpt>
      <trkpt lat="44.51548" lon="6.3091">
        <ele>843.634</ele>
        <time>2021-08-02T15:01:59Z</time>
      </trkpt>
      <trkpt lat="44.5155" lon="6.30905">
        <ele>843.585</ele>
        <time>2021-08-02T15:02:02Z</time>
      </trkpt>
      <trkpt lat="44.5155" lon="6.30901">
        <ele>843.454</ele>
        <time>2021-08-02T15:02:04Z</time>
      </trkpt>
      <trkpt lat="44.51548" lon="6.30897">
        <ele>843.296</ele>
        <time>2021-08-02T15:02:06Z</time>
      </trkpt>
      <trkpt lat="44.51543" lon="6.30886">
        <ele>843.135</ele>
        <time>2021-08-02T15:02:13Z</time>
      </trkpt>
      <trkpt lat="44.5155" lon="6.3087">
        <ele>840.997</ele>
        <time>2021-08-02T15:02:22Z</time>
      </trkpt>
      <trkpt lat="44.51568" lon="6.3085">
        <ele>838.866</ele>
        <time>2021-08-02T15:02:38Z</time>
      </trkpt>
      <trkpt lat="44.51574" lon="6.30847">
        <ele>838.475</ele>
        <time>2021-08-02T15:02:44Z</time>
      </trkpt>
      <trkpt lat="44.51574" lon="6.30842">
        <ele>837.922</ele>
        <time>2021-08-02T15:02:46Z</time>
      </trkpt>
      <trkpt lat="44.51573" lon="6.30824">
        <ele>837.775</ele>
        <time>2021-08-02T15:02:57Z</time>
      </trkpt>
      <trkpt lat="44.51574" lon="6.30813">
        <ele>837.226</ele>
        <time>2021-08-02T15:03:03Z</time>
      </trkpt>
      <trkpt lat="44.51573" lon="6.30801">
        <ele>835.216</ele>
        <time>2021-08-02T15:03:10Z</time>
      </trkpt>
      <trkpt lat="44.51575" lon="6.30797">
        <ele>834.788</ele>
        <time>2021-08-02T15:03:12Z</time>
      </trkpt>
      <trkpt lat="44.51584" lon="6.30778">
        <ele>833.574</ele>
        <time>2021-08-02T15:03:25Z</time>
      </trkpt>
      <trkpt lat="44.51584" lon="6.30778">
        <ele>833.574</ele>
        <time>2021-08-02T15:03:25Z</time>
      </trkpt>
      <trkpt lat="44.51584" lon="6.30778">
        <ele>833.671</ele>
        <time>2021-08-02T15:03:26Z</time>
      </trkpt>
      <trkpt lat="44.51584" lon="6.30778">
        <ele>833.671</ele>
        <time>2021-08-02T15:03:26Z</time>
      </trkpt>
      <trkpt lat="44.51583" lon="6.30777">
        <ele>833.645</ele>
        <time>2021-08-02T15:03:27Z</time>
      </trkpt>
      <trkpt lat="44.51583" lon="6.30777">
        <ele>833.645</ele>
        <time>2021-08-02T15:03:27Z</time>
      </trkpt>
      <trkpt lat="44.51584" lon="6.30776">
        <ele>833.729</ele>
        <time>2021-08-02T15:03:28Z</time>
      </trkpt>
      <trkpt lat="44.51584" lon="6.30775">
        <ele>833.793</ele>
        <time>2021-08-02T15:03:29Z</time>
      </trkpt>
      <trkpt lat="44.51587" lon="6.30773">
        <ele>833.831</ele>
        <time>2021-08-02T15:03:31Z</time>
      </trkpt>
      <trkpt lat="44.51593" lon="6.30767">
        <ele>833.642</ele>
        <time>2021-08-02T15:03:36Z</time>
      </trkpt>
      <trkpt lat="44.51594" lon="6.30763">
        <ele>833.217</ele>
        <time>2021-08-02T15:03:38Z</time>
      </trkpt>
      <trkpt lat="44.51599" lon="6.30731">
        <ele>832.589</ele>
        <time>2021-08-02T15:03:55Z</time>
      </trkpt>
      <trkpt lat="44.51602" lon="6.30724">
        <ele>830.709</ele>
        <time>2021-08-02T15:03:59Z</time>
      </trkpt>
      <trkpt lat="44.51605" lon="6.30722">
        <ele>829.88</ele>
        <time>2021-08-02T15:04:01Z</time>
      </trkpt>
      <trkpt lat="44.51614" lon="6.30725">
        <ele>829.69</ele>
        <time>2021-08-02T15:04:08Z</time>
      </trkpt>
      <trkpt lat="44.5162" lon="6.30727">
        <ele>829.132</ele>
        <time>2021-08-02T15:04:13Z</time>
      </trkpt>
      <trkpt lat="44.51628" lon="6.30727">
        <ele>828.897</ele>
        <time>2021-08-02T15:04:21Z</time>
      </trkpt>
      <trkpt lat="44.51629" lon="6.30727">
        <ele>828.748</ele>
        <time>2021-08-02T15:04:22Z</time>
      </trkpt>
      <trkpt lat="44.5163" lon="6.30722">
        <ele>828.56</ele>
        <time>2021-08-02T15:04:26Z</time>
      </trkpt>
      <trkpt lat="44.51627" lon="6.30716">
        <ele>828.1</ele>
        <time>2021-08-02T15:04:30Z</time>
      </trkpt>
      <trkpt lat="44.51622" lon="6.3071">
        <ele>827.93</ele>
        <time>2021-08-02T15:04:35Z</time>
      </trkpt>
      <trkpt lat="44.51623" lon="6.30688">
        <ele>826.468</ele>
        <time>2021-08-02T15:04:50Z</time>
      </trkpt>
      <trkpt lat="44.51628" lon="6.30688">
        <ele>826.558</ele>
        <time>2021-08-02T15:04:54Z</time>
      </trkpt>
      <trkpt lat="44.51634" lon="6.3069">
        <ele>826.575</ele>
        <time>2021-08-02T15:05:00Z</time>
      </trkpt>
      <trkpt lat="44.51634" lon="6.3069">
        <ele>825.813</ele>
        <time>2021-08-02T15:05:03Z</time>
      </trkpt>
      <trkpt lat="44.51636" lon="6.3069">
        <ele>825.77</ele>
        <time>2021-08-02T15:05:04Z</time>
      </trkpt>
      <trkpt lat="44.51637" lon="6.3069">
        <ele>825.648</ele>
        <time>2021-08-02T15:05:05Z</time>
      </trkpt>
      <trkpt lat="44.51644" lon="6.30688">
        <ele>825.861</ele>
        <time>2021-08-02T15:05:11Z</time>
      </trkpt>
      <trkpt lat="44.51646" lon="6.30689">
        <ele>825.768</ele>
        <time>2021-08-02T15:05:14Z</time>
      </trkpt>
      <trkpt lat="44.51646" lon="6.30689">
        <ele>825.613</ele>
        <time>2021-08-02T15:05:15Z</time>
      </trkpt>
      <trkpt lat="44.51646" lon="6.30689">
        <ele>825.82</ele>
        <time>2021-08-02T15:05:17Z</time>
      </trkpt>
      <trkpt lat="44.51646" lon="6.30689">
        <ele>825.889</ele>
        <time>2021-08-02T15:05:19Z</time>
      </trkpt>
      <trkpt lat="44.51646" lon="6.30688">
        <ele>825.929</ele>
        <time>2021-08-02T15:05:20Z</time>
      </trkpt>
      <trkpt lat="44.51646" lon="6.30688">
        <ele>826.103</ele>
        <time>2021-08-02T15:05:21Z</time>
      </trkpt>
      <trkpt lat="44.51646" lon="6.30688">
        <ele>825.831</ele>
        <time>2021-08-02T15:05:23Z</time>
      </trkpt>
      <trkpt lat="44.51647" lon="6.30688">
        <ele>825.475</ele>
        <time>2021-08-02T15:05:24Z</time>
      </trkpt>
      <trkpt lat="44.5165" lon="6.30686">
        <ele>825.744</ele>
        <time>2021-08-02T15:05:27Z</time>
      </trkpt>
      <trkpt lat="44.51654" lon="6.30683">
        <ele>826.73</ele>
        <time>2021-08-02T15:05:33Z</time>
      </trkpt>
      <trkpt lat="44.51656" lon="6.30683">
        <ele>826.969</ele>
        <time>2021-08-02T15:05:35Z</time>
      </trkpt>
      <trkpt lat="44.51656" lon="6.30682">
        <ele>826.956</ele>
        <time>2021-08-02T15:05:36Z</time>
      </trkpt>
      <trkpt lat="44.51657" lon="6.30678">
        <ele>826.232</ele>
        <time>2021-08-02T15:05:40Z</time>
      </trkpt>
      <trkpt lat="44.51657" lon="6.30678">
        <ele>825.825</ele>
        <time>2021-08-02T15:05:42Z</time>
      </trkpt>
      <trkpt lat="44.51657" lon="6.30678">
        <ele>825.825</ele>
        <time>2021-08-02T15:05:42Z</time>
      </trkpt>
      <trkpt lat="44.51657" lon="6.30678">
        <ele>825.616</ele>
        <time>2021-08-02T15:05:43Z</time>
      </trkpt>
      <trkpt lat="44.51657" lon="6.30678">
        <ele>825.616</ele>
        <time>2021-08-02T15:05:43Z</time>
      </trkpt>
      <trkpt lat="44.51656" lon="6.30678">
        <ele>825.48</ele>
        <time>2021-08-02T15:05:44Z</time>
      </trkpt>
      <trkpt lat="44.51656" lon="6.30678">
        <ele>825.48</ele>
        <time>2021-08-02T15:05:44Z</time>
      </trkpt>
      <trkpt lat="44.51656" lon="6.30678">
        <ele>825.234</ele>
        <time>2021-08-02T15:05:45Z</time>
      </trkpt>
      <trkpt lat="44.51654" lon="6.30675">
        <ele>825.064</ele>
        <time>2021-08-02T15:05:48Z</time>
      </trkpt>
      <trkpt lat="44.51652" lon="6.3067">
        <ele>825.427</ele>
        <time>2021-08-02T15:05:52Z</time>
      </trkpt>
      <trkpt lat="44.5165" lon="6.30666">
        <ele>824.958</ele>
        <time>2021-08-02T15:05:56Z</time>
      </trkpt>
      <trkpt lat="44.51649" lon="6.30665">
        <ele>824.843</ele>
        <time>2021-08-02T15:05:58Z</time>
      </trkpt>
      <trkpt lat="44.51649" lon="6.30665">
        <ele>824.843</ele>
        <time>2021-08-02T15:05:58Z</time>
      </trkpt>
      <trkpt lat="44.51649" lon="6.30665">
        <ele>824.924</ele>
        <time>2021-08-02T15:05:59Z</time>
      </trkpt>
      <trkpt lat="44.51648" lon="6.30664">
        <ele>824.737</ele>
        <time>2021-08-02T15:06:01Z</time>
      </trkpt>
      <trkpt lat="44.51645" lon="6.30663">
        <ele>824.422</ele>
        <time>2021-08-02T15:06:04Z</time>
      </trkpt>
      <trkpt lat="44.51642" lon="6.30662">
        <ele>824.223</ele>
        <time>2021-08-02T15:06:06Z</time>
      </trkpt>
      <trkpt lat="44.51636" lon="6.30658">
        <ele>824.41</ele>
        <time>2021-08-02T15:06:10Z</time>
      </trkpt>
      <trkpt lat="44.51627" lon="6.30646">
        <ele>825.405</ele>
        <time>2021-08-02T15:06:20Z</time>
      </trkpt>
      <trkpt lat="44.51621" lon="6.30638">
        <ele>825.675</ele>
        <time>2021-08-02T15:06:29Z</time>
      </trkpt>
      <trkpt lat="44.51619" lon="6.30636">
        <ele>825.812</ele>
        <time>2021-08-02T15:06:32Z</time>
      </trkpt>
      <trkpt lat="44.51616" lon="6.30634">
        <ele>825.775</ele>
        <time>2021-08-02T15:06:35Z</time>
      </trkpt>
      <trkpt lat="44.51613" lon="6.30631">
        <ele>825.657</ele>
        <time>2021-08-02T15:06:38Z</time>
      </trkpt>
      <trkpt lat="44.51609" lon="6.30627">
        <ele>826.099</ele>
        <time>2021-08-02T15:06:42Z</time>
      </trkpt>
      <trkpt lat="44.51607" lon="6.30621">
        <ele>825.771</ele>
        <time>2021-08-02T15:06:48Z</time>
      </trkpt>
      <trkpt lat="44.51601" lon="6.30617">
        <ele>826.385</ele>
        <time>2021-08-02T15:06:55Z</time>
      </trkpt>
      <trkpt lat="44.51599" lon="6.30615">
        <ele>826.246</ele>
        <time>2021-08-02T15:06:58Z</time>
      </trkpt>
      <trkpt lat="44.51596" lon="6.30612">
        <ele>826.632</ele>
        <time>2021-08-02T15:07:01Z</time>
      </trkpt>
      <trkpt lat="44.51588" lon="6.30608">
        <ele>827.482</ele>
        <time>2021-08-02T15:07:09Z</time>
      </trkpt>
      <trkpt lat="44.51579" lon="6.30601">
        <ele>829.574</ele>
        <time>2021-08-02T15:07:19Z</time>
      </trkpt>
      <trkpt lat="44.51578" lon="6.30601">
        <ele>829.541</ele>
        <time>2021-08-02T15:07:20Z</time>
      </trkpt>
      <trkpt lat="44.51578" lon="6.30601">
        <ele>829.882</ele>
        <time>2021-08-02T15:07:21Z</time>
      </trkpt>
      <trkpt lat="44.51578" lon="6.30601">
        <ele>829.882</ele>
        <time>2021-08-02T15:07:21Z</time>
      </trkpt>
      <trkpt lat="44.51578" lon="6.30601">
        <ele>829.929</ele>
        <time>2021-08-02T15:07:22Z</time>
      </trkpt>
      <trkpt lat="44.51578" lon="6.30601">
        <ele>829.929</ele>
        <time>2021-08-02T15:07:22Z</time>
      </trkpt>
      <trkpt lat="44.51578" lon="6.30601">
        <ele>830.004</ele>
        <time>2021-08-02T15:07:23Z</time>
      </trkpt>
      <trkpt lat="44.51578" lon="6.30601">
        <ele>830.894</ele>
        <time>2021-08-02T15:07:33Z</time>
      </trkpt>
      <trkpt lat="44.51578" lon="6.30604">
        <ele>830.989</ele>
        <time>2021-08-02T15:07:34Z</time>
      </trkpt>
      <trkpt lat="44.51578" lon="6.30603">
        <ele>831.093</ele>
        <time>2021-08-02T15:07:35Z</time>
      </trkpt>
      <trkpt lat="44.51578" lon="6.30602">
        <ele>832.026</ele>
        <time>2021-08-02T15:07:37Z</time>
      </trkpt>
      <trkpt lat="44.51577" lon="6.30602">
        <ele>832.202</ele>
        <time>2021-08-02T15:07:40Z</time>
      </trkpt>
      <trkpt lat="44.51577" lon="6.30602">
        <ele>832.635</ele>
        <time>2021-08-02T15:08:25Z</time>
      </trkpt>
      <trkpt lat="44.51578" lon="6.30604">
        <ele>833.228</ele>
        <time>2021-08-02T15:08:26Z</time>
      </trkpt>
      <trkpt lat="44.51578" lon="6.30604">
        <ele>833.252</ele>
        <time>2021-08-02T15:08:27Z</time>
      </trkpt>
      <trkpt lat="44.51578" lon="6.30604">
        <ele>833.415</ele>
        <time>2021-08-02T15:09:12Z</time>
      </trkpt>
      <trkpt lat="44.51579" lon="6.30604">
        <ele>833.644</ele>
        <time>2021-08-02T15:09:13Z</time>
      </trkpt>
      <trkpt lat="44.51581" lon="6.30603">
        <ele>833.685</ele>
        <time>2021-08-02T15:09:14Z</time>
      </trkpt>
      <trkpt lat="44.51604" lon="6.30596">
        <ele>835.516</ele>
        <time>2021-08-02T15:09:33Z</time>
      </trkpt>
      <trkpt lat="44.51612" lon="6.30595">
        <ele>835.194</ele>
        <time>2021-08-02T15:09:40Z</time>
      </trkpt>
      <trkpt lat="44.51616" lon="6.30595">
        <ele>835.438</ele>
        <time>2021-08-02T15:09:43Z</time>
      </trkpt>
      <trkpt lat="44.51616" lon="6.30594">
        <ele>835.061</ele>
        <time>2021-08-02T15:09:44Z</time>
      </trkpt>
      <trkpt lat="44.51616" lon="6.30594">
        <ele>834.977</ele>
        <time>2021-08-02T15:09:45Z</time>
      </trkpt>
      <trkpt lat="44.51616" lon="6.30594">
        <ele>834.837</ele>
        <time>2021-08-02T15:09:46Z</time>
      </trkpt>
      <trkpt lat="44.51616" lon="6.30594">
        <ele>834.837</ele>
        <time>2021-08-02T15:09:46Z</time>
      </trkpt>
      <trkpt lat="44.51616" lon="6.30595">
        <ele>834.756</ele>
        <time>2021-08-02T15:09:47Z</time>
      </trkpt>
      <trkpt lat="44.51615" lon="6.30595">
        <ele>834.78</ele>
        <time>2021-08-02T15:09:48Z</time>
      </trkpt>
      <trkpt lat="44.51614" lon="6.30595">
        <ele>835.148</ele>
        <time>2021-08-02T15:09:50Z</time>
      </trkpt>
      <trkpt lat="44.51614" lon="6.30595">
        <ele>835.329</ele>
        <time>2021-08-02T15:10:15Z</time>
      </trkpt>
      <trkpt lat="44.51619" lon="6.30596">
        <ele>835.705</ele>
        <time>2021-08-02T15:10:16Z</time>
      </trkpt>
      <trkpt lat="44.5162" lon="6.30596">
        <ele>836.078</ele>
        <time>2021-08-02T15:10:18Z</time>
      </trkpt>
      <trkpt lat="44.51628" lon="6.30596">
        <ele>836.591</ele>
        <time>2021-08-02T15:10:23Z</time>
      </trkpt>
      <trkpt lat="44.5163" lon="6.30596">
        <ele>836.431</ele>
        <time>2021-08-02T15:10:25Z</time>
      </trkpt>
      <trkpt lat="44.51651" lon="6.30605">
        <ele>838.586</ele>
        <time>2021-08-02T15:10:49Z</time>
      </trkpt>
      <trkpt lat="44.51664" lon="6.30609">
        <ele>838.614</ele>
        <time>2021-08-02T15:10:59Z</time>
      </trkpt>
      <trkpt lat="44.51664" lon="6.30609">
        <ele>838.614</ele>
        <time>2021-08-02T15:10:59Z</time>
      </trkpt>
      <trkpt lat="44.51665" lon="6.30609">
        <ele>838.876</ele>
        <time>2021-08-02T15:11:00Z</time>
      </trkpt>
      <trkpt lat="44.51665" lon="6.30609">
        <ele>839.185</ele>
        <time>2021-08-02T15:11:01Z</time>
      </trkpt>
      <trkpt lat="44.51665" lon="6.30609">
        <ele>839.04</ele>
        <time>2021-08-02T15:11:04Z</time>
      </trkpt>
      <trkpt lat="44.51666" lon="6.30609">
        <ele>839.193</ele>
        <time>2021-08-02T15:11:05Z</time>
      </trkpt>
      <trkpt lat="44.51666" lon="6.3061">
        <ele>839.018</ele>
        <time>2021-08-02T15:11:06Z</time>
      </trkpt>
      <trkpt lat="44.51666" lon="6.3061">
        <ele>838.967</ele>
        <time>2021-08-02T15:11:07Z</time>
      </trkpt>
      <trkpt lat="44.51666" lon="6.3061">
        <ele>838.967</ele>
        <time>2021-08-02T15:11:07Z</time>
      </trkpt>
      <trkpt lat="44.51667" lon="6.3061">
        <ele>839.012</ele>
        <time>2021-08-02T15:11:08Z</time>
      </trkpt>
      <trkpt lat="44.51669" lon="6.3061">
        <ele>839.07</ele>
        <time>2021-08-02T15:11:11Z</time>
      </trkpt>
      <trkpt lat="44.51669" lon="6.3061">
        <ele>839.329</ele>
        <time>2021-08-02T15:11:12Z</time>
      </trkpt>
      <trkpt lat="44.51669" lon="6.3061">
        <ele>839.473</ele>
        <time>2021-08-02T15:11:13Z</time>
      </trkpt>
      <trkpt lat="44.51673" lon="6.30612">
        <ele>839.411</ele>
        <time>2021-08-02T15:11:17Z</time>
      </trkpt>
      <trkpt lat="44.51681" lon="6.30612">
        <ele>840.138</ele>
        <time>2021-08-02T15:11:27Z</time>
      </trkpt>
      <trkpt lat="44.51682" lon="6.30612">
        <ele>840.497</ele>
        <time>2021-08-02T15:11:28Z</time>
      </trkpt>
      <trkpt lat="44.51683" lon="6.30612">
        <ele>840.822</ele>
        <time>2021-08-02T15:11:29Z</time>
      </trkpt>
      <trkpt lat="44.51694" lon="6.30613">
        <ele>841.622</ele>
        <time>2021-08-02T15:11:38Z</time>
      </trkpt>
      <trkpt lat="44.51695" lon="6.30613">
        <ele>841.797</ele>
        <time>2021-08-02T15:11:40Z</time>
      </trkpt>
      <trkpt lat="44.51695" lon="6.30613">
        <ele>841.787</ele>
        <time>2021-08-02T15:11:42Z</time>
      </trkpt>
      <trkpt lat="44.51696" lon="6.30613">
        <ele>841.909</ele>
        <time>2021-08-02T15:11:43Z</time>
      </trkpt>
      <trkpt lat="44.51699" lon="6.30614">
        <ele>842.197</ele>
        <time>2021-08-02T15:11:46Z</time>
      </trkpt>
      <trkpt lat="44.51703" lon="6.30614">
        <ele>843.058</ele>
        <time>2021-08-02T15:11:50Z</time>
      </trkpt>
      <trkpt lat="44.51703" lon="6.30614">
        <ele>843.173</ele>
        <time>2021-08-02T15:11:51Z</time>
      </trkpt>
      <trkpt lat="44.51704" lon="6.30613">
        <ele>843.519</ele>
        <time>2021-08-02T15:11:53Z</time>
      </trkpt>
      <trkpt lat="44.51709" lon="6.30613">
        <ele>843.861</ele>
        <time>2021-08-02T15:11:59Z</time>
      </trkpt>
      <trkpt lat="44.51717" lon="6.30613">
        <ele>845.931</ele>
        <time>2021-08-02T15:12:08Z</time>
      </trkpt>
      <trkpt lat="44.51719" lon="6.30612">
        <ele>846.03</ele>
        <time>2021-08-02T15:12:12Z</time>
      </trkpt>
      <trkpt lat="44.51719" lon="6.30612">
        <ele>847.608</ele>
        <time>2021-08-02T15:12:20Z</time>
      </trkpt>
      <trkpt lat="44.51719" lon="6.3061">
        <ele>847.64</ele>
        <time>2021-08-02T15:12:21Z</time>
      </trkpt>
      <trkpt lat="44.5172" lon="6.30609">
        <ele>847.174</ele>
        <time>2021-08-02T15:12:23Z</time>
      </trkpt>
      <trkpt lat="44.5172" lon="6.30609">
        <ele>847.174</ele>
        <time>2021-08-02T15:12:23Z</time>
      </trkpt>
      <trkpt lat="44.5172" lon="6.30609">
        <ele>847.573</ele>
        <time>2021-08-02T15:12:24Z</time>
      </trkpt>
      <trkpt lat="44.51721" lon="6.30608">
        <ele>848.015</ele>
        <time>2021-08-02T15:12:25Z</time>
      </trkpt>
      <trkpt lat="44.51721" lon="6.30608">
        <ele>847.555</ele>
        <time>2021-08-02T15:12:26Z</time>
      </trkpt>
      <trkpt lat="44.51721" lon="6.30608">
        <ele>847.555</ele>
        <time>2021-08-02T15:12:26Z</time>
      </trkpt>
      <trkpt lat="44.51721" lon="6.30608">
        <ele>847.38</ele>
        <time>2021-08-02T15:12:27Z</time>
      </trkpt>
      <trkpt lat="44.51721" lon="6.30608">
        <ele>847.38</ele>
        <time>2021-08-02T15:12:27Z</time>
      </trkpt>
      <trkpt lat="44.51721" lon="6.30609">
        <ele>847.444</ele>
        <time>2021-08-02T15:12:28Z</time>
      </trkpt>
      <trkpt lat="44.51721" lon="6.3061">
        <ele>847.45</ele>
        <time>2021-08-02T15:12:30Z</time>
      </trkpt>
      <trkpt lat="44.51721" lon="6.3061">
        <ele>848.122</ele>
        <time>2021-08-02T15:12:31Z</time>
      </trkpt>
      <trkpt lat="44.51721" lon="6.3061">
        <ele>848.122</ele>
        <time>2021-08-02T15:12:31Z</time>
      </trkpt>
      <trkpt lat="44.51721" lon="6.3061">
        <ele>848.196</ele>
        <time>2021-08-02T15:12:32Z</time>
      </trkpt>
      <trkpt lat="44.51721" lon="6.3061">
        <ele>848.196</ele>
        <time>2021-08-02T15:12:32Z</time>
      </trkpt>
      <trkpt lat="44.51721" lon="6.3061">
        <ele>848.757</ele>
        <time>2021-08-02T15:12:33Z</time>
      </trkpt>
      <trkpt lat="44.51721" lon="6.3061">
        <ele>848.757</ele>
        <time>2021-08-02T15:12:33Z</time>
      </trkpt>
      <trkpt lat="44.51721" lon="6.3061">
        <ele>849.185</ele>
        <time>2021-08-02T15:12:34Z</time>
      </trkpt>
      <trkpt lat="44.51721" lon="6.3061">
        <ele>849.172</ele>
        <time>2021-08-02T15:12:35Z</time>
      </trkpt>
      <trkpt lat="44.51721" lon="6.3061">
        <ele>849.727</ele>
        <time>2021-08-02T15:12:36Z</time>
      </trkpt>
      <trkpt lat="44.51721" lon="6.3061">
        <ele>849.727</ele>
        <time>2021-08-02T15:12:36Z</time>
      </trkpt>
      <trkpt lat="44.51721" lon="6.3061">
        <ele>849.904</ele>
        <time>2021-08-02T15:12:37Z</time>
      </trkpt>
      <trkpt lat="44.51721" lon="6.3061">
        <ele>849.904</ele>
        <time>2021-08-02T15:12:37Z</time>
      </trkpt>
      <trkpt lat="44.51721" lon="6.3061">
        <ele>850.445</ele>
        <time>2021-08-02T15:12:38Z</time>
      </trkpt>
      <trkpt lat="44.51721" lon="6.3061">
        <ele>850.445</ele>
        <time>2021-08-02T15:12:38Z</time>
      </trkpt>
      <trkpt lat="44.51721" lon="6.30609">
        <ele>850.507</ele>
        <time>2021-08-02T15:12:39Z</time>
      </trkpt>
      <trkpt lat="44.5172" lon="6.30608">
        <ele>851.309</ele>
        <time>2021-08-02T15:12:41Z</time>
      </trkpt>
      <trkpt lat="44.5172" lon="6.30608">
        <ele>851.333</ele>
        <time>2021-08-02T15:12:42Z</time>
      </trkpt>
      <trkpt lat="44.5172" lon="6.30609">
        <ele>851.381</ele>
        <time>2021-08-02T15:12:43Z</time>
      </trkpt>
      <trkpt lat="44.5172" lon="6.30609">
        <ele>851.502</ele>
        <time>2021-08-02T15:12:44Z</time>
      </trkpt>
      <trkpt lat="44.5172" lon="6.30609">
        <ele>853.578</ele>
        <time>2021-08-02T15:20:46Z</time>
      </trkpt>
      <trkpt lat="44.51722" lon="6.30611">
        <ele>854.121</ele>
        <time>2021-08-02T15:20:47Z</time>
      </trkpt>
      <trkpt lat="44.51722" lon="6.30611">
        <ele>854.285</ele>
        <time>2021-08-02T15:20:48Z</time>
      </trkpt>
      <trkpt lat="44.51723" lon="6.30611">
        <ele>853.578</ele>
        <time>2021-08-02T15:20:49Z</time>
      </trkpt>
      <trkpt lat="44.51725" lon="6.3061">
        <ele>853.397</ele>
        <time>2021-08-02T15:20:50Z</time>
      </trkpt>
      <trkpt lat="44.51727" lon="6.30609">
        <ele>854.153</ele>
        <time>2021-08-02T15:20:51Z</time>
      </trkpt>
      <trkpt lat="44.5173" lon="6.30606">
        <ele>854.015</ele>
        <time>2021-08-02T15:20:53Z</time>
      </trkpt>
      <trkpt lat="44.51731" lon="6.30604">
        <ele>854.915</ele>
        <time>2021-08-02T15:20:55Z</time>
      </trkpt>
      <trkpt lat="44.51731" lon="6.30601">
        <ele>855.47</ele>
        <time>2021-08-02T15:20:59Z</time>
      </trkpt>
      <trkpt lat="44.51731" lon="6.30601">
        <ele>855.516</ele>
        <time>2021-08-02T15:21:18Z</time>
      </trkpt>
      <trkpt lat="44.5173" lon="6.30602">
        <ele>855.132</ele>
        <time>2021-08-02T15:21:19Z</time>
      </trkpt>
      <trkpt lat="44.5173" lon="6.30602">
        <ele>854.044</ele>
        <time>2021-08-02T15:21:20Z</time>
      </trkpt>
      <trkpt lat="44.5173" lon="6.30602">
        <ele>854.044</ele>
        <time>2021-08-02T15:21:20Z</time>
      </trkpt>
      <trkpt lat="44.5173" lon="6.30602">
        <ele>853.916</ele>
        <time>2021-08-02T15:21:21Z</time>
      </trkpt>
      <trkpt lat="44.5173" lon="6.30602">
        <ele>853.898</ele>
        <time>2021-08-02T15:21:22Z</time>
      </trkpt>
      <trkpt lat="44.51729" lon="6.30601">
        <ele>856.099</ele>
        <time>2021-08-02T15:21:28Z</time>
      </trkpt>
      <trkpt lat="44.51729" lon="6.30601">
        <ele>855.819</ele>
        <time>2021-08-02T15:21:29Z</time>
      </trkpt>
      <trkpt lat="44.51729" lon="6.30601">
        <ele>856.485</ele>
        <time>2021-08-02T15:21:30Z</time>
      </trkpt>
      <trkpt lat="44.51728" lon="6.30602">
        <ele>856.262</ele>
        <time>2021-08-02T15:21:31Z</time>
      </trkpt>
      <trkpt lat="44.51727" lon="6.30607">
        <ele>855.831</ele>
        <time>2021-08-02T15:21:33Z</time>
      </trkpt>
      <trkpt lat="44.51727" lon="6.30609">
        <ele>857.912</ele>
        <time>2021-08-02T15:21:35Z</time>
      </trkpt>
      <trkpt lat="44.51726" lon="6.3061">
        <ele>858.285</ele>
        <time>2021-08-02T15:21:36Z</time>
      </trkpt>
      <trkpt lat="44.51727" lon="6.3061">
        <ele>857.987</ele>
        <time>2021-08-02T15:21:37Z</time>
      </trkpt>
      <trkpt lat="44.51731" lon="6.30612">
        <ele>856.718</ele>
        <time>2021-08-02T15:21:39Z</time>
      </trkpt>
      <trkpt lat="44.51736" lon="6.30615">
        <ele>858.545</ele>
        <time>2021-08-02T15:21:42Z</time>
      </trkpt>
      <trkpt lat="44.51736" lon="6.30615">
        <ele>859.074</ele>
        <time>2021-08-02T15:21:44Z</time>
      </trkpt>
      <trkpt lat="44.51736" lon="6.30615">
        <ele>860.759</ele>
        <time>2021-08-02T15:22:13Z</time>
      </trkpt>
      <trkpt lat="44.51733" lon="6.30615">
        <ele>861.422</ele>
        <time>2021-08-02T15:22:14Z</time>
      </trkpt>
      <trkpt lat="44.51732" lon="6.30615">
        <ele>861.662</ele>
        <time>2021-08-02T15:22:17Z</time>
      </trkpt>
      <trkpt lat="44.51732" lon="6.30615">
        <ele>861.856</ele>
        <time>2021-08-02T15:22:19Z</time>
      </trkpt>
      <trkpt lat="44.51733" lon="6.30614">
        <ele>861.013</ele>
        <time>2021-08-02T15:22:20Z</time>
      </trkpt>
      <trkpt lat="44.51733" lon="6.30614">
        <ele>861.02</ele>
        <time>2021-08-02T15:22:21Z</time>
      </trkpt>
      <trkpt lat="44.51733" lon="6.30614">
        <ele>860.45</ele>
        <time>2021-08-02T15:22:44Z</time>
      </trkpt>
      <trkpt lat="44.51734" lon="6.30614">
        <ele>860.314</ele>
        <time>2021-08-02T15:22:45Z</time>
      </trkpt>
      <trkpt lat="44.51742" lon="6.30613">
        <ele>859.467</ele>
        <time>2021-08-02T15:22:55Z</time>
      </trkpt>
      <trkpt lat="44.51743" lon="6.30613">
        <ele>859.601</ele>
        <time>2021-08-02T15:22:56Z</time>
      </trkpt>
      <trkpt lat="44.51744" lon="6.30612">
        <ele>858.957</ele>
        <time>2021-08-02T15:22:57Z</time>
      </trkpt>
      <trkpt lat="44.51747" lon="6.30613">
        <ele>859.162</ele>
        <time>2021-08-02T15:23:00Z</time>
      </trkpt>
      <trkpt lat="44.5175" lon="6.30615">
        <ele>860.389</ele>
        <time>2021-08-02T15:23:02Z</time>
      </trkpt>
      <trkpt lat="44.51756" lon="6.30615">
        <ele>862.614</ele>
        <time>2021-08-02T15:23:08Z</time>
      </trkpt>
      <trkpt lat="44.51771" lon="6.30614">
        <ele>863.019</ele>
        <time>2021-08-02T15:23:23Z</time>
      </trkpt>
      <trkpt lat="44.51778" lon="6.30617">
        <ele>863.665</ele>
        <time>2021-08-02T15:23:28Z</time>
      </trkpt>
      <trkpt lat="44.51786" lon="6.30619">
        <ele>865.192</ele>
        <time>2021-08-02T15:23:37Z</time>
      </trkpt>
      <trkpt lat="44.51795" lon="6.30622">
        <ele>867.13</ele>
        <time>2021-08-02T15:23:48Z</time>
      </trkpt>
      <trkpt lat="44.518" lon="6.30621">
        <ele>867.272</ele>
        <time>2021-08-02T15:23:54Z</time>
      </trkpt>
      <trkpt lat="44.51809" lon="6.30619">
        <ele>868.341</ele>
        <time>2021-08-02T15:24:00Z</time>
      </trkpt>
      <trkpt lat="44.51809" lon="6.30619">
        <ele>868.606</ele>
        <time>2021-08-02T15:24:01Z</time>
      </trkpt>
      <trkpt lat="44.51809" lon="6.30619">
        <ele>868.418</ele>
        <time>2021-08-02T15:24:06Z</time>
      </trkpt>
      <trkpt lat="44.51809" lon="6.30619">
        <ele>868.509</ele>
        <time>2021-08-02T15:24:07Z</time>
      </trkpt>
      <trkpt lat="44.5181" lon="6.30619">
        <ele>868.785</ele>
        <time>2021-08-02T15:24:08Z</time>
      </trkpt>
      <trkpt lat="44.51814" lon="6.30618">
        <ele>868.572</ele>
        <time>2021-08-02T15:24:12Z</time>
      </trkpt>
      <trkpt lat="44.5182" lon="6.30616">
        <ele>869.051</ele>
        <time>2021-08-02T15:24:18Z</time>
      </trkpt>
      <trkpt lat="44.51824" lon="6.30614">
        <ele>869.526</ele>
        <time>2021-08-02T15:24:23Z</time>
      </trkpt>
      <trkpt lat="44.51831" lon="6.30614">
        <ele>870.67</ele>
        <time>2021-08-02T15:24:30Z</time>
      </trkpt>
      <trkpt lat="44.51831" lon="6.30614">
        <ele>871.186</ele>
        <time>2021-08-02T15:24:31Z</time>
      </trkpt>
      <trkpt lat="44.51831" lon="6.30614">
        <ele>871.186</ele>
        <time>2021-08-02T15:24:31Z</time>
      </trkpt>
      <trkpt lat="44.51832" lon="6.30614">
        <ele>871.616</ele>
        <time>2021-08-02T15:24:32Z</time>
      </trkpt>
      <trkpt lat="44.51833" lon="6.30614">
        <ele>871.829</ele>
        <time>2021-08-02T15:24:33Z</time>
      </trkpt>
      <trkpt lat="44.51854" lon="6.3062">
        <ele>873.344</ele>
        <time>2021-08-02T15:24:53Z</time>
      </trkpt>
      <trkpt lat="44.51858" lon="6.30622">
        <ele>874.028</ele>
        <time>2021-08-02T15:24:55Z</time>
      </trkpt>
      <trkpt lat="44.51869" lon="6.30627">
        <ele>876.042</ele>
        <time>2021-08-02T15:25:03Z</time>
      </trkpt>
      <trkpt lat="44.51873" lon="6.30631">
        <ele>876.39</ele>
        <time>2021-08-02T15:25:10Z</time>
      </trkpt>
      <trkpt lat="44.51888" lon="6.30638">
        <ele>877.469</ele>
        <time>2021-08-02T15:25:28Z</time>
      </trkpt>
      <trkpt lat="44.51896" lon="6.30648">
        <ele>877.913</ele>
        <time>2021-08-02T15:25:39Z</time>
      </trkpt>
      <trkpt lat="44.51896" lon="6.30648">
        <ele>878.584</ele>
        <time>2021-08-02T15:25:40Z</time>
      </trkpt>
      <trkpt lat="44.51896" lon="6.30648">
        <ele>878.639</ele>
        <time>2021-08-02T15:25:48Z</time>
      </trkpt>
      <trkpt lat="44.51898" lon="6.30649">
        <ele>878.73</ele>
        <time>2021-08-02T15:25:49Z</time>
      </trkpt>
      <trkpt lat="44.519" lon="6.3065">
        <ele>879.393</ele>
        <time>2021-08-02T15:25:51Z</time>
      </trkpt>
      <trkpt lat="44.51909" lon="6.30659">
        <ele>880.196</ele>
        <time>2021-08-02T15:25:59Z</time>
      </trkpt>
      <trkpt lat="44.51912" lon="6.30662">
        <ele>880.146</ele>
        <time>2021-08-02T15:26:01Z</time>
      </trkpt>
      <trkpt lat="44.51921" lon="6.30674">
        <ele>881.432</ele>
        <time>2021-08-02T15:26:12Z</time>
      </trkpt>
      <trkpt lat="44.51921" lon="6.30674">
        <ele>882.072</ele>
        <time>2021-08-02T15:26:13Z</time>
      </trkpt>
      <trkpt lat="44.51933" lon="6.30687">
        <ele>884.353</ele>
        <time>2021-08-02T15:26:24Z</time>
      </trkpt>
      <trkpt lat="44.51941" lon="6.30696">
        <ele>884.89</ele>
        <time>2021-08-02T15:26:34Z</time>
      </trkpt>
      <trkpt lat="44.51948" lon="6.30709">
        <ele>886.984</ele>
        <time>2021-08-02T15:26:45Z</time>
      </trkpt>
      <trkpt lat="44.51948" lon="6.30709">
        <ele>887.264</ele>
        <time>2021-08-02T15:27:08Z</time>
      </trkpt>
      <trkpt lat="44.51949" lon="6.3071">
        <ele>887.436</ele>
        <time>2021-08-02T15:27:09Z</time>
      </trkpt>
      <trkpt lat="44.51949" lon="6.3071">
        <ele>888.04</ele>
        <time>2021-08-02T15:27:10Z</time>
      </trkpt>
      <trkpt lat="44.51949" lon="6.3071">
        <ele>888.379</ele>
        <time>2021-08-02T15:27:11Z</time>
      </trkpt>
      <trkpt lat="44.51949" lon="6.3071">
        <ele>888.351</ele>
        <time>2021-08-02T15:27:27Z</time>
      </trkpt>
      <trkpt lat="44.5195" lon="6.30712">
        <ele>888.998</ele>
        <time>2021-08-02T15:27:28Z</time>
      </trkpt>
      <trkpt lat="44.5195" lon="6.30712">
        <ele>889.607</ele>
        <time>2021-08-02T15:27:29Z</time>
      </trkpt>
      <trkpt lat="44.5195" lon="6.30712">
        <ele>889.594</ele>
        <time>2021-08-02T15:27:31Z</time>
      </trkpt>
      <trkpt lat="44.5195" lon="6.30713">
        <ele>889.766</ele>
        <time>2021-08-02T15:27:32Z</time>
      </trkpt>
      <trkpt lat="44.51951" lon="6.30713">
        <ele>890.223</ele>
        <time>2021-08-02T15:27:33Z</time>
      </trkpt>
      <trkpt lat="44.51953" lon="6.30715">
        <ele>891.937</ele>
        <time>2021-08-02T15:27:36Z</time>
      </trkpt>
      <trkpt lat="44.51953" lon="6.3072">
        <ele>893.43</ele>
        <time>2021-08-02T15:27:39Z</time>
      </trkpt>
      <trkpt lat="44.51954" lon="6.30729">
        <ele>892.395</ele>
        <time>2021-08-02T15:27:45Z</time>
      </trkpt>
      <trkpt lat="44.51956" lon="6.30736">
        <ele>891.696</ele>
        <time>2021-08-02T15:27:49Z</time>
      </trkpt>
      <trkpt lat="44.51957" lon="6.30746">
        <ele>889.219</ele>
        <time>2021-08-02T15:27:54Z</time>
      </trkpt>
      <trkpt lat="44.51958" lon="6.3075">
        <ele>889.9</ele>
        <time>2021-08-02T15:27:57Z</time>
      </trkpt>
      <trkpt lat="44.5196" lon="6.30754">
        <ele>890.558</ele>
        <time>2021-08-02T15:27:59Z</time>
      </trkpt>
      <trkpt lat="44.5197" lon="6.30765">
        <ele>891.135</ele>
        <time>2021-08-02T15:28:10Z</time>
      </trkpt>
      <trkpt lat="44.51974" lon="6.30765">
        <ele>891.778</ele>
        <time>2021-08-02T15:28:14Z</time>
      </trkpt>
      <trkpt lat="44.5198" lon="6.30762">
        <ele>892.395</ele>
        <time>2021-08-02T15:28:20Z</time>
      </trkpt>
      <trkpt lat="44.51994" lon="6.30749">
        <ele>894.726</ele>
        <time>2021-08-02T15:28:36Z</time>
      </trkpt>
      <trkpt lat="44.52005" lon="6.30735">
        <ele>895.487</ele>
        <time>2021-08-02T15:28:49Z</time>
      </trkpt>
      <trkpt lat="44.52016" lon="6.30722">
        <ele>896.69</ele>
        <time>2021-08-02T15:29:01Z</time>
      </trkpt>
      <trkpt lat="44.52022" lon="6.30713">
        <ele>898.714</ele>
        <time>2021-08-02T15:29:08Z</time>
      </trkpt>
      <trkpt lat="44.52033" lon="6.30703">
        <ele>900.436</ele>
        <time>2021-08-02T15:29:18Z</time>
      </trkpt>
      <trkpt lat="44.52044" lon="6.30701">
        <ele>901.002</ele>
        <time>2021-08-02T15:29:28Z</time>
      </trkpt>
      <trkpt lat="44.5205" lon="6.30705">
        <ele>901.216</ele>
        <time>2021-08-02T15:29:33Z</time>
      </trkpt>
      <trkpt lat="44.52067" lon="6.30728">
        <ele>902.35</ele>
        <time>2021-08-02T15:29:50Z</time>
      </trkpt>
      <trkpt lat="44.52071" lon="6.30738">
        <ele>902.408</ele>
        <time>2021-08-02T15:29:56Z</time>
      </trkpt>
      <trkpt lat="44.52073" lon="6.3074">
        <ele>902.715</ele>
        <time>2021-08-02T15:29:58Z</time>
      </trkpt>
      <trkpt lat="44.52081" lon="6.30757">
        <ele>904.834</ele>
        <time>2021-08-02T15:30:09Z</time>
      </trkpt>
      <trkpt lat="44.52085" lon="6.30765">
        <ele>905.362</ele>
        <time>2021-08-02T15:30:15Z</time>
      </trkpt>
      <trkpt lat="44.5209" lon="6.3077">
        <ele>906.546</ele>
        <time>2021-08-02T15:30:20Z</time>
      </trkpt>
      <trkpt lat="44.52097" lon="6.3077">
        <ele>906.702</ele>
        <time>2021-08-02T15:30:24Z</time>
      </trkpt>
      <trkpt lat="44.52125" lon="6.30767">
        <ele>908.848</ele>
        <time>2021-08-02T15:30:45Z</time>
      </trkpt>
      <trkpt lat="44.52128" lon="6.30771">
        <ele>909.201</ele>
        <time>2021-08-02T15:30:51Z</time>
      </trkpt>
      <trkpt lat="44.52126" lon="6.30774">
        <ele>910.203</ele>
        <time>2021-08-02T15:30:55Z</time>
      </trkpt>
      <trkpt lat="44.52124" lon="6.30777">
        <ele>910.439</ele>
        <time>2021-08-02T15:30:58Z</time>
      </trkpt>
      <trkpt lat="44.52122" lon="6.30787">
        <ele>911.66</ele>
        <time>2021-08-02T15:31:05Z</time>
      </trkpt>
      <trkpt lat="44.52123" lon="6.30795">
        <ele>912.236</ele>
        <time>2021-08-02T15:31:10Z</time>
      </trkpt>
      <trkpt lat="44.52124" lon="6.308">
        <ele>912.192</ele>
        <time>2021-08-02T15:31:13Z</time>
      </trkpt>
      <trkpt lat="44.52124" lon="6.30804">
        <ele>912.551</ele>
        <time>2021-08-02T15:31:15Z</time>
      </trkpt>
      <trkpt lat="44.52122" lon="6.30812">
        <ele>912.874</ele>
        <time>2021-08-02T15:31:19Z</time>
      </trkpt>
      <trkpt lat="44.52114" lon="6.30828">
        <ele>915.268</ele>
        <time>2021-08-02T15:31:30Z</time>
      </trkpt>
      <trkpt lat="44.52106" lon="6.30848">
        <ele>917.433</ele>
        <time>2021-08-02T15:31:44Z</time>
      </trkpt>
      <trkpt lat="44.52104" lon="6.30856">
        <ele>918.108</ele>
        <time>2021-08-02T15:31:49Z</time>
      </trkpt>
      <trkpt lat="44.52104" lon="6.30864">
        <ele>919.591</ele>
        <time>2021-08-02T15:31:54Z</time>
      </trkpt>
      <trkpt lat="44.52108" lon="6.30872">
        <ele>921.19</ele>
        <time>2021-08-02T15:32:02Z</time>
      </trkpt>
      <trkpt lat="44.52109" lon="6.30876">
        <ele>921.758</ele>
        <time>2021-08-02T15:32:05Z</time>
      </trkpt>
      <trkpt lat="44.52111" lon="6.30879">
        <ele>922.077</ele>
        <time>2021-08-02T15:32:07Z</time>
      </trkpt>
      <trkpt lat="44.52113" lon="6.30884">
        <ele>922.052</ele>
        <time>2021-08-02T15:32:10Z</time>
      </trkpt>
      <trkpt lat="44.52114" lon="6.30888">
        <ele>922.185</ele>
        <time>2021-08-02T15:32:13Z</time>
      </trkpt>
      <trkpt lat="44.52117" lon="6.30891">
        <ele>922.501</ele>
        <time>2021-08-02T15:32:16Z</time>
      </trkpt>
      <trkpt lat="44.52127" lon="6.30904">
        <ele>924.213</ele>
        <time>2021-08-02T15:32:27Z</time>
      </trkpt>
      <trkpt lat="44.52129" lon="6.30906">
        <ele>924.316</ele>
        <time>2021-08-02T15:32:30Z</time>
      </trkpt>
      <trkpt lat="44.52129" lon="6.30906">
        <ele>924.316</ele>
        <time>2021-08-02T15:32:30Z</time>
      </trkpt>
      <trkpt lat="44.5213" lon="6.30906">
        <ele>924.569</ele>
        <time>2021-08-02T15:32:31Z</time>
      </trkpt>
      <trkpt lat="44.5213" lon="6.30906">
        <ele>924.94</ele>
        <time>2021-08-02T15:32:32Z</time>
      </trkpt>
      <trkpt lat="44.5213" lon="6.30906">
        <ele>925</ele>
        <time>2021-08-02T15:32:36Z</time>
      </trkpt>
      <trkpt lat="44.52131" lon="6.30905">
        <ele>925.126</ele>
        <time>2021-08-02T15:32:37Z</time>
      </trkpt>
      <trkpt lat="44.52131" lon="6.30905">
        <ele>925.114</ele>
        <time>2021-08-02T15:32:38Z</time>
      </trkpt>
      <trkpt lat="44.52131" lon="6.30905">
        <ele>924.717</ele>
        <time>2021-08-02T15:32:49Z</time>
      </trkpt>
      <trkpt lat="44.52132" lon="6.30906">
        <ele>924.713</ele>
        <time>2021-08-02T15:32:50Z</time>
      </trkpt>
      <trkpt lat="44.52133" lon="6.30908">
        <ele>924.941</ele>
        <time>2021-08-02T15:32:52Z</time>
      </trkpt>
      <trkpt lat="44.52137" lon="6.30919">
        <ele>927.163</ele>
        <time>2021-08-02T15:32:59Z</time>
      </trkpt>
      <trkpt lat="44.52138" lon="6.30926">
        <ele>927.069</ele>
        <time>2021-08-02T15:33:04Z</time>
      </trkpt>
      <trkpt lat="44.52139" lon="6.30933">
        <ele>929.204</ele>
        <time>2021-08-02T15:33:09Z</time>
      </trkpt>
      <trkpt lat="44.52137" lon="6.30945">
        <ele>929.699</ele>
        <time>2021-08-02T15:33:16Z</time>
      </trkpt>
      <trkpt lat="44.52138" lon="6.30964">
        <ele>930.932</ele>
        <time>2021-08-02T15:33:28Z</time>
      </trkpt>
      <trkpt lat="44.52147" lon="6.30972">
        <ele>931.804</ele>
        <time>2021-08-02T15:33:38Z</time>
      </trkpt>
      <trkpt lat="44.52152" lon="6.30973">
        <ele>933.442</ele>
        <time>2021-08-02T15:33:42Z</time>
      </trkpt>
      <trkpt lat="44.52155" lon="6.30973">
        <ele>933.241</ele>
        <time>2021-08-02T15:33:45Z</time>
      </trkpt>
      <trkpt lat="44.52157" lon="6.30971">
        <ele>934.424</ele>
        <time>2021-08-02T15:33:48Z</time>
      </trkpt>
      <trkpt lat="44.52159" lon="6.30967">
        <ele>934.444</ele>
        <time>2021-08-02T15:33:51Z</time>
      </trkpt>
      <trkpt lat="44.5216" lon="6.30956">
        <ele>934.104</ele>
        <time>2021-08-02T15:33:57Z</time>
      </trkpt>
      <trkpt lat="44.52158" lon="6.30947">
        <ele>934.388</ele>
        <time>2021-08-02T15:34:02Z</time>
      </trkpt>
      <trkpt lat="44.52159" lon="6.3094">
        <ele>934.801</ele>
        <time>2021-08-02T15:34:05Z</time>
      </trkpt>
      <trkpt lat="44.52157" lon="6.30928">
        <ele>935.134</ele>
        <time>2021-08-02T15:34:12Z</time>
      </trkpt>
      <trkpt lat="44.52162" lon="6.30914">
        <ele>935.4</ele>
        <time>2021-08-02T15:34:21Z</time>
      </trkpt>
      <trkpt lat="44.52165" lon="6.3091">
        <ele>936.078</ele>
        <time>2021-08-02T15:34:25Z</time>
      </trkpt>
      <trkpt lat="44.52168" lon="6.30907">
        <ele>936.762</ele>
        <time>2021-08-02T15:34:28Z</time>
      </trkpt>
      <trkpt lat="44.52193" lon="6.30875">
        <ele>938.139</ele>
        <time>2021-08-02T15:34:52Z</time>
      </trkpt>
      <trkpt lat="44.52194" lon="6.30872">
        <ele>938.357</ele>
        <time>2021-08-02T15:34:54Z</time>
      </trkpt>
      <trkpt lat="44.52203" lon="6.30859">
        <ele>939.346</ele>
        <time>2021-08-02T15:35:03Z</time>
      </trkpt>
      <trkpt lat="44.52215" lon="6.3085">
        <ele>938.935</ele>
        <time>2021-08-02T15:35:13Z</time>
      </trkpt>
      <trkpt lat="44.52218" lon="6.30848">
        <ele>939.295</ele>
        <time>2021-08-02T15:35:15Z</time>
      </trkpt>
      <trkpt lat="44.52223" lon="6.30844">
        <ele>939.088</ele>
        <time>2021-08-02T15:35:19Z</time>
      </trkpt>
      <trkpt lat="44.52226" lon="6.30841">
        <ele>939.192</ele>
        <time>2021-08-02T15:35:22Z</time>
      </trkpt>
      <trkpt lat="44.52249" lon="6.30831">
        <ele>939.962</ele>
        <time>2021-08-02T15:35:40Z</time>
      </trkpt>
      <trkpt lat="44.52255" lon="6.30832">
        <ele>940.028</ele>
        <time>2021-08-02T15:35:44Z</time>
      </trkpt>
      <trkpt lat="44.52256" lon="6.30832">
        <ele>940.198</ele>
        <time>2021-08-02T15:35:46Z</time>
      </trkpt>
      <trkpt lat="44.52258" lon="6.30833">
        <ele>939.569</ele>
        <time>2021-08-02T15:35:50Z</time>
      </trkpt>
      <trkpt lat="44.52285" lon="6.30844">
        <ele>938.825</ele>
        <time>2021-08-02T15:36:11Z</time>
      </trkpt>
      <trkpt lat="44.52291" lon="6.30844">
        <ele>939.193</ele>
        <time>2021-08-02T15:36:14Z</time>
      </trkpt>
      <trkpt lat="44.52296" lon="6.30846">
        <ele>939.019</ele>
        <time>2021-08-02T15:36:17Z</time>
      </trkpt>
      <trkpt lat="44.52307" lon="6.30851">
        <ele>939.045</ele>
        <time>2021-08-02T15:36:26Z</time>
      </trkpt>
      <trkpt lat="44.5231" lon="6.30851">
        <ele>939.067</ele>
        <time>2021-08-02T15:36:28Z</time>
      </trkpt>
      <trkpt lat="44.52317" lon="6.3085">
        <ele>938.994</ele>
        <time>2021-08-02T15:36:33Z</time>
      </trkpt>
      <trkpt lat="44.52332" lon="6.30849">
        <ele>939.79</ele>
        <time>2021-08-02T15:36:44Z</time>
      </trkpt>
      <trkpt lat="44.52348" lon="6.30852">
        <ele>939.489</ele>
        <time>2021-08-02T15:36:57Z</time>
      </trkpt>
      <trkpt lat="44.52358" lon="6.30855">
        <ele>938.594</ele>
        <time>2021-08-02T15:37:06Z</time>
      </trkpt>
      <trkpt lat="44.52365" lon="6.30858">
        <ele>939.163</ele>
        <time>2021-08-02T15:37:12Z</time>
      </trkpt>
      <trkpt lat="44.52365" lon="6.30858">
        <ele>939.402</ele>
        <time>2021-08-02T15:37:13Z</time>
      </trkpt>
      <trkpt lat="44.52365" lon="6.30858">
        <ele>939.177</ele>
        <time>2021-08-02T15:37:17Z</time>
      </trkpt>
      <trkpt lat="44.52366" lon="6.30859">
        <ele>939.139</ele>
        <time>2021-08-02T15:37:18Z</time>
      </trkpt>
      <trkpt lat="44.52366" lon="6.3086">
        <ele>939.847</ele>
        <time>2021-08-02T15:37:20Z</time>
      </trkpt>
      <trkpt lat="44.52366" lon="6.3086">
        <ele>940.091</ele>
        <time>2021-08-02T15:37:21Z</time>
      </trkpt>
      <trkpt lat="44.52366" lon="6.3086">
        <ele>940.281</ele>
        <time>2021-08-02T15:37:28Z</time>
      </trkpt>
      <trkpt lat="44.52369" lon="6.30859">
        <ele>940.154</ele>
        <time>2021-08-02T15:37:29Z</time>
      </trkpt>
      <trkpt lat="44.52369" lon="6.3086">
        <ele>940.254</ele>
        <time>2021-08-02T15:37:31Z</time>
      </trkpt>
      <trkpt lat="44.52369" lon="6.3086">
        <ele>940.338</ele>
        <time>2021-08-02T15:37:32Z</time>
      </trkpt>
      <trkpt lat="44.52369" lon="6.3086">
        <ele>940.296</ele>
        <time>2021-08-02T15:37:37Z</time>
      </trkpt>
      <trkpt lat="44.5237" lon="6.30859">
        <ele>940.248</ele>
        <time>2021-08-02T15:37:38Z</time>
      </trkpt>
      <trkpt lat="44.5237" lon="6.3086">
        <ele>940.567</ele>
        <time>2021-08-02T15:37:39Z</time>
      </trkpt>
      <trkpt lat="44.5237" lon="6.3086">
        <ele>941.044</ele>
        <time>2021-08-02T15:37:40Z</time>
      </trkpt>
      <trkpt lat="44.5236" lon="6.30866">
        <ele>942.199</ele>
        <time>2021-08-02T15:37:51Z</time>
      </trkpt>
      <trkpt lat="44.52356" lon="6.30868">
        <ele>943.867</ele>
        <time>2021-08-02T15:37:54Z</time>
      </trkpt>
      <trkpt lat="44.52348" lon="6.30874">
        <ele>943.239</ele>
        <time>2021-08-02T15:38:01Z</time>
      </trkpt>
      <trkpt lat="44.52338" lon="6.30881">
        <ele>945.206</ele>
        <time>2021-08-02T15:38:08Z</time>
      </trkpt>
      <trkpt lat="44.52327" lon="6.30896">
        <ele>944.702</ele>
        <time>2021-08-02T15:38:20Z</time>
      </trkpt>
      <trkpt lat="44.52325" lon="6.30907">
        <ele>945.186</ele>
        <time>2021-08-02T15:38:27Z</time>
      </trkpt>
      <trkpt lat="44.52323" lon="6.30915">
        <ele>944.563</ele>
        <time>2021-08-02T15:38:32Z</time>
      </trkpt>
      <trkpt lat="44.52321" lon="6.30929">
        <ele>945.392</ele>
        <time>2021-08-02T15:38:41Z</time>
      </trkpt>
      <trkpt lat="44.52321" lon="6.30929">
        <ele>945.364</ele>
        <time>2021-08-02T15:38:47Z</time>
      </trkpt>
      <trkpt lat="44.5232" lon="6.30928">
        <ele>945.248</ele>
        <time>2021-08-02T15:38:48Z</time>
      </trkpt>
      <trkpt lat="44.5232" lon="6.3093">
        <ele>945.384</ele>
        <time>2021-08-02T15:38:51Z</time>
      </trkpt>
      <trkpt lat="44.5232" lon="6.3093">
        <ele>945.443</ele>
        <time>2021-08-02T15:38:53Z</time>
      </trkpt>
      <trkpt lat="44.52319" lon="6.3093">
        <ele>945.075</ele>
        <time>2021-08-02T15:38:54Z</time>
      </trkpt>
      <trkpt lat="44.52319" lon="6.3093">
        <ele>945.067</ele>
        <time>2021-08-02T15:38:55Z</time>
      </trkpt>
      <trkpt lat="44.52319" lon="6.3093">
        <ele>945.067</ele>
        <time>2021-08-02T15:38:55Z</time>
      </trkpt>
      <trkpt lat="44.52318" lon="6.3093">
        <ele>945.019</ele>
        <time>2021-08-02T15:38:56Z</time>
      </trkpt>
      <trkpt lat="44.52318" lon="6.30929">
        <ele>945.121</ele>
        <time>2021-08-02T15:38:57Z</time>
      </trkpt>
      <trkpt lat="44.52314" lon="6.30928">
        <ele>944.652</ele>
        <time>2021-08-02T15:39:02Z</time>
      </trkpt>
      <trkpt lat="44.52314" lon="6.30928">
        <ele>944.824</ele>
        <time>2021-08-02T15:39:03Z</time>
      </trkpt>
      <trkpt lat="44.52314" lon="6.30928">
        <ele>944.855</ele>
        <time>2021-08-02T15:39:38Z</time>
      </trkpt>
      <trkpt lat="44.52315" lon="6.30928">
        <ele>944.974</ele>
        <time>2021-08-02T15:39:39Z</time>
      </trkpt>
      <trkpt lat="44.52317" lon="6.30927">
        <ele>945.476</ele>
        <time>2021-08-02T15:39:41Z</time>
      </trkpt>
      <trkpt lat="44.52317" lon="6.30927">
        <ele>945.323</ele>
        <time>2021-08-02T15:39:42Z</time>
      </trkpt>
      <trkpt lat="44.52318" lon="6.30928">
        <ele>945.066</ele>
        <time>2021-08-02T15:39:43Z</time>
      </trkpt>
      <trkpt lat="44.52318" lon="6.30928">
        <ele>945.104</ele>
        <time>2021-08-02T15:39:44Z</time>
      </trkpt>
      <trkpt lat="44.52318" lon="6.30928">
        <ele>945.297</ele>
        <time>2021-08-02T15:40:00Z</time>
      </trkpt>
      <trkpt lat="44.52318" lon="6.3093">
        <ele>945.239</ele>
        <time>2021-08-02T15:40:01Z</time>
      </trkpt>
      <trkpt lat="44.52318" lon="6.30931">
        <ele>945.729</ele>
        <time>2021-08-02T15:40:02Z</time>
      </trkpt>
      <trkpt lat="44.52318" lon="6.30936">
        <ele>947.62</ele>
        <time>2021-08-02T15:40:05Z</time>
      </trkpt>
      <trkpt lat="44.52318" lon="6.30944">
        <ele>947.64</ele>
        <time>2021-08-02T15:40:10Z</time>
      </trkpt>
      <trkpt lat="44.52318" lon="6.30965">
        <ele>945.331</ele>
        <time>2021-08-02T15:40:21Z</time>
      </trkpt>
      <trkpt lat="44.52312" lon="6.31006">
        <ele>944.978</ele>
        <time>2021-08-02T15:40:43Z</time>
      </trkpt>
      <trkpt lat="44.52307" lon="6.31018">
        <ele>945.307</ele>
        <time>2021-08-02T15:40:50Z</time>
      </trkpt>
      <trkpt lat="44.52298" lon="6.3103">
        <ele>943.71</ele>
        <time>2021-08-02T15:40:58Z</time>
      </trkpt>
      <trkpt lat="44.52292" lon="6.3104">
        <ele>943.307</ele>
        <time>2021-08-02T15:41:04Z</time>
      </trkpt>
      <trkpt lat="44.52287" lon="6.3105">
        <ele>943.684</ele>
        <time>2021-08-02T15:41:10Z</time>
      </trkpt>
      <trkpt lat="44.52284" lon="6.31067">
        <ele>942.091</ele>
        <time>2021-08-02T15:41:19Z</time>
      </trkpt>
      <trkpt lat="44.52289" lon="6.31095">
        <ele>941.319</ele>
        <time>2021-08-02T15:41:34Z</time>
      </trkpt>
      <trkpt lat="44.52284" lon="6.31107">
        <ele>941.284</ele>
        <time>2021-08-02T15:41:41Z</time>
      </trkpt>
      <trkpt lat="44.5228" lon="6.31111">
        <ele>941.502</ele>
        <time>2021-08-02T15:41:44Z</time>
      </trkpt>
      <trkpt lat="44.52277" lon="6.31111">
        <ele>941.679</ele>
        <time>2021-08-02T15:41:46Z</time>
      </trkpt>
      <trkpt lat="44.5227" lon="6.31116">
        <ele>942.261</ele>
        <time>2021-08-02T15:41:52Z</time>
      </trkpt>
      <trkpt lat="44.52263" lon="6.3112">
        <ele>941.71</ele>
        <time>2021-08-02T15:41:58Z</time>
      </trkpt>
      <trkpt lat="44.52255" lon="6.31121">
        <ele>942.752</ele>
        <time>2021-08-02T15:42:07Z</time>
      </trkpt>
      <trkpt lat="44.52247" lon="6.31122">
        <ele>944.814</ele>
        <time>2021-08-02T15:42:15Z</time>
      </trkpt>
      <trkpt lat="44.5224" lon="6.31121">
        <ele>945.244</ele>
        <time>2021-08-02T15:42:22Z</time>
      </trkpt>
      <trkpt lat="44.52227" lon="6.31123">
        <ele>945.757</ele>
        <time>2021-08-02T15:42:33Z</time>
      </trkpt>
      <trkpt lat="44.52215" lon="6.31128">
        <ele>947.865</ele>
        <time>2021-08-02T15:42:46Z</time>
      </trkpt>
      <trkpt lat="44.52204" lon="6.31134">
        <ele>950.17</ele>
        <time>2021-08-02T15:42:58Z</time>
      </trkpt>
      <trkpt lat="44.522" lon="6.31138">
        <ele>951.446</ele>
        <time>2021-08-02T15:43:04Z</time>
      </trkpt>
      <trkpt lat="44.52191" lon="6.3115">
        <ele>953.289</ele>
        <time>2021-08-02T15:43:17Z</time>
      </trkpt>
      <trkpt lat="44.52187" lon="6.31151">
        <ele>953.962</ele>
        <time>2021-08-02T15:43:20Z</time>
      </trkpt>
      <trkpt lat="44.52181" lon="6.31157">
        <ele>955.879</ele>
        <time>2021-08-02T15:43:26Z</time>
      </trkpt>
      <trkpt lat="44.52178" lon="6.31167">
        <ele>957.004</ele>
        <time>2021-08-02T15:43:35Z</time>
      </trkpt>
      <trkpt lat="44.52178" lon="6.31167">
        <ele>957.383</ele>
        <time>2021-08-02T15:43:36Z</time>
      </trkpt>
      <trkpt lat="44.52178" lon="6.31167">
        <ele>957.438</ele>
        <time>2021-08-02T15:43:41Z</time>
      </trkpt>
      <trkpt lat="44.52178" lon="6.31166">
        <ele>957.68</ele>
        <time>2021-08-02T15:43:42Z</time>
      </trkpt>
      <trkpt lat="44.52178" lon="6.31167">
        <ele>958.037</ele>
        <time>2021-08-02T15:43:45Z</time>
      </trkpt>
      <trkpt lat="44.52178" lon="6.31167">
        <ele>958.037</ele>
        <time>2021-08-02T15:43:45Z</time>
      </trkpt>
      <trkpt lat="44.52178" lon="6.31168">
        <ele>957.719</ele>
        <time>2021-08-02T15:43:46Z</time>
      </trkpt>
      <trkpt lat="44.52178" lon="6.31168">
        <ele>957.717</ele>
        <time>2021-08-02T15:43:48Z</time>
      </trkpt>
      <trkpt lat="44.52178" lon="6.31168">
        <ele>957.716</ele>
        <time>2021-08-02T15:43:49Z</time>
      </trkpt>
      <trkpt lat="44.52178" lon="6.31169">
        <ele>958.153</ele>
        <time>2021-08-02T15:43:50Z</time>
      </trkpt>
      <trkpt lat="44.52178" lon="6.31169">
        <ele>958.153</ele>
        <time>2021-08-02T15:43:50Z</time>
      </trkpt>
      <trkpt lat="44.52178" lon="6.31169">
        <ele>958.14</ele>
        <time>2021-08-02T15:43:51Z</time>
      </trkpt>
      <trkpt lat="44.52178" lon="6.31169">
        <ele>958.62</ele>
        <time>2021-08-02T15:44:21Z</time>
      </trkpt>
      <trkpt lat="44.52178" lon="6.31168">
        <ele>958.31</ele>
        <time>2021-08-02T15:44:22Z</time>
      </trkpt>
      <trkpt lat="44.52178" lon="6.31168">
        <ele>958.29</ele>
        <time>2021-08-02T15:44:23Z</time>
      </trkpt>
      <trkpt lat="44.52178" lon="6.31168">
        <ele>958.034</ele>
        <time>2021-08-02T15:45:09Z</time>
      </trkpt>
      <trkpt lat="44.52176" lon="6.31167">
        <ele>958.438</ele>
        <time>2021-08-02T15:45:10Z</time>
      </trkpt>
      <trkpt lat="44.52173" lon="6.31167">
        <ele>957.956</ele>
        <time>2021-08-02T15:45:13Z</time>
      </trkpt>
      <trkpt lat="44.52171" lon="6.3117">
        <ele>956.089</ele>
        <time>2021-08-02T15:45:16Z</time>
      </trkpt>
      <trkpt lat="44.52168" lon="6.31172">
        <ele>955.754</ele>
        <time>2021-08-02T15:45:19Z</time>
      </trkpt>
      <trkpt lat="44.52161" lon="6.31175">
        <ele>954.334</ele>
        <time>2021-08-02T15:45:27Z</time>
      </trkpt>
      <trkpt lat="44.52158" lon="6.31178">
        <ele>953.754</ele>
        <time>2021-08-02T15:45:30Z</time>
      </trkpt>
      <trkpt lat="44.52152" lon="6.31184">
        <ele>953.45</ele>
        <time>2021-08-02T15:45:36Z</time>
      </trkpt>
      <trkpt lat="44.5215" lon="6.31185">
        <ele>952.988</ele>
        <time>2021-08-02T15:45:40Z</time>
      </trkpt>
      <trkpt lat="44.52147" lon="6.31187">
        <ele>952.581</ele>
        <time>2021-08-02T15:45:43Z</time>
      </trkpt>
      <trkpt lat="44.52144" lon="6.31189">
        <ele>952.741</ele>
        <time>2021-08-02T15:45:46Z</time>
      </trkpt>
      <trkpt lat="44.52141" lon="6.3119">
        <ele>952.987</ele>
        <time>2021-08-02T15:45:49Z</time>
      </trkpt>
      <trkpt lat="44.5214" lon="6.3119">
        <ele>952.986</ele>
        <time>2021-08-02T15:45:50Z</time>
      </trkpt>
      <trkpt lat="44.5214" lon="6.31189">
        <ele>952.476</ele>
        <time>2021-08-02T15:45:51Z</time>
      </trkpt>
      <trkpt lat="44.52136" lon="6.31188">
        <ele>952.57</ele>
        <time>2021-08-02T15:45:55Z</time>
      </trkpt>
      <trkpt lat="44.52135" lon="6.31188">
        <ele>952.356</ele>
        <time>2021-08-02T15:45:56Z</time>
      </trkpt>
      <trkpt lat="44.52135" lon="6.31188">
        <ele>952.322</ele>
        <time>2021-08-02T15:45:57Z</time>
      </trkpt>
      <trkpt lat="44.52135" lon="6.31188">
        <ele>952.322</ele>
        <time>2021-08-02T15:45:57Z</time>
      </trkpt>
      <trkpt lat="44.52134" lon="6.31189">
        <ele>952.033</ele>
        <time>2021-08-02T15:45:58Z</time>
      </trkpt>
      <trkpt lat="44.52134" lon="6.3119">
        <ele>951.804</ele>
        <time>2021-08-02T15:46:02Z</time>
      </trkpt>
      <trkpt lat="44.52134" lon="6.3119">
        <ele>951.804</ele>
        <time>2021-08-02T15:46:02Z</time>
      </trkpt>
      <trkpt lat="44.52133" lon="6.31191">
        <ele>951.988</ele>
        <time>2021-08-02T15:46:03Z</time>
      </trkpt>
      <trkpt lat="44.52133" lon="6.31191">
        <ele>951.98</ele>
        <time>2021-08-02T15:46:06Z</time>
      </trkpt>
      <trkpt lat="44.52133" lon="6.31191">
        <ele>951.93</ele>
        <time>2021-08-02T15:46:07Z</time>
      </trkpt>
      <trkpt lat="44.52133" lon="6.31191">
        <ele>952.258</ele>
        <time>2021-08-02T15:46:11Z</time>
      </trkpt>
      <trkpt lat="44.52132" lon="6.31191">
        <ele>952.165</ele>
        <time>2021-08-02T15:46:12Z</time>
      </trkpt>
      <trkpt lat="44.5213" lon="6.3119">
        <ele>952.215</ele>
        <time>2021-08-02T15:46:14Z</time>
      </trkpt>
      <trkpt lat="44.52128" lon="6.31189">
        <ele>951.26</ele>
        <time>2021-08-02T15:46:16Z</time>
      </trkpt>
      <trkpt lat="44.52126" lon="6.31188">
        <ele>950.971</ele>
        <time>2021-08-02T15:46:18Z</time>
      </trkpt>
      <trkpt lat="44.52126" lon="6.31188">
        <ele>950.971</ele>
        <time>2021-08-02T15:46:18Z</time>
      </trkpt>
      <trkpt lat="44.52126" lon="6.31188">
        <ele>951.17</ele>
        <time>2021-08-02T15:46:19Z</time>
      </trkpt>
      <trkpt lat="44.52126" lon="6.31188">
        <ele>951.17</ele>
        <time>2021-08-02T15:46:19Z</time>
      </trkpt>
      <trkpt lat="44.52125" lon="6.31188">
        <ele>950.966</ele>
        <time>2021-08-02T15:46:20Z</time>
      </trkpt>
      <trkpt lat="44.52125" lon="6.31188">
        <ele>950.966</ele>
        <time>2021-08-02T15:46:20Z</time>
      </trkpt>
      <trkpt lat="44.52124" lon="6.31187">
        <ele>951.406</ele>
        <time>2021-08-02T15:46:21Z</time>
      </trkpt>
      <trkpt lat="44.52123" lon="6.31186">
        <ele>951.643</ele>
        <time>2021-08-02T15:46:23Z</time>
      </trkpt>
      <trkpt lat="44.52121" lon="6.31184">
        <ele>950.388</ele>
        <time>2021-08-02T15:46:25Z</time>
      </trkpt>
      <trkpt lat="44.52118" lon="6.31184">
        <ele>950.019</ele>
        <time>2021-08-02T15:46:28Z</time>
      </trkpt>
      <trkpt lat="44.52116" lon="6.31183">
        <ele>950.269</ele>
        <time>2021-08-02T15:46:30Z</time>
      </trkpt>
      <trkpt lat="44.52114" lon="6.31181">
        <ele>949.751</ele>
        <time>2021-08-02T15:46:33Z</time>
      </trkpt>
      <trkpt lat="44.52112" lon="6.31178">
        <ele>949.564</ele>
        <time>2021-08-02T15:46:37Z</time>
      </trkpt>
      <trkpt lat="44.52109" lon="6.31177">
        <ele>949.497</ele>
        <time>2021-08-02T15:46:40Z</time>
      </trkpt>
      <trkpt lat="44.52103" lon="6.31175">
        <ele>950.271</ele>
        <time>2021-08-02T15:46:45Z</time>
      </trkpt>
      <trkpt lat="44.52102" lon="6.31175">
        <ele>950.044</ele>
        <time>2021-08-02T15:46:46Z</time>
      </trkpt>
      <trkpt lat="44.52102" lon="6.31175">
        <ele>950.044</ele>
        <time>2021-08-02T15:46:46Z</time>
      </trkpt>
      <trkpt lat="44.52102" lon="6.31175">
        <ele>950.05</ele>
        <time>2021-08-02T15:46:47Z</time>
      </trkpt>
      <trkpt lat="44.52102" lon="6.31175">
        <ele>950.05</ele>
        <time>2021-08-02T15:46:47Z</time>
      </trkpt>
      <trkpt lat="44.52102" lon="6.31176">
        <ele>950.32</ele>
        <time>2021-08-02T15:46:48Z</time>
      </trkpt>
      <trkpt lat="44.52102" lon="6.31176">
        <ele>950.32</ele>
        <time>2021-08-02T15:46:48Z</time>
      </trkpt>
      <trkpt lat="44.52101" lon="6.31176">
        <ele>950.486</ele>
        <time>2021-08-02T15:46:49Z</time>
      </trkpt>
      <trkpt lat="44.52098" lon="6.31177">
        <ele>949.884</ele>
        <time>2021-08-02T15:46:52Z</time>
      </trkpt>
      <trkpt lat="44.52097" lon="6.31178">
        <ele>950.217</ele>
        <time>2021-08-02T15:46:54Z</time>
      </trkpt>
      <trkpt lat="44.52095" lon="6.31178">
        <ele>949.925</ele>
        <time>2021-08-02T15:46:56Z</time>
      </trkpt>
      <trkpt lat="44.52092" lon="6.31177">
        <ele>949.806</ele>
        <time>2021-08-02T15:46:59Z</time>
      </trkpt>
      <trkpt lat="44.52089" lon="6.31175">
        <ele>949.321</ele>
        <time>2021-08-02T15:47:03Z</time>
      </trkpt>
      <trkpt lat="44.52087" lon="6.31172">
        <ele>949.016</ele>
        <time>2021-08-02T15:47:05Z</time>
      </trkpt>
      <trkpt lat="44.52087" lon="6.31172">
        <ele>949.016</ele>
        <time>2021-08-02T15:47:05Z</time>
      </trkpt>
      <trkpt lat="44.52086" lon="6.31172">
        <ele>948.999</ele>
        <time>2021-08-02T15:47:06Z</time>
      </trkpt>
      <trkpt lat="44.52084" lon="6.31169">
        <ele>948.542</ele>
        <time>2021-08-02T15:47:08Z</time>
      </trkpt>
      <trkpt lat="44.52083" lon="6.31169">
        <ele>948.495</ele>
        <time>2021-08-02T15:47:09Z</time>
      </trkpt>
      <trkpt lat="44.5208" lon="6.31167">
        <ele>948.343</ele>
        <time>2021-08-02T15:47:11Z</time>
      </trkpt>
      <trkpt lat="44.52074" lon="6.31166">
        <ele>947.8</ele>
        <time>2021-08-02T15:47:14Z</time>
      </trkpt>
      <trkpt lat="44.52071" lon="6.31168">
        <ele>947.642</ele>
        <time>2021-08-02T15:47:16Z</time>
      </trkpt>
      <trkpt lat="44.52068" lon="6.31169">
        <ele>946.965</ele>
        <time>2021-08-02T15:47:18Z</time>
      </trkpt>
      <trkpt lat="44.52059" lon="6.31176">
        <ele>946.147</ele>
        <time>2021-08-02T15:47:26Z</time>
      </trkpt>
      <trkpt lat="44.52051" lon="6.31184">
        <ele>945.871</ele>
        <time>2021-08-02T15:47:34Z</time>
      </trkpt>
      <trkpt lat="44.52041" lon="6.31193">
        <ele>945.238</ele>
        <time>2021-08-02T15:47:44Z</time>
      </trkpt>
      <trkpt lat="44.52029" lon="6.31199">
        <ele>945.777</ele>
        <time>2021-08-02T15:47:53Z</time>
      </trkpt>
      <trkpt lat="44.52023" lon="6.31199">
        <ele>945.412</ele>
        <time>2021-08-02T15:47:59Z</time>
      </trkpt>
      <trkpt lat="44.52022" lon="6.31197">
        <ele>944.072</ele>
        <time>2021-08-02T15:48:01Z</time>
      </trkpt>
      <trkpt lat="44.52018" lon="6.31195">
        <ele>943.877</ele>
        <time>2021-08-02T15:48:05Z</time>
      </trkpt>
      <trkpt lat="44.52014" lon="6.31192">
        <ele>943.046</ele>
        <time>2021-08-02T15:48:09Z</time>
      </trkpt>
      <trkpt lat="44.52011" lon="6.31186">
        <ele>942.363</ele>
        <time>2021-08-02T15:48:14Z</time>
      </trkpt>
      <trkpt lat="44.52008" lon="6.31183">
        <ele>941.187</ele>
        <time>2021-08-02T15:48:18Z</time>
      </trkpt>
      <trkpt lat="44.52005" lon="6.31184">
        <ele>940.464</ele>
        <time>2021-08-02T15:48:21Z</time>
      </trkpt>
      <trkpt lat="44.52004" lon="6.31187">
        <ele>940.443</ele>
        <time>2021-08-02T15:48:24Z</time>
      </trkpt>
      <trkpt lat="44.52004" lon="6.31188">
        <ele>940.234</ele>
        <time>2021-08-02T15:48:25Z</time>
      </trkpt>
      <trkpt lat="44.52003" lon="6.31189">
        <ele>940.019</ele>
        <time>2021-08-02T15:48:26Z</time>
      </trkpt>
      <trkpt lat="44.52003" lon="6.3119">
        <ele>939.754</ele>
        <time>2021-08-02T15:48:27Z</time>
      </trkpt>
      <trkpt lat="44.52001" lon="6.31192">
        <ele>939.69</ele>
        <time>2021-08-02T15:48:29Z</time>
      </trkpt>
      <trkpt lat="44.51998" lon="6.31194">
        <ele>939.186</ele>
        <time>2021-08-02T15:48:32Z</time>
      </trkpt>
      <trkpt lat="44.51995" lon="6.31195">
        <ele>938.885</ele>
        <time>2021-08-02T15:48:34Z</time>
      </trkpt>
      <trkpt lat="44.5199" lon="6.31198">
        <ele>938.673</ele>
        <time>2021-08-02T15:48:38Z</time>
      </trkpt>
      <trkpt lat="44.51986" lon="6.31198">
        <ele>938.729</ele>
        <time>2021-08-02T15:48:41Z</time>
      </trkpt>
      <trkpt lat="44.51982" lon="6.31198">
        <ele>939.067</ele>
        <time>2021-08-02T15:48:45Z</time>
      </trkpt>
      <trkpt lat="44.51981" lon="6.31198">
        <ele>938.916</ele>
        <time>2021-08-02T15:48:46Z</time>
      </trkpt>
      <trkpt lat="44.5198" lon="6.31195">
        <ele>938.151</ele>
        <time>2021-08-02T15:48:49Z</time>
      </trkpt>
      <trkpt lat="44.51979" lon="6.31191">
        <ele>938.266</ele>
        <time>2021-08-02T15:48:51Z</time>
      </trkpt>
      <trkpt lat="44.51978" lon="6.31182">
        <ele>937.668</ele>
        <time>2021-08-02T15:48:58Z</time>
      </trkpt>
      <trkpt lat="44.51978" lon="6.31177">
        <ele>937.634</ele>
        <time>2021-08-02T15:49:02Z</time>
      </trkpt>
      <trkpt lat="44.51981" lon="6.3117">
        <ele>936.799</ele>
        <time>2021-08-02T15:49:07Z</time>
      </trkpt>
      <trkpt lat="44.51986" lon="6.31166">
        <ele>936.241</ele>
        <time>2021-08-02T15:49:13Z</time>
      </trkpt>
      <trkpt lat="44.51987" lon="6.31165">
        <ele>935.705</ele>
        <time>2021-08-02T15:49:15Z</time>
      </trkpt>
      <trkpt lat="44.51988" lon="6.3116">
        <ele>935.071</ele>
        <time>2021-08-02T15:49:19Z</time>
      </trkpt>
      <trkpt lat="44.51988" lon="6.31157">
        <ele>935.053</ele>
        <time>2021-08-02T15:49:21Z</time>
      </trkpt>
      <trkpt lat="44.5199" lon="6.31154">
        <ele>933.522</ele>
        <time>2021-08-02T15:49:25Z</time>
      </trkpt>
      <trkpt lat="44.51991" lon="6.31152">
        <ele>932.912</ele>
        <time>2021-08-02T15:49:28Z</time>
      </trkpt>
      <trkpt lat="44.51991" lon="6.31152">
        <ele>932.912</ele>
        <time>2021-08-02T15:49:28Z</time>
      </trkpt>
      <trkpt lat="44.51992" lon="6.3115">
        <ele>932.991</ele>
        <time>2021-08-02T15:49:29Z</time>
      </trkpt>
      <trkpt lat="44.51992" lon="6.3115">
        <ele>932.647</ele>
        <time>2021-08-02T15:49:30Z</time>
      </trkpt>
      <trkpt lat="44.51992" lon="6.3115">
        <ele>932.245</ele>
        <time>2021-08-02T15:49:31Z</time>
      </trkpt>
      <trkpt lat="44.51992" lon="6.3115">
        <ele>932.245</ele>
        <time>2021-08-02T15:49:31Z</time>
      </trkpt>
      <trkpt lat="44.51992" lon="6.31148">
        <ele>931.953</ele>
        <time>2021-08-02T15:49:32Z</time>
      </trkpt>
      <trkpt lat="44.51992" lon="6.31148">
        <ele>931.953</ele>
        <time>2021-08-02T15:49:32Z</time>
      </trkpt>
      <trkpt lat="44.51992" lon="6.31148">
        <ele>931.741</ele>
        <time>2021-08-02T15:49:33Z</time>
      </trkpt>
      <trkpt lat="44.51992" lon="6.31148">
        <ele>931.523</ele>
        <time>2021-08-02T15:49:35Z</time>
      </trkpt>
      <trkpt lat="44.51992" lon="6.31146">
        <ele>931.644</ele>
        <time>2021-08-02T15:49:36Z</time>
      </trkpt>
      <trkpt lat="44.51992" lon="6.31146">
        <ele>931.644</ele>
        <time>2021-08-02T15:49:36Z</time>
      </trkpt>
      <trkpt lat="44.51992" lon="6.31146">
        <ele>931.292</ele>
        <time>2021-08-02T15:49:37Z</time>
      </trkpt>
      <trkpt lat="44.51992" lon="6.31146">
        <ele>931.234</ele>
        <time>2021-08-02T15:50:25Z</time>
      </trkpt>
      <trkpt lat="44.51993" lon="6.31142">
        <ele>931.065</ele>
        <time>2021-08-02T15:50:26Z</time>
      </trkpt>
      <trkpt lat="44.51993" lon="6.31142">
        <ele>931.065</ele>
        <time>2021-08-02T15:50:26Z</time>
      </trkpt>
      <trkpt lat="44.51994" lon="6.31142">
        <ele>931.195</ele>
        <time>2021-08-02T15:50:27Z</time>
      </trkpt>
      <trkpt lat="44.51994" lon="6.31142">
        <ele>931.147</ele>
        <time>2021-08-02T15:50:28Z</time>
      </trkpt>
      <trkpt lat="44.51994" lon="6.31142">
        <ele>931.147</ele>
        <time>2021-08-02T15:50:28Z</time>
      </trkpt>
      <trkpt lat="44.51994" lon="6.31141">
        <ele>930.824</ele>
        <time>2021-08-02T15:50:29Z</time>
      </trkpt>
      <trkpt lat="44.51994" lon="6.31141">
        <ele>930.478</ele>
        <time>2021-08-02T15:50:32Z</time>
      </trkpt>
      <trkpt lat="44.51994" lon="6.31141">
        <ele>930.211</ele>
        <time>2021-08-02T15:50:33Z</time>
      </trkpt>
      <trkpt lat="44.51993" lon="6.31141">
        <ele>930.373</ele>
        <time>2021-08-02T15:50:34Z</time>
      </trkpt>
      <trkpt lat="44.51993" lon="6.31141">
        <ele>930.373</ele>
        <time>2021-08-02T15:50:34Z</time>
      </trkpt>
      <trkpt lat="44.51993" lon="6.31141">
        <ele>930.427</ele>
        <time>2021-08-02T15:50:35Z</time>
      </trkpt>
      <trkpt lat="44.51993" lon="6.31141">
        <ele>930.603</ele>
        <time>2021-08-02T15:50:55Z</time>
      </trkpt>
      <trkpt lat="44.51993" lon="6.31142">
        <ele>930.231</ele>
        <time>2021-08-02T15:50:56Z</time>
      </trkpt>
      <trkpt lat="44.51992" lon="6.31146">
        <ele>932.026</ele>
        <time>2021-08-02T15:51:00Z</time>
      </trkpt>
      <trkpt lat="44.51992" lon="6.31147">
        <ele>931.899</ele>
        <time>2021-08-02T15:51:01Z</time>
      </trkpt>
      <trkpt lat="44.51992" lon="6.31148">
        <ele>932.111</ele>
        <time>2021-08-02T15:51:02Z</time>
      </trkpt>
      <trkpt lat="44.5199" lon="6.31155">
        <ele>928.627</ele>
        <time>2021-08-02T15:51:10Z</time>
      </trkpt>
      <trkpt lat="44.51991" lon="6.31155">
        <ele>929.24</ele>
        <time>2021-08-02T15:51:11Z</time>
      </trkpt>
      <trkpt lat="44.51989" lon="6.31157">
        <ele>929.997</ele>
        <time>2021-08-02T15:51:16Z</time>
      </trkpt>
      <trkpt lat="44.51988" lon="6.31158">
        <ele>929.959</ele>
        <time>2021-08-02T15:51:17Z</time>
      </trkpt>
      <trkpt lat="44.51985" lon="6.3116">
        <ele>930.899</ele>
        <time>2021-08-02T15:51:20Z</time>
      </trkpt>
      <trkpt lat="44.5198" lon="6.31165">
        <ele>927.487</ele>
        <time>2021-08-02T15:51:27Z</time>
      </trkpt>
      <trkpt lat="44.51981" lon="6.31172">
        <ele>927.044</ele>
        <time>2021-08-02T15:51:33Z</time>
      </trkpt>
      <trkpt lat="44.51982" lon="6.31179">
        <ele>928.704</ele>
        <time>2021-08-02T15:51:37Z</time>
      </trkpt>
      <trkpt lat="44.51988" lon="6.31194">
        <ele>930.579</ele>
        <time>2021-08-02T15:51:48Z</time>
      </trkpt>
      <trkpt lat="44.51989" lon="6.31196">
        <ele>931.043</ele>
        <time>2021-08-02T15:51:51Z</time>
      </trkpt>
      <trkpt lat="44.51992" lon="6.31195">
        <ele>932.045</ele>
        <time>2021-08-02T15:51:56Z</time>
      </trkpt>
      <trkpt lat="44.51993" lon="6.31195">
        <ele>931.786</ele>
        <time>2021-08-02T15:51:58Z</time>
      </trkpt>
      <trkpt lat="44.51993" lon="6.31195">
        <ele>931.786</ele>
        <time>2021-08-02T15:51:58Z</time>
      </trkpt>
      <trkpt lat="44.51993" lon="6.31194">
        <ele>931.337</ele>
        <time>2021-08-02T15:51:59Z</time>
      </trkpt>
      <trkpt lat="44.51996" lon="6.31192">
        <ele>931.142</ele>
        <time>2021-08-02T15:52:04Z</time>
      </trkpt>
      <trkpt lat="44.51997" lon="6.31187">
        <ele>931.747</ele>
        <time>2021-08-02T15:52:08Z</time>
      </trkpt>
      <trkpt lat="44.51998" lon="6.31183">
        <ele>932.258</ele>
        <time>2021-08-02T15:52:11Z</time>
      </trkpt>
      <trkpt lat="44.52001" lon="6.31183">
        <ele>932.867</ele>
        <time>2021-08-02T15:52:16Z</time>
      </trkpt>
      <trkpt lat="44.52002" lon="6.31185">
        <ele>932.391</ele>
        <time>2021-08-02T15:52:18Z</time>
      </trkpt>
      <trkpt lat="44.52003" lon="6.31186">
        <ele>932.489</ele>
        <time>2021-08-02T15:52:19Z</time>
      </trkpt>
      <trkpt lat="44.52006" lon="6.31188">
        <ele>932.559</ele>
        <time>2021-08-02T15:52:21Z</time>
      </trkpt>
      <trkpt lat="44.52007" lon="6.31189">
        <ele>932.594</ele>
        <time>2021-08-02T15:52:22Z</time>
      </trkpt>
      <trkpt lat="44.52007" lon="6.31189">
        <ele>932.495</ele>
        <time>2021-08-02T15:52:23Z</time>
      </trkpt>
      <trkpt lat="44.52007" lon="6.31189">
        <ele>932.495</ele>
        <time>2021-08-02T15:52:23Z</time>
      </trkpt>
      <trkpt lat="44.52008" lon="6.3119">
        <ele>932.343</ele>
        <time>2021-08-02T15:52:24Z</time>
      </trkpt>
      <trkpt lat="44.52009" lon="6.3119">
        <ele>932.354</ele>
        <time>2021-08-02T15:52:26Z</time>
      </trkpt>
      <trkpt lat="44.52013" lon="6.31192">
        <ele>932.823</ele>
        <time>2021-08-02T15:52:29Z</time>
      </trkpt>
      <trkpt lat="44.5202" lon="6.31195">
        <ele>932.914</ele>
        <time>2021-08-02T15:52:35Z</time>
      </trkpt>
      <trkpt lat="44.5202" lon="6.31195">
        <ele>933.185</ele>
        <time>2021-08-02T15:52:36Z</time>
      </trkpt>
      <trkpt lat="44.5202" lon="6.31195">
        <ele>933.185</ele>
        <time>2021-08-02T15:52:36Z</time>
      </trkpt>
      <trkpt lat="44.5202" lon="6.31196">
        <ele>933.21</ele>
        <time>2021-08-02T15:52:37Z</time>
      </trkpt>
      <trkpt lat="44.52023" lon="6.31195">
        <ele>933.865</ele>
        <time>2021-08-02T15:52:40Z</time>
      </trkpt>
      <trkpt lat="44.52027" lon="6.31193">
        <ele>933.918</ele>
        <time>2021-08-02T15:52:44Z</time>
      </trkpt>
      <trkpt lat="44.52037" lon="6.31189">
        <ele>934.376</ele>
        <time>2021-08-02T15:52:50Z</time>
      </trkpt>
      <trkpt lat="44.5204" lon="6.31189">
        <ele>934.451</ele>
        <time>2021-08-02T15:52:52Z</time>
      </trkpt>
      <trkpt lat="44.52049" lon="6.31191">
        <ele>934.673</ele>
        <time>2021-08-02T15:53:01Z</time>
      </trkpt>
      <trkpt lat="44.5205" lon="6.3119">
        <ele>934.337</ele>
        <time>2021-08-02T15:53:02Z</time>
      </trkpt>
      <trkpt lat="44.52055" lon="6.31183">
        <ele>934.615</ele>
        <time>2021-08-02T15:53:06Z</time>
      </trkpt>
      <trkpt lat="44.5206" lon="6.31174">
        <ele>935.281</ele>
        <time>2021-08-02T15:53:11Z</time>
      </trkpt>
      <trkpt lat="44.5206" lon="6.31174">
        <ele>935.281</ele>
        <time>2021-08-02T15:53:11Z</time>
      </trkpt>
      <trkpt lat="44.5206" lon="6.31173">
        <ele>935.273</ele>
        <time>2021-08-02T15:53:12Z</time>
      </trkpt>
      <trkpt lat="44.52062" lon="6.31171">
        <ele>934.913</ele>
        <time>2021-08-02T15:53:15Z</time>
      </trkpt>
      <trkpt lat="44.52063" lon="6.31171">
        <ele>935.472</ele>
        <time>2021-08-02T15:53:16Z</time>
      </trkpt>
      <trkpt lat="44.52075" lon="6.31171">
        <ele>936.846</ele>
        <time>2021-08-02T15:53:26Z</time>
      </trkpt>
      <trkpt lat="44.52078" lon="6.31171">
        <ele>937.58</ele>
        <time>2021-08-02T15:53:29Z</time>
      </trkpt>
      <trkpt lat="44.5208" lon="6.31172">
        <ele>938.227</ele>
        <time>2021-08-02T15:53:32Z</time>
      </trkpt>
      <trkpt lat="44.52081" lon="6.31172">
        <ele>938.084</ele>
        <time>2021-08-02T15:53:34Z</time>
      </trkpt>
      <trkpt lat="44.52081" lon="6.31172">
        <ele>938.084</ele>
        <time>2021-08-02T15:53:34Z</time>
      </trkpt>
      <trkpt lat="44.52081" lon="6.31172">
        <ele>938.112</ele>
        <time>2021-08-02T15:53:35Z</time>
      </trkpt>
      <trkpt lat="44.52081" lon="6.31172">
        <ele>938.112</ele>
        <time>2021-08-02T15:53:35Z</time>
      </trkpt>
      <trkpt lat="44.52082" lon="6.31172">
        <ele>938.231</ele>
        <time>2021-08-02T15:53:36Z</time>
      </trkpt>
      <trkpt lat="44.52083" lon="6.31172">
        <ele>937.89</ele>
        <time>2021-08-02T15:53:37Z</time>
      </trkpt>
      <trkpt lat="44.52087" lon="6.31175">
        <ele>937.513</ele>
        <time>2021-08-02T15:53:41Z</time>
      </trkpt>
      <trkpt lat="44.5209" lon="6.31177">
        <ele>937.894</ele>
        <time>2021-08-02T15:53:44Z</time>
      </trkpt>
      <trkpt lat="44.52092" lon="6.31176">
        <ele>937.72</ele>
        <time>2021-08-02T15:53:47Z</time>
      </trkpt>
      <trkpt lat="44.52095" lon="6.31175">
        <ele>938.096</ele>
        <time>2021-08-02T15:53:50Z</time>
      </trkpt>
      <trkpt lat="44.52096" lon="6.31175">
        <ele>937.86</ele>
        <time>2021-08-02T15:53:51Z</time>
      </trkpt>
      <trkpt lat="44.52097" lon="6.31177">
        <ele>938.335</ele>
        <time>2021-08-02T15:53:54Z</time>
      </trkpt>
      <trkpt lat="44.52097" lon="6.31179">
        <ele>938.321</ele>
        <time>2021-08-02T15:53:56Z</time>
      </trkpt>
      <trkpt lat="44.52097" lon="6.31182">
        <ele>939.21</ele>
        <time>2021-08-02T15:53:59Z</time>
      </trkpt>
      <trkpt lat="44.52099" lon="6.31183">
        <ele>939.449</ele>
        <time>2021-08-02T15:54:01Z</time>
      </trkpt>
      <trkpt lat="44.52102" lon="6.31183">
        <ele>940.347</ele>
        <time>2021-08-02T15:54:04Z</time>
      </trkpt>
      <trkpt lat="44.52103" lon="6.31183">
        <ele>939.992</ele>
        <time>2021-08-02T15:54:05Z</time>
      </trkpt>
      <trkpt lat="44.52106" lon="6.31185">
        <ele>940.077</ele>
        <time>2021-08-02T15:54:09Z</time>
      </trkpt>
      <trkpt lat="44.52107" lon="6.31186">
        <ele>939.862</ele>
        <time>2021-08-02T15:54:10Z</time>
      </trkpt>
      <trkpt lat="44.52108" lon="6.31187">
        <ele>940.38</ele>
        <time>2021-08-02T15:54:11Z</time>
      </trkpt>
      <trkpt lat="44.5211" lon="6.31189">
        <ele>940.549</ele>
        <time>2021-08-02T15:54:13Z</time>
      </trkpt>
      <trkpt lat="44.52112" lon="6.31189">
        <ele>940.972</ele>
        <time>2021-08-02T15:54:15Z</time>
      </trkpt>
      <trkpt lat="44.52113" lon="6.31189">
        <ele>940.995</ele>
        <time>2021-08-02T15:54:16Z</time>
      </trkpt>
      <trkpt lat="44.52115" lon="6.31189">
        <ele>941.181</ele>
        <time>2021-08-02T15:54:17Z</time>
      </trkpt>
      <trkpt lat="44.52117" lon="6.3119">
        <ele>941.753</ele>
        <time>2021-08-02T15:54:19Z</time>
      </trkpt>
      <trkpt lat="44.52123" lon="6.31189">
        <ele>942.803</ele>
        <time>2021-08-02T15:54:24Z</time>
      </trkpt>
      <trkpt lat="44.52123" lon="6.31189">
        <ele>942.803</ele>
        <time>2021-08-02T15:54:24Z</time>
      </trkpt>
      <trkpt lat="44.52125" lon="6.3119">
        <ele>943.249</ele>
        <time>2021-08-02T15:54:25Z</time>
      </trkpt>
      <trkpt lat="44.52127" lon="6.31191">
        <ele>943.728</ele>
        <time>2021-08-02T15:54:27Z</time>
      </trkpt>
      <trkpt lat="44.52129" lon="6.31192">
        <ele>944.12</ele>
        <time>2021-08-02T15:54:30Z</time>
      </trkpt>
      <trkpt lat="44.52129" lon="6.31192">
        <ele>944.12</ele>
        <time>2021-08-02T15:54:30Z</time>
      </trkpt>
      <trkpt lat="44.52129" lon="6.31192">
        <ele>944.224</ele>
        <time>2021-08-02T15:54:31Z</time>
      </trkpt>
      <trkpt lat="44.5213" lon="6.31193">
        <ele>944.193</ele>
        <time>2021-08-02T15:54:32Z</time>
      </trkpt>
      <trkpt lat="44.52131" lon="6.31194">
        <ele>945.215</ele>
        <time>2021-08-02T15:54:34Z</time>
      </trkpt>
      <trkpt lat="44.52133" lon="6.31197">
        <ele>946.013</ele>
        <time>2021-08-02T15:54:39Z</time>
      </trkpt>
      <trkpt lat="44.52133" lon="6.31197">
        <ele>946.013</ele>
        <time>2021-08-02T15:54:39Z</time>
      </trkpt>
      <trkpt lat="44.52133" lon="6.31197">
        <ele>946.33</ele>
        <time>2021-08-02T15:54:40Z</time>
      </trkpt>
      <trkpt lat="44.52133" lon="6.31197">
        <ele>946.351</ele>
        <time>2021-08-02T15:54:42Z</time>
      </trkpt>
      <trkpt lat="44.52134" lon="6.31196">
        <ele>946.555</ele>
        <time>2021-08-02T15:54:43Z</time>
      </trkpt>
      <trkpt lat="44.52134" lon="6.31196">
        <ele>946.555</ele>
        <time>2021-08-02T15:54:43Z</time>
      </trkpt>
      <trkpt lat="44.52134" lon="6.31196">
        <ele>946.652</ele>
        <time>2021-08-02T15:54:44Z</time>
      </trkpt>
      <trkpt lat="44.52134" lon="6.31196">
        <ele>946.514</ele>
        <time>2021-08-02T15:54:45Z</time>
      </trkpt>
      <trkpt lat="44.52134" lon="6.31195">
        <ele>946.22</ele>
        <time>2021-08-02T15:54:46Z</time>
      </trkpt>
      <trkpt lat="44.52133" lon="6.31194">
        <ele>946.205</ele>
        <time>2021-08-02T15:54:49Z</time>
      </trkpt>
      <trkpt lat="44.52133" lon="6.31194">
        <ele>946.252</ele>
        <time>2021-08-02T15:54:50Z</time>
      </trkpt>
      <trkpt lat="44.52133" lon="6.31194">
        <ele>946.644</ele>
        <time>2021-08-02T15:54:52Z</time>
      </trkpt>
      <trkpt lat="44.52133" lon="6.31194">
        <ele>946.165</ele>
        <time>2021-08-02T15:54:54Z</time>
      </trkpt>
      <trkpt lat="44.52132" lon="6.31194">
        <ele>945.773</ele>
        <time>2021-08-02T15:54:55Z</time>
      </trkpt>
      <trkpt lat="44.52133" lon="6.31194">
        <ele>946.362</ele>
        <time>2021-08-02T15:54:57Z</time>
      </trkpt>
      <trkpt lat="44.52134" lon="6.31193">
        <ele>946.054</ele>
        <time>2021-08-02T15:55:00Z</time>
      </trkpt>
      <trkpt lat="44.52135" lon="6.31193">
        <ele>945.446</ele>
        <time>2021-08-02T15:55:01Z</time>
      </trkpt>
      <trkpt lat="44.52136" lon="6.31193">
        <ele>946.174</ele>
        <time>2021-08-02T15:55:04Z</time>
      </trkpt>
      <trkpt lat="44.52136" lon="6.31193">
        <ele>946.127</ele>
        <time>2021-08-02T15:55:09Z</time>
      </trkpt>
      <trkpt lat="44.52137" lon="6.31192">
        <ele>946.888</ele>
        <time>2021-08-02T15:55:10Z</time>
      </trkpt>
      <trkpt lat="44.52137" lon="6.31193">
        <ele>947.889</ele>
        <time>2021-08-02T15:55:12Z</time>
      </trkpt>
      <trkpt lat="44.52137" lon="6.31193">
        <ele>947.906</ele>
        <time>2021-08-02T15:55:13Z</time>
      </trkpt>
      <trkpt lat="44.52137" lon="6.31194">
        <ele>947.964</ele>
        <time>2021-08-02T15:55:15Z</time>
      </trkpt>
      <trkpt lat="44.52137" lon="6.31194">
        <ele>947.965</ele>
        <time>2021-08-02T15:55:25Z</time>
      </trkpt>
      <trkpt lat="44.52137" lon="6.31194">
        <ele>947.704</ele>
        <time>2021-08-02T15:55:26Z</time>
      </trkpt>
      <trkpt lat="44.52136" lon="6.31195">
        <ele>945.565</ele>
        <time>2021-08-02T15:55:27Z</time>
      </trkpt>
      <trkpt lat="44.52134" lon="6.31195">
        <ele>947.422</ele>
        <time>2021-08-02T15:55:31Z</time>
      </trkpt>
      <trkpt lat="44.52133" lon="6.31194">
        <ele>948.3</ele>
        <time>2021-08-02T15:55:35Z</time>
      </trkpt>
      <trkpt lat="44.52133" lon="6.31194">
        <ele>949.076</ele>
        <time>2021-08-02T15:55:36Z</time>
      </trkpt>
      <trkpt lat="44.52133" lon="6.31194">
        <ele>949.173</ele>
        <time>2021-08-02T15:55:40Z</time>
      </trkpt>
      <trkpt lat="44.52132" lon="6.31194">
        <ele>949.556</ele>
        <time>2021-08-02T15:55:41Z</time>
      </trkpt>
      <trkpt lat="44.52132" lon="6.31194">
        <ele>949.951</ele>
        <time>2021-08-02T15:55:42Z</time>
      </trkpt>
      <trkpt lat="44.52132" lon="6.31194">
        <ele>950.121</ele>
        <time>2021-08-02T15:55:49Z</time>
      </trkpt>
      <trkpt lat="44.52133" lon="6.31195">
        <ele>950.558</ele>
        <time>2021-08-02T15:55:50Z</time>
      </trkpt>
      <trkpt lat="44.52134" lon="6.31195">
        <ele>950.774</ele>
        <time>2021-08-02T15:55:51Z</time>
      </trkpt>
      <trkpt lat="44.52134" lon="6.31199">
        <ele>948.465</ele>
        <time>2021-08-02T15:55:56Z</time>
      </trkpt>
      <trkpt lat="44.52132" lon="6.31201">
        <ele>948.715</ele>
        <time>2021-08-02T15:55:59Z</time>
      </trkpt>
      <trkpt lat="44.52132" lon="6.31201">
        <ele>948.715</ele>
        <time>2021-08-02T15:55:59Z</time>
      </trkpt>
      <trkpt lat="44.52132" lon="6.31201">
        <ele>948.568</ele>
        <time>2021-08-02T15:56:00Z</time>
      </trkpt>
      <trkpt lat="44.52132" lon="6.31201">
        <ele>948.872</ele>
        <time>2021-08-02T15:56:04Z</time>
      </trkpt>
      <trkpt lat="44.52131" lon="6.31201">
        <ele>949.579</ele>
        <time>2021-08-02T15:56:05Z</time>
      </trkpt>
      <trkpt lat="44.52131" lon="6.31201">
        <ele>949.579</ele>
        <time>2021-08-02T15:56:05Z</time>
      </trkpt>
      <trkpt lat="44.52131" lon="6.31201">
        <ele>950.227</ele>
        <time>2021-08-02T15:56:06Z</time>
      </trkpt>
      <trkpt lat="44.52131" lon="6.31201">
        <ele>950.429</ele>
        <time>2021-08-02T15:56:13Z</time>
      </trkpt>
      <trkpt lat="44.52129" lon="6.31202">
        <ele>951.314</ele>
        <time>2021-08-02T15:56:14Z</time>
      </trkpt>
      <trkpt lat="44.52126" lon="6.31203">
        <ele>951.669</ele>
        <time>2021-08-02T15:56:17Z</time>
      </trkpt>
      <trkpt lat="44.5212" lon="6.31206">
        <ele>953.808</ele>
        <time>2021-08-02T15:56:23Z</time>
      </trkpt>
      <trkpt lat="44.52119" lon="6.31206">
        <ele>953.818</ele>
        <time>2021-08-02T15:56:24Z</time>
      </trkpt>
      <trkpt lat="44.52116" lon="6.31207">
        <ele>953.316</ele>
        <time>2021-08-02T15:56:28Z</time>
      </trkpt>
      <trkpt lat="44.52114" lon="6.31209">
        <ele>955.072</ele>
        <time>2021-08-02T15:56:31Z</time>
      </trkpt>
      <trkpt lat="44.5211" lon="6.31212">
        <ele>954.419</ele>
        <time>2021-08-02T15:56:37Z</time>
      </trkpt>
      <trkpt lat="44.5211" lon="6.31212">
        <ele>954.419</ele>
        <time>2021-08-02T15:56:37Z</time>
      </trkpt>
      <trkpt lat="44.5211" lon="6.31213">
        <ele>954.115</ele>
        <time>2021-08-02T15:56:38Z</time>
      </trkpt>
      <trkpt lat="44.5211" lon="6.31213">
        <ele>953.658</ele>
        <time>2021-08-02T15:56:40Z</time>
      </trkpt>
      <trkpt lat="44.52109" lon="6.31213">
        <ele>953.752</ele>
        <time>2021-08-02T15:56:41Z</time>
      </trkpt>
      <trkpt lat="44.52106" lon="6.31216">
        <ele>954.72</ele>
        <time>2021-08-02T15:56:45Z</time>
      </trkpt>
      <trkpt lat="44.52105" lon="6.31218">
        <ele>954.555</ele>
        <time>2021-08-02T15:56:46Z</time>
      </trkpt>
      <trkpt lat="44.52093" lon="6.31229">
        <ele>952.76</ele>
        <time>2021-08-02T15:57:00Z</time>
      </trkpt>
      <trkpt lat="44.52088" lon="6.31231">
        <ele>952.941</ele>
        <time>2021-08-02T15:57:05Z</time>
      </trkpt>
      <trkpt lat="44.52077" lon="6.31231">
        <ele>953.593</ele>
        <time>2021-08-02T15:57:17Z</time>
      </trkpt>
      <trkpt lat="44.52064" lon="6.31239">
        <ele>953.285</ele>
        <time>2021-08-02T15:57:30Z</time>
      </trkpt>
      <trkpt lat="44.52064" lon="6.3124">
        <ele>953.398</ele>
        <time>2021-08-02T15:57:31Z</time>
      </trkpt>
      <trkpt lat="44.52063" lon="6.31241">
        <ele>953.253</ele>
        <time>2021-08-02T15:57:32Z</time>
      </trkpt>
      <trkpt lat="44.52063" lon="6.31241">
        <ele>953.134</ele>
        <time>2021-08-02T15:57:33Z</time>
      </trkpt>
      <trkpt lat="44.52058" lon="6.31249">
        <ele>952.265</ele>
        <time>2021-08-02T15:57:41Z</time>
      </trkpt>
      <trkpt lat="44.52058" lon="6.31249">
        <ele>952.25</ele>
        <time>2021-08-02T15:57:42Z</time>
      </trkpt>
      <trkpt lat="44.52058" lon="6.31249">
        <ele>952.139</ele>
        <time>2021-08-02T15:57:53Z</time>
      </trkpt>
      <trkpt lat="44.52058" lon="6.31249">
        <ele>952.466</ele>
        <time>2021-08-02T15:57:54Z</time>
      </trkpt>
      <trkpt lat="44.52058" lon="6.31249">
        <ele>952.495</ele>
        <time>2021-08-02T15:57:55Z</time>
      </trkpt>
      <trkpt lat="44.5206" lon="6.31245">
        <ele>949.904</ele>
        <time>2021-08-02T15:58:00Z</time>
      </trkpt>
      <trkpt lat="44.52061" lon="6.31243">
        <ele>947.974</ele>
        <time>2021-08-02T15:58:02Z</time>
      </trkpt>
      <trkpt lat="44.52062" lon="6.31241">
        <ele>947.939</ele>
        <time>2021-08-02T15:58:04Z</time>
      </trkpt>
      <trkpt lat="44.52066" lon="6.31237">
        <ele>949.112</ele>
        <time>2021-08-02T15:58:10Z</time>
      </trkpt>
      <trkpt lat="44.52067" lon="6.31236">
        <ele>949.136</ele>
        <time>2021-08-02T15:58:11Z</time>
      </trkpt>
      <trkpt lat="44.52076" lon="6.31229">
        <ele>951.213</ele>
        <time>2021-08-02T15:58:19Z</time>
      </trkpt>
      <trkpt lat="44.5208" lon="6.3123">
        <ele>951.044</ele>
        <time>2021-08-02T15:58:22Z</time>
      </trkpt>
      <trkpt lat="44.52085" lon="6.31231">
        <ele>950.905</ele>
        <time>2021-08-02T15:58:26Z</time>
      </trkpt>
      <trkpt lat="44.52088" lon="6.31228">
        <ele>951.325</ele>
        <time>2021-08-02T15:58:31Z</time>
      </trkpt>
      <trkpt lat="44.5209" lon="6.31226">
        <ele>950.909</ele>
        <time>2021-08-02T15:58:35Z</time>
      </trkpt>
      <trkpt lat="44.52091" lon="6.31225">
        <ele>951.151</ele>
        <time>2021-08-02T15:58:36Z</time>
      </trkpt>
      <trkpt lat="44.52094" lon="6.31223">
        <ele>951.23</ele>
        <time>2021-08-02T15:58:38Z</time>
      </trkpt>
      <trkpt lat="44.52098" lon="6.31218">
        <ele>952.117</ele>
        <time>2021-08-02T15:58:43Z</time>
      </trkpt>
      <trkpt lat="44.521" lon="6.31214">
        <ele>952.802</ele>
        <time>2021-08-02T15:58:46Z</time>
      </trkpt>
      <trkpt lat="44.52104" lon="6.31212">
        <ele>953.206</ele>
        <time>2021-08-02T15:58:49Z</time>
      </trkpt>
      <trkpt lat="44.5211" lon="6.3121">
        <ele>953.295</ele>
        <time>2021-08-02T15:58:52Z</time>
      </trkpt>
      <trkpt lat="44.52116" lon="6.31208">
        <ele>953.773</ele>
        <time>2021-08-02T15:58:56Z</time>
      </trkpt>
      <trkpt lat="44.52119" lon="6.31206">
        <ele>953.587</ele>
        <time>2021-08-02T15:59:00Z</time>
      </trkpt>
      <trkpt lat="44.52121" lon="6.31204">
        <ele>952.08</ele>
        <time>2021-08-02T15:59:03Z</time>
      </trkpt>
      <trkpt lat="44.52124" lon="6.31202">
        <ele>952.502</ele>
        <time>2021-08-02T15:59:06Z</time>
      </trkpt>
      <trkpt lat="44.52137" lon="6.31195">
        <ele>951.992</ele>
        <time>2021-08-02T15:59:15Z</time>
      </trkpt>
      <trkpt lat="44.5214" lon="6.31191">
        <ele>952.287</ele>
        <time>2021-08-02T15:59:19Z</time>
      </trkpt>
      <trkpt lat="44.5214" lon="6.31191">
        <ele>952.32</ele>
        <time>2021-08-02T15:59:20Z</time>
      </trkpt>
      <trkpt lat="44.52141" lon="6.3119">
        <ele>952.529</ele>
        <time>2021-08-02T15:59:21Z</time>
      </trkpt>
      <trkpt lat="44.52142" lon="6.31189">
        <ele>952.795</ele>
        <time>2021-08-02T15:59:22Z</time>
      </trkpt>
      <trkpt lat="44.52144" lon="6.31186">
        <ele>952.492</ele>
        <time>2021-08-02T15:59:24Z</time>
      </trkpt>
      <trkpt lat="44.52149" lon="6.31183">
        <ele>952.884</ele>
        <time>2021-08-02T15:59:28Z</time>
      </trkpt>
      <trkpt lat="44.5215" lon="6.31183">
        <ele>953.006</ele>
        <time>2021-08-02T15:59:29Z</time>
      </trkpt>
      <trkpt lat="44.52153" lon="6.31183">
        <ele>953.191</ele>
        <time>2021-08-02T15:59:31Z</time>
      </trkpt>
      <trkpt lat="44.52166" lon="6.31177">
        <ele>953.323</ele>
        <time>2021-08-02T15:59:41Z</time>
      </trkpt>
      <trkpt lat="44.52174" lon="6.31168">
        <ele>954.193</ele>
        <time>2021-08-02T15:59:49Z</time>
      </trkpt>
      <trkpt lat="44.52175" lon="6.31167">
        <ele>954.175</ele>
        <time>2021-08-02T15:59:52Z</time>
      </trkpt>
      <trkpt lat="44.5218" lon="6.31162">
        <ele>954.166</ele>
        <time>2021-08-02T15:59:57Z</time>
      </trkpt>
      <trkpt lat="44.52188" lon="6.31157">
        <ele>953.642</ele>
        <time>2021-08-02T16:00:06Z</time>
      </trkpt>
      <trkpt lat="44.52193" lon="6.31156">
        <ele>954.136</ele>
        <time>2021-08-02T16:00:10Z</time>
      </trkpt>
      <trkpt lat="44.52205" lon="6.31151">
        <ele>954.383</ele>
        <time>2021-08-02T16:00:24Z</time>
      </trkpt>
      <trkpt lat="44.52206" lon="6.3115">
        <ele>954.478</ele>
        <time>2021-08-02T16:00:26Z</time>
      </trkpt>
      <trkpt lat="44.52206" lon="6.3115">
        <ele>954.478</ele>
        <time>2021-08-02T16:00:26Z</time>
      </trkpt>
      <trkpt lat="44.52206" lon="6.3115">
        <ele>954.783</ele>
        <time>2021-08-02T16:00:27Z</time>
      </trkpt>
      <trkpt lat="44.52206" lon="6.3115">
        <ele>954.851</ele>
        <time>2021-08-02T16:01:32Z</time>
      </trkpt>
      <trkpt lat="44.52206" lon="6.31148">
        <ele>954.9</ele>
        <time>2021-08-02T16:01:33Z</time>
      </trkpt>
      <trkpt lat="44.52203" lon="6.31147">
        <ele>954.81</ele>
        <time>2021-08-02T16:01:36Z</time>
      </trkpt>
      <trkpt lat="44.52199" lon="6.31148">
        <ele>954.369</ele>
        <time>2021-08-02T16:01:40Z</time>
      </trkpt>
      <trkpt lat="44.52198" lon="6.31146">
        <ele>953.449</ele>
        <time>2021-08-02T16:01:43Z</time>
      </trkpt>
      <trkpt lat="44.52197" lon="6.31144">
        <ele>953.471</ele>
        <time>2021-08-02T16:01:48Z</time>
      </trkpt>
      <trkpt lat="44.52197" lon="6.31144">
        <ele>953.501</ele>
        <time>2021-08-02T16:01:49Z</time>
      </trkpt>
      <trkpt lat="44.52204" lon="6.31138">
        <ele>952.96</ele>
        <time>2021-08-02T16:01:53Z</time>
      </trkpt>
      <trkpt lat="44.5221" lon="6.31135">
        <ele>952.627</ele>
        <time>2021-08-02T16:01:57Z</time>
      </trkpt>
      <trkpt lat="44.52224" lon="6.31123">
        <ele>954.414</ele>
        <time>2021-08-02T16:02:08Z</time>
      </trkpt>
      <trkpt lat="44.52244" lon="6.31121">
        <ele>953.212</ele>
        <time>2021-08-02T16:02:23Z</time>
      </trkpt>
      <trkpt lat="44.52254" lon="6.31122">
        <ele>951.028</ele>
        <time>2021-08-02T16:02:30Z</time>
      </trkpt>
      <trkpt lat="44.5226" lon="6.31123">
        <ele>950.012</ele>
        <time>2021-08-02T16:02:34Z</time>
      </trkpt>
      <trkpt lat="44.52267" lon="6.31122">
        <ele>949.636</ele>
        <time>2021-08-02T16:02:37Z</time>
      </trkpt>
      <trkpt lat="44.52274" lon="6.3112">
        <ele>948.007</ele>
        <time>2021-08-02T16:02:41Z</time>
      </trkpt>
      <trkpt lat="44.52277" lon="6.31118">
        <ele>946.968</ele>
        <time>2021-08-02T16:02:43Z</time>
      </trkpt>
      <trkpt lat="44.52283" lon="6.31112">
        <ele>944.862</ele>
        <time>2021-08-02T16:02:49Z</time>
      </trkpt>
      <trkpt lat="44.52288" lon="6.31106">
        <ele>944.41</ele>
        <time>2021-08-02T16:02:55Z</time>
      </trkpt>
      <trkpt lat="44.5229" lon="6.31101">
        <ele>943.964</ele>
        <time>2021-08-02T16:02:58Z</time>
      </trkpt>
      <trkpt lat="44.5229" lon="6.3109">
        <ele>943.416</ele>
        <time>2021-08-02T16:03:02Z</time>
      </trkpt>
      <trkpt lat="44.5229" lon="6.31085">
        <ele>943.356</ele>
        <time>2021-08-02T16:03:04Z</time>
      </trkpt>
      <trkpt lat="44.52285" lon="6.31071">
        <ele>944.299</ele>
        <time>2021-08-02T16:03:13Z</time>
      </trkpt>
      <trkpt lat="44.52285" lon="6.31071">
        <ele>944.388</ele>
        <time>2021-08-02T16:03:15Z</time>
      </trkpt>
      <trkpt lat="44.52285" lon="6.31071">
        <ele>944.747</ele>
        <time>2021-08-02T16:03:27Z</time>
      </trkpt>
      <trkpt lat="44.52286" lon="6.31071">
        <ele>944.383</ele>
        <time>2021-08-02T16:03:28Z</time>
      </trkpt>
      <trkpt lat="44.52286" lon="6.31067">
        <ele>942.229</ele>
        <time>2021-08-02T16:03:33Z</time>
      </trkpt>
      <trkpt lat="44.52286" lon="6.31062">
        <ele>942.378</ele>
        <time>2021-08-02T16:03:36Z</time>
      </trkpt>
      <trkpt lat="44.52289" lon="6.31052">
        <ele>941.419</ele>
        <time>2021-08-02T16:03:41Z</time>
      </trkpt>
      <trkpt lat="44.52293" lon="6.31045">
        <ele>941.402</ele>
        <time>2021-08-02T16:03:45Z</time>
      </trkpt>
      <trkpt lat="44.52303" lon="6.31031">
        <ele>940.62</ele>
        <time>2021-08-02T16:03:56Z</time>
      </trkpt>
      <trkpt lat="44.52309" lon="6.31024">
        <ele>940.062</ele>
        <time>2021-08-02T16:04:02Z</time>
      </trkpt>
      <trkpt lat="44.52309" lon="6.31023">
        <ele>939.777</ele>
        <time>2021-08-02T16:04:03Z</time>
      </trkpt>
      <trkpt lat="44.52311" lon="6.31017">
        <ele>939.883</ele>
        <time>2021-08-02T16:04:06Z</time>
      </trkpt>
      <trkpt lat="44.52314" lon="6.31011">
        <ele>940.596</ele>
        <time>2021-08-02T16:04:10Z</time>
      </trkpt>
      <trkpt lat="44.52314" lon="6.31007">
        <ele>940.681</ele>
        <time>2021-08-02T16:04:12Z</time>
      </trkpt>
      <trkpt lat="44.52317" lon="6.30995">
        <ele>941.035</ele>
        <time>2021-08-02T16:04:18Z</time>
      </trkpt>
      <trkpt lat="44.52317" lon="6.30989">
        <ele>941.707</ele>
        <time>2021-08-02T16:04:21Z</time>
      </trkpt>
      <trkpt lat="44.52317" lon="6.30986">
        <ele>941.455</ele>
        <time>2021-08-02T16:04:23Z</time>
      </trkpt>
      <trkpt lat="44.52317" lon="6.30984">
        <ele>941.325</ele>
        <time>2021-08-02T16:04:24Z</time>
      </trkpt>
      <trkpt lat="44.52317" lon="6.3097">
        <ele>940.928</ele>
        <time>2021-08-02T16:04:29Z</time>
      </trkpt>
      <trkpt lat="44.52322" lon="6.30926">
        <ele>939.406</ele>
        <time>2021-08-02T16:04:48Z</time>
      </trkpt>
      <trkpt lat="44.52324" lon="6.30914">
        <ele>939.625</ele>
        <time>2021-08-02T16:04:54Z</time>
      </trkpt>
      <trkpt lat="44.52327" lon="6.30902">
        <ele>940.135</ele>
        <time>2021-08-02T16:05:00Z</time>
      </trkpt>
      <trkpt lat="44.52356" lon="6.30865">
        <ele>939.486</ele>
        <time>2021-08-02T16:05:29Z</time>
      </trkpt>
      <trkpt lat="44.52363" lon="6.30863">
        <ele>938.634</ele>
        <time>2021-08-02T16:05:34Z</time>
      </trkpt>
      <trkpt lat="44.52368" lon="6.3086">
        <ele>938.37</ele>
        <time>2021-08-02T16:05:37Z</time>
      </trkpt>
      <trkpt lat="44.52368" lon="6.3086">
        <ele>938.303</ele>
        <time>2021-08-02T16:05:38Z</time>
      </trkpt>
      <trkpt lat="44.52368" lon="6.3086">
        <ele>938.303</ele>
        <time>2021-08-02T16:05:38Z</time>
      </trkpt>
      <trkpt lat="44.52368" lon="6.3086">
        <ele>938.076</ele>
        <time>2021-08-02T16:05:39Z</time>
      </trkpt>
      <trkpt lat="44.52368" lon="6.3086">
        <ele>938.076</ele>
        <time>2021-08-02T16:05:39Z</time>
      </trkpt>
      <trkpt lat="44.52368" lon="6.3086">
        <ele>937.935</ele>
        <time>2021-08-02T16:05:40Z</time>
      </trkpt>
      <trkpt lat="44.52368" lon="6.3086">
        <ele>937.933</ele>
        <time>2021-08-02T16:05:57Z</time>
      </trkpt>
      <trkpt lat="44.52369" lon="6.3086">
        <ele>938.124</ele>
        <time>2021-08-02T16:05:58Z</time>
      </trkpt>
      <trkpt lat="44.52369" lon="6.3086">
        <ele>938.124</ele>
        <time>2021-08-02T16:05:58Z</time>
      </trkpt>
      <trkpt lat="44.52369" lon="6.3086">
        <ele>938.118</ele>
        <time>2021-08-02T16:05:59Z</time>
      </trkpt>
      <trkpt lat="44.52369" lon="6.3086">
        <ele>938.118</ele>
        <time>2021-08-02T16:06:20Z</time>
      </trkpt>
      <trkpt lat="44.52369" lon="6.3086">
        <ele>938.033</ele>
        <time>2021-08-02T16:06:21Z</time>
      </trkpt>
      <trkpt lat="44.5237" lon="6.30861">
        <ele>937.126</ele>
        <time>2021-08-02T16:06:23Z</time>
      </trkpt>
      <trkpt lat="44.52374" lon="6.30862">
        <ele>937.226</ele>
        <time>2021-08-02T16:06:27Z</time>
      </trkpt>
      <trkpt lat="44.52383" lon="6.30861">
        <ele>937.085</ele>
        <time>2021-08-02T16:06:36Z</time>
      </trkpt>
      <trkpt lat="44.52393" lon="6.30859">
        <ele>937.217</ele>
        <time>2021-08-02T16:06:43Z</time>
      </trkpt>
      <trkpt lat="44.52405" lon="6.30857">
        <ele>936.504</ele>
        <time>2021-08-02T16:06:53Z</time>
      </trkpt>
      <trkpt lat="44.52405" lon="6.30857">
        <ele>935.05</ele>
        <time>2021-08-02T16:06:54Z</time>
      </trkpt>
      <trkpt lat="44.52405" lon="6.30857">
        <ele>935.053</ele>
        <time>2021-08-02T16:06:55Z</time>
      </trkpt>
      <trkpt lat="44.52405" lon="6.30857">
        <ele>935.464</ele>
        <time>2021-08-02T16:07:06Z</time>
      </trkpt>
      <trkpt lat="44.52404" lon="6.30859">
        <ele>935.395</ele>
        <time>2021-08-02T16:07:07Z</time>
      </trkpt>
      <trkpt lat="44.52405" lon="6.30859">
        <ele>935.164</ele>
        <time>2021-08-02T16:07:08Z</time>
      </trkpt>
      <trkpt lat="44.5243" lon="6.30853">
        <ele>933.12</ele>
        <time>2021-08-02T16:07:30Z</time>
      </trkpt>
      <trkpt lat="44.52498" lon="6.30822">
        <ele>931.682</ele>
        <time>2021-08-02T16:08:24Z</time>
      </trkpt>
      <trkpt lat="44.52504" lon="6.30814">
        <ele>931.489</ele>
        <time>2021-08-02T16:08:30Z</time>
      </trkpt>
      <trkpt lat="44.52514" lon="6.30801">
        <ele>930.202</ele>
        <time>2021-08-02T16:08:41Z</time>
      </trkpt>
      <trkpt lat="44.52519" lon="6.30794">
        <ele>930.333</ele>
        <time>2021-08-02T16:08:47Z</time>
      </trkpt>
      <trkpt lat="44.52524" lon="6.30788">
        <ele>929.849</ele>
        <time>2021-08-02T16:08:52Z</time>
      </trkpt>
      <trkpt lat="44.52527" lon="6.30787">
        <ele>929.281</ele>
        <time>2021-08-02T16:08:55Z</time>
      </trkpt>
      <trkpt lat="44.52554" lon="6.30768">
        <ele>928.567</ele>
        <time>2021-08-02T16:09:18Z</time>
      </trkpt>
      <trkpt lat="44.52564" lon="6.30754">
        <ele>928.396</ele>
        <time>2021-08-02T16:09:29Z</time>
      </trkpt>
      <trkpt lat="44.52568" lon="6.30743">
        <ele>927.841</ele>
        <time>2021-08-02T16:09:37Z</time>
      </trkpt>
      <trkpt lat="44.5257" lon="6.30726">
        <ele>928.139</ele>
        <time>2021-08-02T16:09:46Z</time>
      </trkpt>
      <trkpt lat="44.5257" lon="6.30711">
        <ele>928.023</ele>
        <time>2021-08-02T16:09:54Z</time>
      </trkpt>
      <trkpt lat="44.52574" lon="6.307">
        <ele>928.175</ele>
        <time>2021-08-02T16:10:01Z</time>
      </trkpt>
      <trkpt lat="44.52586" lon="6.30692">
        <ele>927.592</ele>
        <time>2021-08-02T16:10:11Z</time>
      </trkpt>
      <trkpt lat="44.52598" lon="6.30685">
        <ele>927.129</ele>
        <time>2021-08-02T16:10:20Z</time>
      </trkpt>
      <trkpt lat="44.52603" lon="6.30679">
        <ele>926.596</ele>
        <time>2021-08-02T16:10:25Z</time>
      </trkpt>
      <trkpt lat="44.52626" lon="6.30653">
        <ele>924.387</ele>
        <time>2021-08-02T16:10:45Z</time>
      </trkpt>
      <trkpt lat="44.52641" lon="6.30638">
        <ele>923.936</ele>
        <time>2021-08-02T16:10:58Z</time>
      </trkpt>
      <trkpt lat="44.52644" lon="6.30634">
        <ele>923.45</ele>
        <time>2021-08-02T16:11:01Z</time>
      </trkpt>
      <trkpt lat="44.52661" lon="6.30613">
        <ele>920.977</ele>
        <time>2021-08-02T16:11:18Z</time>
      </trkpt>
      <trkpt lat="44.52665" lon="6.30613">
        <ele>918.938</ele>
        <time>2021-08-02T16:11:21Z</time>
      </trkpt>
      <trkpt lat="44.52669" lon="6.30611">
        <ele>918.301</ele>
        <time>2021-08-02T16:11:25Z</time>
      </trkpt>
      <trkpt lat="44.52683" lon="6.30597">
        <ele>920.073</ele>
        <time>2021-08-02T16:11:37Z</time>
      </trkpt>
      <trkpt lat="44.52694" lon="6.30575">
        <ele>918.029</ele>
        <time>2021-08-02T16:11:50Z</time>
      </trkpt>
      <trkpt lat="44.52702" lon="6.30551">
        <ele>917.749</ele>
        <time>2021-08-02T16:12:01Z</time>
      </trkpt>
      <trkpt lat="44.52711" lon="6.30523">
        <ele>917.739</ele>
        <time>2021-08-02T16:12:17Z</time>
      </trkpt>
      <trkpt lat="44.52717" lon="6.30515">
        <ele>918.335</ele>
        <time>2021-08-02T16:12:22Z</time>
      </trkpt>
      <trkpt lat="44.52721" lon="6.30511">
        <ele>917.837</ele>
        <time>2021-08-02T16:12:26Z</time>
      </trkpt>
      <trkpt lat="44.52728" lon="6.30506">
        <ele>917.286</ele>
        <time>2021-08-02T16:12:32Z</time>
      </trkpt>
      <trkpt lat="44.52735" lon="6.30499">
        <ele>917.603</ele>
        <time>2021-08-02T16:12:37Z</time>
      </trkpt>
      <trkpt lat="44.52742" lon="6.30495">
        <ele>917.22</ele>
        <time>2021-08-02T16:12:42Z</time>
      </trkpt>
      <trkpt lat="44.52751" lon="6.30488">
        <ele>917.112</ele>
        <time>2021-08-02T16:12:50Z</time>
      </trkpt>
      <trkpt lat="44.52774" lon="6.30483">
        <ele>917.618</ele>
        <time>2021-08-02T16:13:10Z</time>
      </trkpt>
      <trkpt lat="44.52775" lon="6.30483">
        <ele>917.472</ele>
        <time>2021-08-02T16:13:11Z</time>
      </trkpt>
      <trkpt lat="44.52782" lon="6.3048">
        <ele>917.137</ele>
        <time>2021-08-02T16:13:16Z</time>
      </trkpt>
      <trkpt lat="44.52796" lon="6.30476">
        <ele>915.973</ele>
        <time>2021-08-02T16:13:25Z</time>
      </trkpt>
      <trkpt lat="44.52811" lon="6.30471">
        <ele>915.585</ele>
        <time>2021-08-02T16:13:37Z</time>
      </trkpt>
      <trkpt lat="44.52816" lon="6.30474">
        <ele>915.234</ele>
        <time>2021-08-02T16:13:39Z</time>
      </trkpt>
      <trkpt lat="44.52824" lon="6.30476">
        <ele>915.267</ele>
        <time>2021-08-02T16:13:43Z</time>
      </trkpt>
      <trkpt lat="44.52828" lon="6.30473">
        <ele>914.91</ele>
        <time>2021-08-02T16:13:47Z</time>
      </trkpt>
      <trkpt lat="44.52864" lon="6.30478">
        <ele>915.48</ele>
        <time>2021-08-02T16:14:13Z</time>
      </trkpt>
      <trkpt lat="44.52867" lon="6.30478">
        <ele>915.289</ele>
        <time>2021-08-02T16:14:15Z</time>
      </trkpt>
      <trkpt lat="44.52877" lon="6.30472">
        <ele>914.123</ele>
        <time>2021-08-02T16:14:24Z</time>
      </trkpt>
      <trkpt lat="44.52877" lon="6.30472">
        <ele>914.135</ele>
        <time>2021-08-02T16:14:25Z</time>
      </trkpt>
      <trkpt lat="44.52877" lon="6.30472">
        <ele>913.967</ele>
        <time>2021-08-02T16:14:26Z</time>
      </trkpt>
      <trkpt lat="44.52877" lon="6.30472">
        <ele>913.492</ele>
        <time>2021-08-02T16:15:13Z</time>
      </trkpt>
      <trkpt lat="44.52877" lon="6.30473">
        <ele>913.387</ele>
        <time>2021-08-02T16:15:14Z</time>
      </trkpt>
      <trkpt lat="44.52877" lon="6.30473">
        <ele>913.373</ele>
        <time>2021-08-02T16:15:16Z</time>
      </trkpt>
      <trkpt lat="44.52877" lon="6.30473">
        <ele>913.437</ele>
        <time>2021-08-02T16:15:22Z</time>
      </trkpt>
      <trkpt lat="44.52878" lon="6.30474">
        <ele>912.933</ele>
        <time>2021-08-02T16:15:23Z</time>
      </trkpt>
      <trkpt lat="44.52879" lon="6.30478">
        <ele>913.862</ele>
        <time>2021-08-02T16:15:25Z</time>
      </trkpt>
      <trkpt lat="44.52878" lon="6.30483">
        <ele>913.192</ele>
        <time>2021-08-02T16:15:28Z</time>
      </trkpt>
      <trkpt lat="44.52878" lon="6.30493">
        <ele>912.972</ele>
        <time>2021-08-02T16:15:33Z</time>
      </trkpt>
      <trkpt lat="44.52876" lon="6.30499">
        <ele>910.683</ele>
        <time>2021-08-02T16:15:37Z</time>
      </trkpt>
      <trkpt lat="44.52873" lon="6.30511">
        <ele>909.994</ele>
        <time>2021-08-02T16:15:44Z</time>
      </trkpt>
      <trkpt lat="44.52865" lon="6.30555">
        <ele>909.177</ele>
        <time>2021-08-02T16:16:09Z</time>
      </trkpt>
      <trkpt lat="44.52867" lon="6.3056">
        <ele>909.169</ele>
        <time>2021-08-02T16:16:12Z</time>
      </trkpt>
      <trkpt lat="44.52867" lon="6.30567">
        <ele>909.028</ele>
        <time>2021-08-02T16:16:16Z</time>
      </trkpt>
      <trkpt lat="44.52865" lon="6.30581">
        <ele>909.004</ele>
        <time>2021-08-02T16:16:24Z</time>
      </trkpt>
      <trkpt lat="44.52865" lon="6.30585">
        <ele>909.053</ele>
        <time>2021-08-02T16:16:27Z</time>
      </trkpt>
      <trkpt lat="44.52863" lon="6.30594">
        <ele>908.798</ele>
        <time>2021-08-02T16:16:32Z</time>
      </trkpt>
      <trkpt lat="44.52862" lon="6.30598">
        <ele>908.151</ele>
        <time>2021-08-02T16:16:35Z</time>
      </trkpt>
      <trkpt lat="44.52861" lon="6.30603">
        <ele>907.696</ele>
        <time>2021-08-02T16:16:39Z</time>
      </trkpt>
      <trkpt lat="44.5286" lon="6.30607">
        <ele>907.56</ele>
        <time>2021-08-02T16:16:42Z</time>
      </trkpt>
      <trkpt lat="44.52859" lon="6.30615">
        <ele>907.167</ele>
        <time>2021-08-02T16:16:47Z</time>
      </trkpt>
      <trkpt lat="44.52861" lon="6.30623">
        <ele>905.839</ele>
        <time>2021-08-02T16:16:52Z</time>
      </trkpt>
      <trkpt lat="44.52861" lon="6.30628">
        <ele>904.442</ele>
        <time>2021-08-02T16:16:55Z</time>
      </trkpt>
      <trkpt lat="44.52862" lon="6.30639">
        <ele>903.382</ele>
        <time>2021-08-02T16:17:02Z</time>
      </trkpt>
      <trkpt lat="44.52866" lon="6.30646">
        <ele>902.508</ele>
        <time>2021-08-02T16:17:08Z</time>
      </trkpt>
      <trkpt lat="44.5287" lon="6.3065">
        <ele>902.224</ele>
        <time>2021-08-02T16:17:11Z</time>
      </trkpt>
      <trkpt lat="44.5287" lon="6.30656">
        <ele>902.281</ele>
        <time>2021-08-02T16:17:14Z</time>
      </trkpt>
      <trkpt lat="44.52872" lon="6.30661">
        <ele>902.526</ele>
        <time>2021-08-02T16:17:17Z</time>
      </trkpt>
      <trkpt lat="44.52872" lon="6.30666">
        <ele>901.806</ele>
        <time>2021-08-02T16:17:20Z</time>
      </trkpt>
      <trkpt lat="44.52872" lon="6.30673">
        <ele>901.67</ele>
        <time>2021-08-02T16:17:24Z</time>
      </trkpt>
      <trkpt lat="44.52871" lon="6.30677">
        <ele>901.144</ele>
        <time>2021-08-02T16:17:26Z</time>
      </trkpt>
      <trkpt lat="44.5287" lon="6.30679">
        <ele>900.74</ele>
        <time>2021-08-02T16:17:28Z</time>
      </trkpt>
      <trkpt lat="44.52867" lon="6.30685">
        <ele>898.659</ele>
        <time>2021-08-02T16:17:32Z</time>
      </trkpt>
      <trkpt lat="44.52863" lon="6.30705">
        <ele>897.224</ele>
        <time>2021-08-02T16:17:44Z</time>
      </trkpt>
      <trkpt lat="44.52863" lon="6.30708">
        <ele>896.585</ele>
        <time>2021-08-02T16:17:46Z</time>
      </trkpt>
      <trkpt lat="44.52868" lon="6.30719">
        <ele>896.555</ele>
        <time>2021-08-02T16:17:54Z</time>
      </trkpt>
      <trkpt lat="44.5287" lon="6.30721">
        <ele>896.177</ele>
        <time>2021-08-02T16:17:56Z</time>
      </trkpt>
      <trkpt lat="44.52872" lon="6.30725">
        <ele>896.025</ele>
        <time>2021-08-02T16:17:59Z</time>
      </trkpt>
      <trkpt lat="44.52874" lon="6.30729">
        <ele>895.327</ele>
        <time>2021-08-02T16:18:02Z</time>
      </trkpt>
      <trkpt lat="44.52875" lon="6.3073">
        <ele>895.573</ele>
        <time>2021-08-02T16:18:04Z</time>
      </trkpt>
      <trkpt lat="44.52876" lon="6.30731">
        <ele>895.686</ele>
        <time>2021-08-02T16:18:07Z</time>
      </trkpt>
      <trkpt lat="44.52878" lon="6.30735">
        <ele>894.355</ele>
        <time>2021-08-02T16:18:10Z</time>
      </trkpt>
      <trkpt lat="44.52882" lon="6.3074">
        <ele>894.169</ele>
        <time>2021-08-02T16:18:13Z</time>
      </trkpt>
      <trkpt lat="44.52884" lon="6.30742">
        <ele>894.02</ele>
        <time>2021-08-02T16:18:14Z</time>
      </trkpt>
      <trkpt lat="44.52892" lon="6.30751">
        <ele>892.707</ele>
        <time>2021-08-02T16:18:22Z</time>
      </trkpt>
      <trkpt lat="44.52893" lon="6.30755">
        <ele>891.823</ele>
        <time>2021-08-02T16:18:24Z</time>
      </trkpt>
      <trkpt lat="44.52892" lon="6.30758">
        <ele>891.105</ele>
        <time>2021-08-02T16:18:26Z</time>
      </trkpt>
      <trkpt lat="44.52883" lon="6.30774">
        <ele>888.934</ele>
        <time>2021-08-02T16:18:39Z</time>
      </trkpt>
      <trkpt lat="44.52885" lon="6.3078">
        <ele>887.539</ele>
        <time>2021-08-02T16:18:44Z</time>
      </trkpt>
      <trkpt lat="44.52886" lon="6.30786">
        <ele>887.135</ele>
        <time>2021-08-02T16:18:49Z</time>
      </trkpt>
      <trkpt lat="44.52886" lon="6.3079">
        <ele>886.212</ele>
        <time>2021-08-02T16:18:52Z</time>
      </trkpt>
      <trkpt lat="44.52888" lon="6.30795">
        <ele>884.406</ele>
        <time>2021-08-02T16:18:57Z</time>
      </trkpt>
      <trkpt lat="44.52894" lon="6.30798">
        <ele>883.361</ele>
        <time>2021-08-02T16:19:04Z</time>
      </trkpt>
      <trkpt lat="44.52895" lon="6.30797">
        <ele>883.338</ele>
        <time>2021-08-02T16:19:05Z</time>
      </trkpt>
      <trkpt lat="44.52895" lon="6.30797">
        <ele>883.338</ele>
        <time>2021-08-02T16:19:05Z</time>
      </trkpt>
      <trkpt lat="44.52895" lon="6.30796">
        <ele>883.395</ele>
        <time>2021-08-02T16:19:06Z</time>
      </trkpt>
      <trkpt lat="44.52895" lon="6.30795">
        <ele>882.903</ele>
        <time>2021-08-02T16:19:08Z</time>
      </trkpt>
      <trkpt lat="44.52895" lon="6.30795">
        <ele>882.44</ele>
        <time>2021-08-02T16:19:19Z</time>
      </trkpt>
      <trkpt lat="44.52896" lon="6.30793">
        <ele>881.541</ele>
        <time>2021-08-02T16:19:20Z</time>
      </trkpt>
      <trkpt lat="44.52895" lon="6.30794">
        <ele>880.88</ele>
        <time>2021-08-02T16:19:22Z</time>
      </trkpt>
      <trkpt lat="44.52895" lon="6.30794">
        <ele>880.296</ele>
        <time>2021-08-02T16:19:23Z</time>
      </trkpt>
      <trkpt lat="44.52895" lon="6.30794">
        <ele>880.663</ele>
        <time>2021-08-02T16:19:35Z</time>
      </trkpt>
      <trkpt lat="44.52894" lon="6.30793">
        <ele>880.058</ele>
        <time>2021-08-02T16:19:36Z</time>
      </trkpt>
      <trkpt lat="44.52893" lon="6.30794">
        <ele>879.01</ele>
        <time>2021-08-02T16:19:37Z</time>
      </trkpt>
      <trkpt lat="44.5289" lon="6.30797">
        <ele>876.45</ele>
        <time>2021-08-02T16:19:40Z</time>
      </trkpt>
      <trkpt lat="44.52886" lon="6.30801">
        <ele>875.301</ele>
        <time>2021-08-02T16:19:44Z</time>
      </trkpt>
      <trkpt lat="44.5288" lon="6.30809">
        <ele>872.962</ele>
        <time>2021-08-02T16:19:52Z</time>
      </trkpt>
      <trkpt lat="44.52878" lon="6.30815">
        <ele>872.941</ele>
        <time>2021-08-02T16:19:57Z</time>
      </trkpt>
      <trkpt lat="44.52879" lon="6.30821">
        <ele>871.221</ele>
        <time>2021-08-02T16:20:01Z</time>
      </trkpt>
      <trkpt lat="44.52886" lon="6.30839">
        <ele>868.736</ele>
        <time>2021-08-02T16:20:12Z</time>
      </trkpt>
      <trkpt lat="44.52886" lon="6.30841">
        <ele>867.832</ele>
        <time>2021-08-02T16:20:16Z</time>
      </trkpt>
      <trkpt lat="44.52886" lon="6.30841">
        <ele>866.685</ele>
        <time>2021-08-02T16:21:06Z</time>
      </trkpt>
      <trkpt lat="44.52887" lon="6.30841">
        <ele>866.677</ele>
        <time>2021-08-02T16:21:07Z</time>
      </trkpt>
      <trkpt lat="44.52888" lon="6.30842">
        <ele>866.694</ele>
        <time>2021-08-02T16:21:08Z</time>
      </trkpt>
      <trkpt lat="44.52889" lon="6.30842">
        <ele>866.752</ele>
        <time>2021-08-02T16:21:09Z</time>
      </trkpt>
      <trkpt lat="44.5289" lon="6.30843">
        <ele>866.947</ele>
        <time>2021-08-02T16:21:10Z</time>
      </trkpt>
      <trkpt lat="44.52904" lon="6.30846">
        <ele>865.702</ele>
        <time>2021-08-02T16:21:18Z</time>
      </trkpt>
      <trkpt lat="44.52942" lon="6.30838">
        <ele>863.462</ele>
        <time>2021-08-02T16:21:49Z</time>
      </trkpt>
      <trkpt lat="44.52949" lon="6.30843">
        <ele>862.245</ele>
        <time>2021-08-02T16:21:55Z</time>
      </trkpt>
      <trkpt lat="44.52951" lon="6.30846">
        <ele>861.623</ele>
        <time>2021-08-02T16:21:58Z</time>
      </trkpt>
      <trkpt lat="44.52952" lon="6.3085">
        <ele>861.377</ele>
        <time>2021-08-02T16:22:01Z</time>
      </trkpt>
      <trkpt lat="44.52956" lon="6.30872">
        <ele>860.518</ele>
        <time>2021-08-02T16:22:12Z</time>
      </trkpt>
      <trkpt lat="44.52958" lon="6.30876">
        <ele>860.234</ele>
        <time>2021-08-02T16:22:15Z</time>
      </trkpt>
      <trkpt lat="44.52963" lon="6.30896">
        <ele>859.354</ele>
        <time>2021-08-02T16:22:25Z</time>
      </trkpt>
      <trkpt lat="44.52965" lon="6.30902">
        <ele>859.165</ele>
        <time>2021-08-02T16:22:29Z</time>
      </trkpt>
      <trkpt lat="44.52966" lon="6.30907">
        <ele>856.65</ele>
        <time>2021-08-02T16:22:32Z</time>
      </trkpt>
      <trkpt lat="44.52967" lon="6.30917">
        <ele>855.138</ele>
        <time>2021-08-02T16:22:38Z</time>
      </trkpt>
      <trkpt lat="44.52967" lon="6.30923">
        <ele>855.146</ele>
        <time>2021-08-02T16:22:41Z</time>
      </trkpt>
      <trkpt lat="44.52966" lon="6.30934">
        <ele>854.192</ele>
        <time>2021-08-02T16:22:47Z</time>
      </trkpt>
      <trkpt lat="44.52966" lon="6.30938">
        <ele>854.222</ele>
        <time>2021-08-02T16:22:49Z</time>
      </trkpt>
      <trkpt lat="44.52967" lon="6.3094">
        <ele>853.518</ele>
        <time>2021-08-02T16:22:51Z</time>
      </trkpt>
      <trkpt lat="44.52967" lon="6.30948">
        <ele>853.499</ele>
        <time>2021-08-02T16:22:56Z</time>
      </trkpt>
      <trkpt lat="44.52967" lon="6.30953">
        <ele>853.308</ele>
        <time>2021-08-02T16:22:59Z</time>
      </trkpt>
      <trkpt lat="44.5297" lon="6.30971">
        <ele>853.044</ele>
        <time>2021-08-02T16:23:08Z</time>
      </trkpt>
      <trkpt lat="44.52971" lon="6.30983">
        <ele>853.169</ele>
        <time>2021-08-02T16:23:13Z</time>
      </trkpt>
      <trkpt lat="44.52969" lon="6.3101">
        <ele>853.318</ele>
        <time>2021-08-02T16:23:24Z</time>
      </trkpt>
      <trkpt lat="44.52965" lon="6.31017">
        <ele>853.466</ele>
        <time>2021-08-02T16:23:28Z</time>
      </trkpt>
      <trkpt lat="44.5296" lon="6.31036">
        <ele>853.134</ele>
        <time>2021-08-02T16:23:38Z</time>
      </trkpt>
      <trkpt lat="44.52962" lon="6.31058">
        <ele>852.883</ele>
        <time>2021-08-02T16:23:51Z</time>
      </trkpt>
      <trkpt lat="44.52964" lon="6.31063">
        <ele>852.974</ele>
        <time>2021-08-02T16:23:54Z</time>
      </trkpt>
      <trkpt lat="44.5297" lon="6.31091">
        <ele>853.205</ele>
        <time>2021-08-02T16:24:06Z</time>
      </trkpt>
      <trkpt lat="44.52968" lon="6.31101">
        <ele>852.481</ele>
        <time>2021-08-02T16:24:12Z</time>
      </trkpt>
      <trkpt lat="44.52966" lon="6.31119">
        <ele>851.896</ele>
        <time>2021-08-02T16:24:25Z</time>
      </trkpt>
      <trkpt lat="44.52967" lon="6.31128">
        <ele>851.873</ele>
        <time>2021-08-02T16:24:30Z</time>
      </trkpt>
      <trkpt lat="44.52966" lon="6.31136">
        <ele>851.839</ele>
        <time>2021-08-02T16:24:34Z</time>
      </trkpt>
      <trkpt lat="44.52966" lon="6.3114">
        <ele>851.264</ele>
        <time>2021-08-02T16:24:37Z</time>
      </trkpt>
      <trkpt lat="44.52967" lon="6.31144">
        <ele>851.126</ele>
        <time>2021-08-02T16:24:39Z</time>
      </trkpt>
      <trkpt lat="44.52966" lon="6.3115">
        <ele>850.66</ele>
        <time>2021-08-02T16:24:42Z</time>
      </trkpt>
      <trkpt lat="44.52967" lon="6.31155">
        <ele>850.259</ele>
        <time>2021-08-02T16:24:45Z</time>
      </trkpt>
      <trkpt lat="44.52963" lon="6.31184">
        <ele>849.635</ele>
        <time>2021-08-02T16:25:02Z</time>
      </trkpt>
      <trkpt lat="44.52963" lon="6.31189">
        <ele>849.524</ele>
        <time>2021-08-02T16:25:04Z</time>
      </trkpt>
      <trkpt lat="44.52962" lon="6.31192">
        <ele>849.336</ele>
        <time>2021-08-02T16:25:06Z</time>
      </trkpt>
      <trkpt lat="44.52953" lon="6.31231">
        <ele>849.362</ele>
        <time>2021-08-02T16:25:30Z</time>
      </trkpt>
      <trkpt lat="44.52939" lon="6.31264">
        <ele>849.158</ele>
        <time>2021-08-02T16:25:50Z</time>
      </trkpt>
      <trkpt lat="44.52938" lon="6.31272">
        <ele>849.486</ele>
        <time>2021-08-02T16:25:54Z</time>
      </trkpt>
      <trkpt lat="44.52931" lon="6.31291">
        <ele>849.184</ele>
        <time>2021-08-02T16:26:05Z</time>
      </trkpt>
      <trkpt lat="44.52929" lon="6.313">
        <ele>849.125</ele>
        <time>2021-08-02T16:26:09Z</time>
      </trkpt>
      <trkpt lat="44.52926" lon="6.31309">
        <ele>849.958</ele>
        <time>2021-08-02T16:26:13Z</time>
      </trkpt>
      <trkpt lat="44.52891" lon="6.31424">
        <ele>849.329</ele>
        <time>2021-08-02T16:27:18Z</time>
      </trkpt>
      <trkpt lat="44.52878" lon="6.31459">
        <ele>850.125</ele>
        <time>2021-08-02T16:27:40Z</time>
      </trkpt>
      <trkpt lat="44.52866" lon="6.31486">
        <ele>850.853</ele>
        <time>2021-08-02T16:27:55Z</time>
      </trkpt>
      <trkpt lat="44.52851" lon="6.31546">
        <ele>852.919</ele>
        <time>2021-08-02T16:28:26Z</time>
      </trkpt>
      <trkpt lat="44.5285" lon="6.31558">
        <ele>853.399</ele>
        <time>2021-08-02T16:28:32Z</time>
      </trkpt>
      <trkpt lat="44.52848" lon="6.31569">
        <ele>852.935</ele>
        <time>2021-08-02T16:28:40Z</time>
      </trkpt>
      <trkpt lat="44.52845" lon="6.31585">
        <ele>853.406</ele>
        <time>2021-08-02T16:28:47Z</time>
      </trkpt>
      <trkpt lat="44.52845" lon="6.31602">
        <ele>852.922</ele>
        <time>2021-08-02T16:28:57Z</time>
      </trkpt>
      <trkpt lat="44.52845" lon="6.31606">
        <ele>852.896</ele>
        <time>2021-08-02T16:28:59Z</time>
      </trkpt>
      <trkpt lat="44.52849" lon="6.31644">
        <ele>850.85</ele>
        <time>2021-08-02T16:29:22Z</time>
      </trkpt>
      <trkpt lat="44.52849" lon="6.31644">
        <ele>851.051</ele>
        <time>2021-08-02T16:29:23Z</time>
      </trkpt>
      <trkpt lat="44.52849" lon="6.31644">
        <ele>851.084</ele>
        <time>2021-08-02T16:29:24Z</time>
      </trkpt>
      <trkpt lat="44.52849" lon="6.31645">
        <ele>851.263</ele>
        <time>2021-08-02T16:29:25Z</time>
      </trkpt>
      <trkpt lat="44.52849" lon="6.31645">
        <ele>851.263</ele>
        <time>2021-08-02T16:29:25Z</time>
      </trkpt>
      <trkpt lat="44.52849" lon="6.31645">
        <ele>851.038</ele>
        <time>2021-08-02T16:29:26Z</time>
      </trkpt>
      <trkpt lat="44.52849" lon="6.31646">
        <ele>850.489</ele>
        <time>2021-08-02T16:29:28Z</time>
      </trkpt>
      <trkpt lat="44.52849" lon="6.31646">
        <ele>850.489</ele>
        <time>2021-08-02T16:29:28Z</time>
      </trkpt>
      <trkpt lat="44.5285" lon="6.31647">
        <ele>850.663</ele>
        <time>2021-08-02T16:29:29Z</time>
      </trkpt>
      <trkpt lat="44.5285" lon="6.31647">
        <ele>850.663</ele>
        <time>2021-08-02T16:29:29Z</time>
      </trkpt>
      <trkpt lat="44.5285" lon="6.31647">
        <ele>850.736</ele>
        <time>2021-08-02T16:29:29Z</time>
      </trkpt>
      <trkpt lat="44.5285" lon="6.31647">
        <ele>850.918</ele>
        <time>2021-08-02T16:29:32Z</time>
      </trkpt>
      <trkpt lat="44.5285" lon="6.31647">
        <ele>850.952</ele>
        <time>2021-08-02T16:29:33Z</time>
      </trkpt>
      <trkpt lat="44.5285" lon="6.31647">
        <ele>850.895</ele>
        <time>2021-08-02T16:29:34Z</time>
      </trkpt>
      <trkpt lat="44.5285" lon="6.31647">
        <ele>851.071</ele>
        <time>2021-08-02T16:29:38Z</time>
      </trkpt>
      <trkpt lat="44.52849" lon="6.31648">
        <ele>850.992</ele>
        <time>2021-08-02T16:29:39Z</time>
      </trkpt>
      <trkpt lat="44.52849" lon="6.31649">
        <ele>850.781</ele>
        <time>2021-08-02T16:29:40Z</time>
      </trkpt>
      <trkpt lat="44.52849" lon="6.31672">
        <ele>848.702</ele>
        <time>2021-08-02T16:29:54Z</time>
      </trkpt>
      <trkpt lat="44.52848" lon="6.31691">
        <ele>848.597</ele>
        <time>2021-08-02T16:30:05Z</time>
      </trkpt>
      <trkpt lat="44.52846" lon="6.31695">
        <ele>848.582</ele>
        <time>2021-08-02T16:30:08Z</time>
      </trkpt>
      <trkpt lat="44.52841" lon="6.31708">
        <ele>848.12</ele>
        <time>2021-08-02T16:30:17Z</time>
      </trkpt>
      <trkpt lat="44.52843" lon="6.31714">
        <ele>848.106</ele>
        <time>2021-08-02T16:30:20Z</time>
      </trkpt>
      <trkpt lat="44.52847" lon="6.31722">
        <ele>847.458</ele>
        <time>2021-08-02T16:30:24Z</time>
      </trkpt>
      <trkpt lat="44.52849" lon="6.31731">
        <ele>848.087</ele>
        <time>2021-08-02T16:30:29Z</time>
      </trkpt>
      <trkpt lat="44.52851" lon="6.31738">
        <ele>848.499</ele>
        <time>2021-08-02T16:30:32Z</time>
      </trkpt>
      <trkpt lat="44.52855" lon="6.3175">
        <ele>848.66</ele>
        <time>2021-08-02T16:30:38Z</time>
      </trkpt>
      <trkpt lat="44.52855" lon="6.31751">
        <ele>848.663</ele>
        <time>2021-08-02T16:30:39Z</time>
      </trkpt>
      <trkpt lat="44.52857" lon="6.31771">
        <ele>849.195</ele>
        <time>2021-08-02T16:30:48Z</time>
      </trkpt>
      <trkpt lat="44.52855" lon="6.31797">
        <ele>850.621</ele>
        <time>2021-08-02T16:31:02Z</time>
      </trkpt>
      <trkpt lat="44.52855" lon="6.31808">
        <ele>851.665</ele>
        <time>2021-08-02T16:31:09Z</time>
      </trkpt>
      <trkpt lat="44.52856" lon="6.31812">
        <ele>852.178</ele>
        <time>2021-08-02T16:31:12Z</time>
      </trkpt>
      <trkpt lat="44.52858" lon="6.31819">
        <ele>851.776</ele>
        <time>2021-08-02T16:31:18Z</time>
      </trkpt>
      <trkpt lat="44.52861" lon="6.31826">
        <ele>852.045</ele>
        <time>2021-08-02T16:31:23Z</time>
      </trkpt>
      <trkpt lat="44.52864" lon="6.31848">
        <ele>852.583</ele>
        <time>2021-08-02T16:31:37Z</time>
      </trkpt>
      <trkpt lat="44.52864" lon="6.31849">
        <ele>852.894</ele>
        <time>2021-08-02T16:31:38Z</time>
      </trkpt>
      <trkpt lat="44.52869" lon="6.31856">
        <ele>854.027</ele>
        <time>2021-08-02T16:31:43Z</time>
      </trkpt>
      <trkpt lat="44.52871" lon="6.3186">
        <ele>854.132</ele>
        <time>2021-08-02T16:31:46Z</time>
      </trkpt>
      <trkpt lat="44.52875" lon="6.31867">
        <ele>855.419</ele>
        <time>2021-08-02T16:31:51Z</time>
      </trkpt>
      <trkpt lat="44.52883" lon="6.31871">
        <ele>855.332</ele>
        <time>2021-08-02T16:31:57Z</time>
      </trkpt>
      <trkpt lat="44.52899" lon="6.31868">
        <ele>855.373</ele>
        <time>2021-08-02T16:32:10Z</time>
      </trkpt>
      <trkpt lat="44.52901" lon="6.31867">
        <ele>855.85</ele>
        <time>2021-08-02T16:32:13Z</time>
      </trkpt>
      <trkpt lat="44.52902" lon="6.31866">
        <ele>855.659</ele>
        <time>2021-08-02T16:32:15Z</time>
      </trkpt>
      <trkpt lat="44.52903" lon="6.31866">
        <ele>855.561</ele>
        <time>2021-08-02T16:32:16Z</time>
      </trkpt>
      <trkpt lat="44.52903" lon="6.31866">
        <ele>855.561</ele>
        <time>2021-08-02T16:32:16Z</time>
      </trkpt>
      <trkpt lat="44.52903" lon="6.31866">
        <ele>855.714</ele>
        <time>2021-08-02T16:32:17Z</time>
      </trkpt>
      <trkpt lat="44.52903" lon="6.31866">
        <ele>856.033</ele>
        <time>2021-08-02T16:32:18Z</time>
      </trkpt>
      <trkpt lat="44.52903" lon="6.31866">
        <ele>855.97</ele>
        <time>2021-08-02T16:32:19Z</time>
      </trkpt>
      <trkpt lat="44.52904" lon="6.31867">
        <ele>855.468</ele>
        <time>2021-08-02T16:32:21Z</time>
      </trkpt>
      <trkpt lat="44.52905" lon="6.31867">
        <ele>855.615</ele>
        <time>2021-08-02T16:32:22Z</time>
      </trkpt>
      <trkpt lat="44.52905" lon="6.31867">
        <ele>855.52</ele>
        <time>2021-08-02T16:32:23Z</time>
      </trkpt>
      <trkpt lat="44.52905" lon="6.31867">
        <ele>855.208</ele>
        <time>2021-08-02T16:32:24Z</time>
      </trkpt>
      <trkpt lat="44.52905" lon="6.31867">
        <ele>855.111</ele>
        <time>2021-08-02T16:32:25Z</time>
      </trkpt>
      <trkpt lat="44.52905" lon="6.31867">
        <ele>854.94</ele>
        <time>2021-08-02T16:32:28Z</time>
      </trkpt>
      <trkpt lat="44.52904" lon="6.31868">
        <ele>854.818</ele>
        <time>2021-08-02T16:32:29Z</time>
      </trkpt>
      <trkpt lat="44.52902" lon="6.31867">
        <ele>854.921</ele>
        <time>2021-08-02T16:32:32Z</time>
      </trkpt>
      <trkpt lat="44.52902" lon="6.31867">
        <ele>854.921</ele>
        <time>2021-08-02T16:32:32Z</time>
      </trkpt>
      <trkpt lat="44.52902" lon="6.31867">
        <ele>854.892</ele>
        <time>2021-08-02T16:32:33Z</time>
      </trkpt>
      <trkpt lat="44.52902" lon="6.31867">
        <ele>854.892</ele>
        <time>2021-08-02T16:32:33Z</time>
      </trkpt>
      <trkpt lat="44.52901" lon="6.31866">
        <ele>855.114</ele>
        <time>2021-08-02T16:32:34Z</time>
      </trkpt>
      <trkpt lat="44.52901" lon="6.31866">
        <ele>855.325</ele>
        <time>2021-08-02T16:32:35Z</time>
      </trkpt>
      <trkpt lat="44.52901" lon="6.31866">
        <ele>855.389</ele>
        <time>2021-08-02T16:32:48Z</time>
      </trkpt>
      <trkpt lat="44.52902" lon="6.31866">
        <ele>855.624</ele>
        <time>2021-08-02T16:32:49Z</time>
      </trkpt>
      <trkpt lat="44.52902" lon="6.31866">
        <ele>855.163</ele>
        <time>2021-08-02T16:32:50Z</time>
      </trkpt>
      <trkpt lat="44.52902" lon="6.31866">
        <ele>855.128</ele>
        <time>2021-08-02T16:32:52Z</time>
      </trkpt>
      <trkpt lat="44.52902" lon="6.31867">
        <ele>855.036</ele>
        <time>2021-08-02T16:32:53Z</time>
      </trkpt>
      <trkpt lat="44.52902" lon="6.31874">
        <ele>855.449</ele>
        <time>2021-08-02T16:32:59Z</time>
      </trkpt>
      <trkpt lat="44.52901" lon="6.31875">
        <ele>855.611</ele>
        <time>2021-08-02T16:33:01Z</time>
      </trkpt>
      <trkpt lat="44.52901" lon="6.31875">
        <ele>856.523</ele>
        <time>2021-08-02T16:33:05Z</time>
      </trkpt>
      <trkpt lat="44.529" lon="6.31876">
        <ele>856.855</ele>
        <time>2021-08-02T16:33:06Z</time>
      </trkpt>
      <trkpt lat="44.52899" lon="6.31878">
        <ele>857.065</ele>
        <time>2021-08-02T16:33:07Z</time>
      </trkpt>
      <trkpt lat="44.52892" lon="6.31897">
        <ele>857.712</ele>
        <time>2021-08-02T16:33:20Z</time>
      </trkpt>
      <trkpt lat="44.5289" lon="6.31906">
        <ele>857.913</ele>
        <time>2021-08-02T16:33:25Z</time>
      </trkpt>
      <trkpt lat="44.52876" lon="6.31936">
        <ele>859.067</ele>
        <time>2021-08-02T16:33:46Z</time>
      </trkpt>
      <trkpt lat="44.52873" lon="6.31952">
        <ele>861.127</ele>
        <time>2021-08-02T16:33:54Z</time>
      </trkpt>
      <trkpt lat="44.5287" lon="6.31964">
        <ele>863.218</ele>
        <time>2021-08-02T16:34:01Z</time>
      </trkpt>
      <trkpt lat="44.52868" lon="6.31969">
        <ele>863.877</ele>
        <time>2021-08-02T16:34:04Z</time>
      </trkpt>
      <trkpt lat="44.52865" lon="6.31981">
        <ele>864.489</ele>
        <time>2021-08-02T16:34:10Z</time>
      </trkpt>
      <trkpt lat="44.5286" lon="6.31996">
        <ele>864.293</ele>
        <time>2021-08-02T16:34:19Z</time>
      </trkpt>
      <trkpt lat="44.52854" lon="6.32027">
        <ele>864.527</ele>
        <time>2021-08-02T16:34:39Z</time>
      </trkpt>
      <trkpt lat="44.52852" lon="6.32032">
        <ele>864.656</ele>
        <time>2021-08-02T16:34:42Z</time>
      </trkpt>
      <trkpt lat="44.52849" lon="6.3204">
        <ele>864.581</ele>
        <time>2021-08-02T16:34:47Z</time>
      </trkpt>
      <trkpt lat="44.52843" lon="6.32054">
        <ele>864.556</ele>
        <time>2021-08-02T16:34:55Z</time>
      </trkpt>
      <trkpt lat="44.52842" lon="6.32059">
        <ele>864.687</ele>
        <time>2021-08-02T16:34:58Z</time>
      </trkpt>
      <trkpt lat="44.52834" lon="6.32088">
        <ele>864.329</ele>
        <time>2021-08-02T16:35:17Z</time>
      </trkpt>
      <trkpt lat="44.52834" lon="6.32088">
        <ele>864.113</ele>
        <time>2021-08-02T16:35:31Z</time>
      </trkpt>
      <trkpt lat="44.52837" lon="6.32087">
        <ele>864.523</ele>
        <time>2021-08-02T16:35:32Z</time>
      </trkpt>
      <trkpt lat="44.52837" lon="6.32087">
        <ele>864.465</ele>
        <time>2021-08-02T16:35:33Z</time>
      </trkpt>
      <trkpt lat="44.52837" lon="6.32087">
        <ele>864.166</ele>
        <time>2021-08-02T16:35:34Z</time>
      </trkpt>
      <trkpt lat="44.52838" lon="6.32086">
        <ele>864.435</ele>
        <time>2021-08-02T16:35:35Z</time>
      </trkpt>
      <trkpt lat="44.52839" lon="6.32088">
        <ele>863.482</ele>
        <time>2021-08-02T16:35:38Z</time>
      </trkpt>
      <trkpt lat="44.5284" lon="6.32094">
        <ele>863.432</ele>
        <time>2021-08-02T16:35:41Z</time>
      </trkpt>
      <trkpt lat="44.52839" lon="6.32099">
        <ele>863.51</ele>
        <time>2021-08-02T16:35:43Z</time>
      </trkpt>
      <trkpt lat="44.52837" lon="6.32106">
        <ele>862.931</ele>
        <time>2021-08-02T16:35:47Z</time>
      </trkpt>
      <trkpt lat="44.52822" lon="6.32136">
        <ele>862.414</ele>
        <time>2021-08-02T16:36:08Z</time>
      </trkpt>
      <trkpt lat="44.52817" lon="6.32141">
        <ele>862.654</ele>
        <time>2021-08-02T16:36:13Z</time>
      </trkpt>
      <trkpt lat="44.52816" lon="6.32145">
        <ele>862.161</ele>
        <time>2021-08-02T16:36:15Z</time>
      </trkpt>
      <trkpt lat="44.52813" lon="6.32152">
        <ele>861.922</ele>
        <time>2021-08-02T16:36:19Z</time>
      </trkpt>
      <trkpt lat="44.52809" lon="6.32156">
        <ele>862.074</ele>
        <time>2021-08-02T16:36:22Z</time>
      </trkpt>
      <trkpt lat="44.52799" lon="6.3217">
        <ele>861.314</ele>
        <time>2021-08-02T16:36:32Z</time>
      </trkpt>
      <trkpt lat="44.52795" lon="6.32173">
        <ele>861.474</ele>
        <time>2021-08-02T16:36:36Z</time>
      </trkpt>
      <trkpt lat="44.52792" lon="6.32177">
        <ele>861.482</ele>
        <time>2021-08-02T16:36:39Z</time>
      </trkpt>
      <trkpt lat="44.52781" lon="6.32186">
        <ele>860.838</ele>
        <time>2021-08-02T16:36:50Z</time>
      </trkpt>
      <trkpt lat="44.52774" lon="6.32205">
        <ele>860.768</ele>
        <time>2021-08-02T16:37:00Z</time>
      </trkpt>
      <trkpt lat="44.52775" lon="6.3221">
        <ele>860.949</ele>
        <time>2021-08-02T16:37:02Z</time>
      </trkpt>
      <trkpt lat="44.52776" lon="6.32216">
        <ele>860.679</ele>
        <time>2021-08-02T16:37:05Z</time>
      </trkpt>
      <trkpt lat="44.52775" lon="6.32221">
        <ele>860.879</ele>
        <time>2021-08-02T16:37:07Z</time>
      </trkpt>
      <trkpt lat="44.52773" lon="6.32227">
        <ele>858.664</ele>
        <time>2021-08-02T16:37:11Z</time>
      </trkpt>
      <trkpt lat="44.52773" lon="6.32228">
        <ele>857.867</ele>
        <time>2021-08-02T16:37:12Z</time>
      </trkpt>
      <trkpt lat="44.52772" lon="6.32229">
        <ele>857.529</ele>
        <time>2021-08-02T16:37:15Z</time>
      </trkpt>
      <trkpt lat="44.52772" lon="6.32229">
        <ele>857.529</ele>
        <time>2021-08-02T16:37:15Z</time>
      </trkpt>
      <trkpt lat="44.52772" lon="6.32229">
        <ele>857.498</ele>
        <time>2021-08-02T16:37:16Z</time>
      </trkpt>
      <trkpt lat="44.52772" lon="6.32229">
        <ele>857.498</ele>
        <time>2021-08-02T16:37:16Z</time>
      </trkpt>
      <trkpt lat="44.52771" lon="6.3223">
        <ele>857.77</ele>
        <time>2021-08-02T16:37:17Z</time>
      </trkpt>
      <trkpt lat="44.52771" lon="6.3223">
        <ele>858.168</ele>
        <time>2021-08-02T16:37:18Z</time>
      </trkpt>
      <trkpt lat="44.5277" lon="6.32232">
        <ele>858.028</ele>
        <time>2021-08-02T16:37:20Z</time>
      </trkpt>
      <trkpt lat="44.5277" lon="6.32233">
        <ele>857.608</ele>
        <time>2021-08-02T16:37:21Z</time>
      </trkpt>
      <trkpt lat="44.5277" lon="6.32233">
        <ele>857.608</ele>
        <time>2021-08-02T16:37:21Z</time>
      </trkpt>
      <trkpt lat="44.5277" lon="6.32233">
        <ele>857.296</ele>
        <time>2021-08-02T16:37:22Z</time>
      </trkpt>
      <trkpt lat="44.5277" lon="6.32233">
        <ele>857.3</ele>
        <time>2021-08-02T16:37:24Z</time>
      </trkpt>
      <trkpt lat="44.52769" lon="6.32235">
        <ele>857.283</ele>
        <time>2021-08-02T16:37:25Z</time>
      </trkpt>
      <trkpt lat="44.52769" lon="6.32236">
        <ele>857.616</ele>
        <time>2021-08-02T16:37:26Z</time>
      </trkpt>
      <trkpt lat="44.52767" lon="6.32237">
        <ele>855.733</ele>
        <time>2021-08-02T16:37:30Z</time>
      </trkpt>
      <trkpt lat="44.52767" lon="6.32237">
        <ele>855.733</ele>
        <time>2021-08-02T16:37:30Z</time>
      </trkpt>
      <trkpt lat="44.52767" lon="6.32237">
        <ele>855.707</ele>
        <time>2021-08-02T16:37:31Z</time>
      </trkpt>
      <trkpt lat="44.52767" lon="6.32237">
        <ele>856.106</ele>
        <time>2021-08-02T16:37:41Z</time>
      </trkpt>
      <trkpt lat="44.52766" lon="6.32236">
        <ele>856.114</ele>
        <time>2021-08-02T16:37:42Z</time>
      </trkpt>
      <trkpt lat="44.52764" lon="6.32238">
        <ele>855.908</ele>
        <time>2021-08-02T16:37:45Z</time>
      </trkpt>
      <trkpt lat="44.5276" lon="6.32239">
        <ele>856.141</ele>
        <time>2021-08-02T16:37:48Z</time>
      </trkpt>
      <trkpt lat="44.52745" lon="6.32242">
        <ele>853.711</ele>
        <time>2021-08-02T16:37:59Z</time>
      </trkpt>
      <trkpt lat="44.52741" lon="6.32244">
        <ele>851.531</ele>
        <time>2021-08-02T16:38:03Z</time>
      </trkpt>
      <trkpt lat="44.52735" lon="6.32249">
        <ele>849.366</ele>
        <time>2021-08-02T16:38:10Z</time>
      </trkpt>
      <trkpt lat="44.52712" lon="6.32277">
        <ele>847.071</ele>
        <time>2021-08-02T16:38:34Z</time>
      </trkpt>
      <trkpt lat="44.52699" lon="6.32289">
        <ele>845.862</ele>
        <time>2021-08-02T16:38:46Z</time>
      </trkpt>
      <trkpt lat="44.52675" lon="6.32305">
        <ele>843.676</ele>
        <time>2021-08-02T16:39:04Z</time>
      </trkpt>
      <trkpt lat="44.52672" lon="6.32309">
        <ele>843.514</ele>
        <time>2021-08-02T16:39:07Z</time>
      </trkpt>
      <trkpt lat="44.52638" lon="6.32342">
        <ele>841.162</ele>
        <time>2021-08-02T16:39:33Z</time>
      </trkpt>
      <trkpt lat="44.52631" lon="6.3235">
        <ele>840.714</ele>
        <time>2021-08-02T16:39:38Z</time>
      </trkpt>
      <trkpt lat="44.5262" lon="6.32359">
        <ele>838.585</ele>
        <time>2021-08-02T16:39:50Z</time>
      </trkpt>
      <trkpt lat="44.52615" lon="6.32361">
        <ele>837.925</ele>
        <time>2021-08-02T16:39:54Z</time>
      </trkpt>
      <trkpt lat="44.52606" lon="6.32361">
        <ele>837.15</ele>
        <time>2021-08-02T16:40:01Z</time>
      </trkpt>
      <trkpt lat="44.52599" lon="6.32362">
        <ele>836.607</ele>
        <time>2021-08-02T16:40:05Z</time>
      </trkpt>
      <trkpt lat="44.52593" lon="6.32362">
        <ele>836.211</ele>
        <time>2021-08-02T16:40:09Z</time>
      </trkpt>
      <trkpt lat="44.52584" lon="6.3236">
        <ele>836.084</ele>
        <time>2021-08-02T16:40:15Z</time>
      </trkpt>
      <trkpt lat="44.5256" lon="6.3237">
        <ele>833.965</ele>
        <time>2021-08-02T16:40:33Z</time>
      </trkpt>
      <trkpt lat="44.52542" lon="6.32377">
        <ele>832.847</ele>
        <time>2021-08-02T16:40:47Z</time>
      </trkpt>
      <trkpt lat="44.52527" lon="6.32387">
        <ele>830.83</ele>
        <time>2021-08-02T16:41:00Z</time>
      </trkpt>
      <trkpt lat="44.52513" lon="6.32407">
        <ele>828.247</ele>
        <time>2021-08-02T16:41:14Z</time>
      </trkpt>
      <trkpt lat="44.52506" lon="6.32414">
        <ele>825.636</ele>
        <time>2021-08-02T16:41:22Z</time>
      </trkpt>
      <trkpt lat="44.52503" lon="6.32419">
        <ele>823.55</ele>
        <time>2021-08-02T16:41:26Z</time>
      </trkpt>
      <trkpt lat="44.52495" lon="6.32428">
        <ele>821.528</ele>
        <time>2021-08-02T16:41:36Z</time>
      </trkpt>
      <trkpt lat="44.52487" lon="6.32434">
        <ele>819.147</ele>
        <time>2021-08-02T16:41:43Z</time>
      </trkpt>
      <trkpt lat="44.5247" lon="6.32442">
        <ele>816.673</ele>
        <time>2021-08-02T16:41:59Z</time>
      </trkpt>
      <trkpt lat="44.5246" lon="6.32442">
        <ele>814.36</ele>
        <time>2021-08-02T16:42:08Z</time>
      </trkpt>
      <trkpt lat="44.52441" lon="6.32445">
        <ele>812.414</ele>
        <time>2021-08-02T16:42:24Z</time>
      </trkpt>
      <trkpt lat="44.52432" lon="6.32451">
        <ele>810.322</ele>
        <time>2021-08-02T16:42:32Z</time>
      </trkpt>
      <trkpt lat="44.52429" lon="6.32452">
        <ele>809.772</ele>
        <time>2021-08-02T16:42:35Z</time>
      </trkpt>
      <trkpt lat="44.52425" lon="6.32454">
        <ele>808.991</ele>
        <time>2021-08-02T16:42:38Z</time>
      </trkpt>
      <trkpt lat="44.52401" lon="6.32472">
        <ele>808.772</ele>
        <time>2021-08-02T16:42:57Z</time>
      </trkpt>
      <trkpt lat="44.52399" lon="6.32473">
        <ele>808.5</ele>
        <time>2021-08-02T16:42:59Z</time>
      </trkpt>
      <trkpt lat="44.52396" lon="6.32476">
        <ele>808.53</ele>
        <time>2021-08-02T16:43:02Z</time>
      </trkpt>
      <trkpt lat="44.52391" lon="6.32479">
        <ele>808.13</ele>
        <time>2021-08-02T16:43:06Z</time>
      </trkpt>
      <trkpt lat="44.52379" lon="6.32488">
        <ele>806.507</ele>
        <time>2021-08-02T16:43:17Z</time>
      </trkpt>
      <trkpt lat="44.52371" lon="6.32495">
        <ele>805.403</ele>
        <time>2021-08-02T16:43:25Z</time>
      </trkpt>
      <trkpt lat="44.52364" lon="6.32503">
        <ele>803.2</ele>
        <time>2021-08-02T16:43:32Z</time>
      </trkpt>
      <trkpt lat="44.52361" lon="6.32508">
        <ele>800.883</ele>
        <time>2021-08-02T16:43:36Z</time>
      </trkpt>
      <trkpt lat="44.5235" lon="6.32514">
        <ele>799.403</ele>
        <time>2021-08-02T16:43:45Z</time>
      </trkpt>
      <trkpt lat="44.52346" lon="6.32515">
        <ele>799.04</ele>
        <time>2021-08-02T16:43:50Z</time>
      </trkpt>
    </trkseg>
  </trk>
</gpx>